GFSMW_sfc_thetae_000.txt.gz
Theta_e
344 348 351 353 354 357 360 362 362 364 364 362 355 355 353 356 360 358 365 365 363 363 362 357 358 358 355 354 352 347 345 339 347 338 339 341 345 344 346 342 335 337 339
343 347 351 352 353 356 360 363 364 365 365 360 363 360 362 357 358 360 363 364 363 364 361 361 358 359 351 353 348 347 340 341 345 337 336 330 336 341 341 339 332 332 334
341 344 348 350 352 354 359 362 365 366 367 367 363 363 362 363 358 359 361 363 365 365 365 363 359 357 349 340 348 346 342 335 346 345 336 328 328 332 338 339 334 333 331
344 345 346 349 351 353 358 364 366 368 368 369 365 367 356 352 352 356 355 360 365 364 363 362 358 352 345 348 345 346 343 343 338 341 343 343 340 328 328 333 333 336 332
342 344 346 347 351 354 356 360 366 370 371 369 370 363 362 355 354 354 360 363 363 364 359 362 354 350 345 349 349 346 345 343 338 337 339 341 337 340 329 323 328 333 334
339 343 346 348 349 352 355 358 365 370 370 369 368 367 363 361 353 356 353 350 352 356 360 360 354 350 346 348 346 346 345 344 342 340 340 334 331 331 328 324 327 327 331
338 340 343 345 348 350 353 356 362 365 367 367 366 367 366 365 362 360 354 352 347 348 355 360 353 347 350 347 346 345 344 343 340 342 337 338 336 335 332 329 327 326 330
337 339 342 345 348 350 352 355 359 364 366 365 369 371 369 363 361 362 355 351 347 346 352 357 352 350 348 347 345 340 340 342 340 342 343 337 337 336 334 331 329 326 326
338 338 341 344 347 350 353 359 363 363 363 363 366 368 369 366 362 364 363 355 356 347 353 353 350 347 348 345 344 339 340 340 341 340 341 340 335 334 335 335 334 329 322
338 338 340 343 347 349 352 356 359 362 363 363 363 363 365 367 365 365 363 359 357 355 351 350 346 346 345 344 345 341 342 341 335 334 339 340 336 336 336 335 334 333 329
338 339 340 342 346 348 350 354 357 359 361 361 365 364 362 363 365 364 364 363 358 354 350 350 344 344 343 344 344 343 340 339 339 339 340 341 344 337 334 333 333 331 330
339 341 342 343 344 347 348 350 354 356 359 363 366 362 362 362 362 363 362 358 354 351 349 346 344 344 343 343 343 340 338 338 337 338 340 341 338 342 342 336 339 335 335
339 342 343 344 345 346 351 350 353 354 356 360 360 360 360 360 361 358 352 353 349 346 342 342 344 345 345 343 344 343 341 339 338 339 340 340 340 339 337 337 333 332 332
339 342 343 346 347 350 356 357 353 355 356 357 359 360 359 359 359 356 343 342 343 343 340 343 341 342 344 344 343 342 342 339 337 340 341 341 341 340 339 336 339 337 333
338 341 343 350 355 355 357 356 355 356 357 358 357 359 362 359 355 350 343 341 341 343 336 337 336 339 343 339 343 341 339 339 339 341 342 343 342 337 336 334 338 337 332
338 341 345 348 351 352 353 355 356 356 358 359 358 361 362 356 348 348 346 347 345 342 338 337 337 338 338 331 330 337 339 340 341 341 343 344 340 338 332 330 330 331 332
338 340 344 347 351 352 356 354 356 358 358 358 359 361 358 352 347 347 346 345 343 343 341 340 340 338 341 327 327 331 338 339 342 343 343 339 335 336 339 332 328 327 325
339 341 342 346 350 351 351 353 354 356 357 358 358 358 355 349 349 347 346 345 342 339 341 341 340 339 340 327 325 330 340 343 344 342 338 337 334 334 337 337 334 333 333
342 343 344 347 350 348 350 351 351 353 354 355 356 353 352 347 345 345 344 345 343 341 342 343 342 341 342 320 321 329 339 340 340 337 336 334 334 328 322 330 330 332 332
340 342 342 345 345 346 348 349 349 351 352 354 355 351 350 348 345 346 346 345 345 342 339 340 342 335 343 320 317 325 336 337 334 334 332 323 327 317 316 327 329 327 328
341 343 343 342 345 347 348 348 349 350 354 356 354 350 351 351 350 349 346 345 343 341 343 341 343 340 335 339 316 316 336 332 330 331 337 334 316 313 311 311 327 323 321
339 340 342 345 348 350 350 351 351 356 357 356 350 349 350 348 349 347 343 342 342 342 340 343 342 341 343 322 316 313 317 326 333 337 334 324 309 308 309 312 311 310 310
337 339 343 347 350 353 353 352 358 358 356 350 347 348 348 347 347 345 340 338 340 338 339 339 337 336 340 334 313 311 311 316 331 334 314 308 306 305 306 310 310 308 318
340 341 342 345 349 352 353 356 354 355 354 349 347 345 347 345 344 343 341 342 340 337 341 338 336 332 334 334 330 324 321 313 320 312 320 316 312 308 311 315 313 318 319
342 342 343 346 348 351 351 352 352 351 348 346 344 344 343 342 344 336 326 341 331 325 335 334 331 332 334 332 321 320 329 329 317 321 324 322 322 320 320 320 319 318 316
344 344 345 347 348 349 350 352 350 349 346 341 341 341 341 343 341 336 331 301 302 301 300 299 315 327 307 301 299 297 297 300 301 315 319 319 319 318 318 317 314 314 310

GFSMW_sfc_thetae_003.txt.gz
Theta_e
343 346 348 349 350 353 356 360 362 369 363 359 360 358 354 358 357 357 366 367 364 365 364 359 361 357 357 356 351 346 345 340 343 336 338 341 342 342 341 337 335 336 338
340 344 347 349 349 352 356 363 365 370 367 361 363 362 359 355 355 356 365 364 365 365 362 365 358 358 354 354 350 347 340 339 342 336 334 332 337 339 340 337 333 333 334
336 342 345 348 350 352 358 364 370 372 370 371 365 367 366 360 359 356 358 362 364 364 365 362 362 361 354 338 349 345 342 335 343 345 336 328 330 334 340 340 335 334 332
338 341 345 348 349 353 357 366 372 373 373 374 366 368 356 350 349 352 354 359 365 364 364 364 360 359 347 351 346 344 344 343 338 339 339 341 339 330 328 338 335 334 332
338 340 343 347 350 352 355 361 373 375 375 373 370 360 361 353 353 351 367 365 368 361 358 358 360 355 344 349 348 345 346 345 339 337 335 341 334 336 328 323 329 332 333
338 342 344 347 349 352 354 360 371 375 377 374 371 370 368 362 352 354 354 353 352 357 358 356 360 355 346 347 346 347 346 345 344 340 340 334 330 330 328 325 328 327 331
338 340 343 345 349 353 356 360 369 374 375 371 371 370 369 370 366 363 355 356 347 349 360 359 361 352 351 348 348 348 347 344 342 344 338 344 339 337 332 329 327 327 330
340 338 342 347 351 353 359 361 366 372 375 373 374 375 375 361 359 363 357 352 349 349 358 357 357 354 349 348 349 342 341 347 341 342 347 338 338 338 335 335 336 327 328
339 339 340 344 349 351 357 361 366 370 373 366 375 375 374 372 361 369 368 357 363 350 350 355 356 354 349 349 350 340 346 342 343 344 347 341 336 335 334 334 338 330 322
339 340 340 342 348 349 354 361 365 369 368 369 372 369 370 373 371 372 369 366 363 358 358 354 353 352 352 352 351 346 347 345 339 336 346 346 337 336 335 335 334 331 327
337 340 340 342 345 347 351 355 359 366 367 369 369 370 367 369 370 368 368 367 364 362 358 357 354 350 349 347 348 347 344 346 346 345 342 344 349 337 334 334 333 331 330
337 340 341 341 342 347 347 349 353 354 362 368 371 370 371 369 367 368 369 368 365 362 358 356 352 348 347 346 346 342 341 341 339 339 344 342 338 348 349 336 345 340 340
335 339 340 342 343 345 348 347 351 350 355 364 364 367 366 368 367 368 368 367 366 360 354 354 351 347 346 347 347 346 343 341 340 339 343 342 345 347 340 343 338 336 339
338 339 341 344 346 348 350 351 350 350 352 357 359 365 367 367 366 368 367 363 362 357 352 351 348 347 346 345 344 343 342 343 342 342 343 343 344 344 345 343 345 342 337
335 340 342 350 353 351 354 355 353 356 355 361 359 365 370 368 367 367 366 362 358 354 350 348 346 345 342 342 345 343 343 345 342 341 341 344 345 339 338 342 334 341 335
329 340 344 347 355 355 358 358 358 359 361 364 363 368 371 368 366 365 362 356 356 352 349 343 342 341 338 331 333 341 340 343 343 341 342 343 341 338 333 333 332 331 331
331 336 343 347 352 353 360 359 362 362 364 367 368 372 372 366 360 360 357 354 352 352 348 342 343 341 343 328 328 332 339 339 342 344 342 342 338 337 338 334 329 329 328
332 335 341 347 354 353 353 358 359 365 367 368 368 371 369 361 355 353 352 352 353 351 348 344 346 344 343 326 326 331 338 338 341 342 342 343 342 341 335 337 334 334 338
333 337 345 348 360 357 362 362 359 362 364 362 367 369 365 358 353 349 350 353 351 353 346 343 344 344 344 322 322 330 339 338 342 343 343 343 338 331 325 329 328 333 335
334 341 346 350 354 359 356 359 355 358 360 362 365 368 363 357 351 350 350 352 354 350 343 342 343 338 346 319 318 327 336 333 335 347 344 327 330 320 320 332 331 331 332
344 349 349 353 357 359 354 356 355 354 357 359 360 361 358 354 351 352 353 351 350 346 341 340 345 348 343 339 316 316 337 333 336 335 337 333 317 316 313 313 328 327 322
343 345 348 351 353 357 356 357 358 362 364 362 360 356 353 351 351 353 349 347 346 345 344 345 345 344 345 326 316 314 316 327 336 333 333 339 315 314 312 313 315 312 312
343 344 343 350 352 358 359 359 366 366 363 362 355 352 353 352 353 352 349 345 346 342 341 341 338 339 342 348 316 314 313 315 329 335 316 313 311 309 308 309 312 311 317
341 343 345 347 351 357 356 360 361 362 360 353 350 350 349 349 349 349 344 341 339 339 340 339 340 340 345 336 337 332 327 317 324 316 322 319 316 311 313 316 314 318 319
341 343 345 347 349 354 356 356 358 359 352 348 347 350 349 348 347 341 335 344 345 333 339 339 339 338 334 335 325 322 330 332 323 327 328 324 323 323 322 321 322 320 319
342 344 345 348 350 352 353 354 355 355 352 348 348 347 346 347 343 335 328 302 305 302 302 300 317 326 307 301 300 299 301 303 306 322 322 321 321 319 319 319 319 318 315

GFSMW_sfc_thetae_006.txt.gz
Theta_e
340 344 345 347 349 353 357 359 360 366 367 363 358 358 356 362 360 361 361 364 369 368 368 363 363 357 363 349 351 351 346 345 347 341 339 342 343 344 343 338 336 337 339
337 342 345 346 347 351 355 361 361 366 365 364 363 362 359 357 358 361 364 366 364 369 361 363 360 357 355 355 352 350 344 344 348 339 339 332 339 338 340 337 332 334 336
333 341 344 345 348 350 355 358 363 364 365 366 365 366 366 360 358 361 361 365 367 367 358 362 365 362 358 351 353 349 346 340 349 345 339 332 331 336 341 340 334 336 333
336 339 343 346 348 351 356 361 364 366 367 365 363 360 355 354 359 361 359 363 367 366 366 367 365 363 355 355 352 349 346 347 340 345 343 342 339 331 329 340 334 334 331
335 337 343 346 349 352 356 360 365 366 367 366 365 361 360 356 357 355 368 364 367 365 362 364 363 359 355 356 350 348 347 349 344 341 342 343 340 337 330 326 329 334 334
337 339 343 347 349 352 356 358 365 367 368 368 365 365 358 358 354 359 359 358 359 362 365 361 361 359 354 353 351 351 352 348 348 344 344 340 337 331 334 328 328 329 334
337 338 341 344 348 350 354 357 363 365 368 368 365 364 364 362 365 367 359 358 353 356 359 362 360 355 355 355 353 351 351 348 346 346 343 342 340 339 335 333 328 327 331
338 339 342 344 348 350 354 357 361 364 368 367 367 366 365 362 362 364 359 358 354 356 356 358 360 359 352 352 351 348 346 348 345 343 345 342 342 341 338 333 330 326 328
338 339 343 345 348 350 353 356 362 365 368 368 368 368 366 364 361 364 364 361 360 359 358 357 359 356 353 352 352 344 345 347 348 346 345 342 339 340 340 338 336 328 323
338 340 341 346 348 351 353 358 360 364 368 368 368 368 368 366 365 363 364 359 360 360 355 357 354 355 351 352 351 346 348 345 344 343 343 342 341 342 340 334 337 332 329
337 338 341 344 349 352 352 355 357 363 366 368 367 368 367 367 366 367 366 361 363 357 357 354 354 353 351 351 348 346 344 344 344 344 343 342 346 342 339 341 337 333 333
334 338 342 342 345 348 350 353 356 360 364 366 367 366 367 368 366 364 366 363 364 360 356 356 354 353 347 349 346 343 340 344 342 343 343 341 340 343 341 341 338 338 337
338 338 341 342 343 345 348 351 355 357 363 365 364 364 365 365 365 365 363 364 363 360 358 355 353 349 346 347 345 344 343 343 342 341 341 341 341 341 342 340 339 337 336
342 339 340 343 343 345 347 350 352 355 359 361 362 362 363 364 363 365 364 363 363 360 359 355 353 349 346 345 344 344 344 343 342 345 344 344 341 341 341 339 339 339 336
339 343 345 347 346 346 347 349 350 352 354 358 361 361 365 364 364 364 364 364 364 363 362 355 352 348 344 343 344 344 343 343 343 340 344 343 344 340 340 339 337 338 334
332 341 344 351 353 348 348 348 348 349 353 355 356 361 364 365 364 363 364 364 365 362 359 351 348 344 341 335 336 343 342 343 342 338 343 345 339 337 333 333 333 337 333
332 339 346 347 351 352 350 348 348 351 351 355 357 359 363 365 364 364 364 364 362 359 354 349 344 340 343 328 330 336 342 340 342 339 342 339 338 338 339 333 330 330 329
331 333 330 348 353 354 351 352 352 354 353 361 359 361 365 364 364 363 363 363 358 354 353 348 342 340 342 327 327 332 336 339 342 340 341 335 339 341 340 337 337 332 332
337 334 332 339 354 354 355 357 354 353 361 358 363 364 369 366 364 362 360 358 353 352 350 347 342 342 343 323 323 327 334 336 336 340 340 339 342 335 325 333 330 330 333
330 341 342 344 355 357 356 356 357 356 354 361 364 369 369 365 359 357 354 351 353 352 352 345 345 337 345 321 319 326 335 335 337 340 340 328 333 325 321 330 331 330 331
336 347 355 353 357 359 358 356 357 358 360 367 367 370 368 363 357 352 351 351 352 354 348 341 341 342 343 338 316 317 337 336 335 334 336 338 320 317 316 316 328 324 318
340 348 360 361 362 362 361 361 361 366 368 366 367 367 361 353 351 350 351 351 349 345 343 343 341 348 348 329 315 315 319 331 336 335 338 327 313 315 316 313 313 313 314
349 349 355 360 363 365 361 359 363 364 363 363 363 360 355 351 351 352 346 344 348 344 342 341 344 343 344 337 318 313 313 315 325 336 319 314 310 315 310 312 313 313 317
349 350 351 352 356 359 361 363 363 364 362 360 356 353 351 352 354 351 349 346 344 343 341 344 342 344 342 340 333 327 323 317 322 317 318 318 318 317 317 318 312 316 319
348 352 353 355 357 362 360 362 364 363 356 352 350 347 347 348 347 331 330 343 324 325 346 348 343 340 339 338 330 330 334 332 325 325 327 322 323 322 320 319 321 320 320
342 344 351 353 353 357 358 360 361 357 352 348 347 347 345 345 338 330 323 301 303 300 301 303 322 320 308 305 303 301 302 304 311 326 330 326 324 322 319 318 318 319 319

GFSMW_sfc_thetae_009.txt.gz
Theta_e
335 340 342 343 345 350 349 349 348 354 354 353 353 351 350 350 351 351 355 352 355 356 353 352 350 350 350 343 345 338 332 333 336 328 331 334 334 336 332 326 325 330 335
332 337 339 341 343 346 349 349 347 355 354 356 354 350 349 351 351 351 352 354 357 355 353 352 350 349 349 342 338 334 330 333 333 325 326 325 332 333 331 324 325 326 330
331 334 337 339 341 345 349 350 349 354 356 356 355 355 352 351 349 350 353 357 357 357 353 353 350 347 343 341 337 334 331 327 335 332 327 323 321 329 333 327 325 324 324
332 334 336 338 340 345 349 351 352 354 355 356 353 349 346 342 348 350 351 355 358 356 352 352 353 348 342 340 336 337 332 333 328 335 333 329 327 322 321 329 327 325 324
330 334 337 339 341 344 348 353 353 353 356 355 354 351 347 347 350 349 347 354 355 355 356 354 352 345 337 339 339 335 331 336 331 330 332 331 328 324 321 319 322 328 326
330 334 338 340 340 345 349 352 355 355 357 354 355 353 350 348 346 344 350 353 353 352 354 354 350 345 341 338 336 336 334 335 334 331 331 328 326 322 323 318 319 321 326
329 330 335 338 340 343 347 352 354 353 357 356 353 355 352 350 347 347 350 351 349 349 351 352 348 343 341 340 338 335 335 334 332 328 329 331 327 326 324 320 318 317 322
329 330 336 338 341 342 347 351 354 353 357 357 357 354 355 351 349 351 351 351 350 351 350 351 349 344 341 342 341 337 336 336 333 332 330 330 330 329 326 324 322 316 319
329 331 334 338 341 342 348 349 355 356 357 359 359 356 356 355 353 351 354 350 348 350 350 351 349 346 341 341 339 336 333 336 334 330 331 330 329 330 330 330 325 319 313
329 332 334 337 341 343 347 350 354 356 359 358 360 359 357 354 353 351 352 352 347 350 348 351 352 348 342 340 338 334 337 334 334 333 332 331 330 330 331 329 326 325 322
330 332 335 338 342 344 347 349 353 357 359 360 360 359 359 357 355 355 354 352 351 349 349 349 350 347 343 342 339 334 334 336 330 332 330 332 332 330 329 331 328 327 326
329 333 335 337 341 343 344 348 355 357 359 361 360 360 360 359 357 354 355 354 351 350 350 350 347 347 344 342 341 336 336 333 333 332 330 329 332 331 330 333 331 329 327
331 334 334 338 341 343 344 347 352 358 360 361 360 360 359 360 359 356 358 358 352 352 348 346 346 345 344 342 341 337 334 335 334 334 334 333 331 330 331 334 333 331 330
328 331 334 338 340 343 344 345 350 356 359 361 360 358 358 359 360 359 356 357 357 352 348 347 347 346 344 341 340 338 334 335 335 334 336 334 332 332 332 332 331 331 330
329 329 334 335 339 341 343 345 348 351 357 358 358 357 359 359 360 359 359 355 355 354 352 347 347 345 342 341 338 338 335 335 334 334 337 336 338 338 334 333 332 332 330
332 331 333 334 335 338 341 344 346 349 353 355 356 357 357 358 358 358 358 357 355 354 353 349 347 343 342 335 335 338 337 335 334 335 337 334 339 337 333 333 334 334 329
328 331 331 338 337 339 341 342 346 349 350 352 355 355 355 356 356 357 356 356 355 356 354 349 346 342 339 330 332 336 336 335 335 337 336 335 337 335 333 330 330 329 330
323 328 335 335 343 341 342 343 345 346 348 348 352 354 355 355 357 356 355 357 357 355 351 347 343 340 338 326 327 331 336 335 335 337 336 333 331 334 330 331 328 330 328
319 321 327 336 342 344 343 342 342 344 344 345 347 352 353 355 357 356 355 357 356 351 349 345 339 337 337 324 321 326 331 333 333 334 334 331 331 330 325 328 326 325 325
319 318 328 326 341 342 344 342 341 342 341 343 347 351 353 355 357 356 355 352 350 347 347 343 338 333 337 322 321 324 331 329 329 330 333 328 329 325 322 325 322 321 323
326 321 327 332 341 344 345 342 342 341 345 345 354 356 359 358 356 351 348 346 345 347 346 343 338 337 337 329 317 317 330 328 329 327 328 329 322 318 318 319 322 320 312
327 347 338 342 347 346 348 346 343 346 356 359 362 360 355 353 349 345 346 345 345 342 338 337 336 337 338 324 315 316 319 327 328 327 326 317 314 314 318 314 311 311 312
343 347 350 351 353 352 352 352 355 358 358 360 357 351 349 348 345 343 343 343 339 337 337 335 333 334 336 331 317 313 314 316 322 325 321 312 312 314 311 313 312 313 308
342 346 349 347 349 353 355 356 356 358 358 354 349 346 345 344 345 343 341 340 339 338 334 334 334 333 333 327 321 316 316 318 318 317 315 314 313 311 313 312 310 308 309
344 347 348 351 350 353 354 354 356 356 349 347 345 344 345 344 326 314 317 327 312 324 335 336 334 330 331 331 323 320 322 321 319 316 313 311 311 311 311 311 312 311 313
332 345 347 349 350 352 351 351 350 348 345 342 342 343 342 329 323 319 312 301 301 300 301 308 321 314 308 311 308 306 308 308 309 318 316 314 315 314 314 313 313 316 317

GFSMW_sfc_thetae_012.txt.gz
Theta_e
337 339 339 342 343 347 349 350 349 349 350 348 348 346 346 347 348 350 348 349 350 352 349 348 349 347 345 341 340 336 329 329 333 325 328 331 331 328 326 323 329 334 339
335 336 338 341 342 345 348 349 349 349 349 349 350 348 348 348 349 349 350 350 350 351 350 348 347 347 346 341 336 332 327 330 330 323 324 322 330 332 324 322 327 327 333
332 334 337 339 342 344 346 346 349 350 350 350 351 348 348 347 346 347 348 350 353 353 351 350 348 346 344 339 335 332 329 325 330 328 325 321 319 326 330 321 323 322 325
332 334 337 337 340 344 346 347 348 352 352 353 350 348 346 344 347 346 348 352 355 353 351 350 347 344 341 337 335 334 330 328 325 331 331 327 326 320 321 327 322 321 321
331 331 336 338 340 343 346 346 346 353 353 353 351 349 346 347 344 346 347 348 353 354 351 350 348 342 339 337 334 332 329 332 326 328 328 327 325 320 320 317 320 324 321
330 332 336 338 339 342 345 347 346 347 352 353 351 350 347 345 343 342 343 347 352 352 352 351 350 341 336 337 334 332 329 333 333 329 328 326 322 321 320 316 317 318 322
330 331 332 335 337 339 343 347 346 345 349 352 351 350 349 347 345 342 345 348 349 347 350 350 348 341 337 336 333 333 331 331 330 326 328 328 324 323 321 317 315 315 319
329 331 332 335 336 338 343 346 347 346 349 350 351 352 350 350 348 343 348 349 350 351 350 351 347 340 338 336 334 332 332 332 330 331 328 327 328 325 322 319 317 313 316
326 329 333 335 337 338 342 345 348 348 350 351 350 352 352 351 349 347 349 350 349 350 349 350 345 341 339 338 336 332 331 334 330 328 327 328 326 328 327 326 321 316 311
326 329 331 335 338 339 343 347 350 349 352 353 353 351 351 353 350 348 349 349 348 349 349 348 346 342 338 339 337 333 331 332 332 330 327 328 327 326 328 325 324 321 318
328 328 330 335 338 340 344 347 349 349 351 353 353 354 353 351 352 350 350 351 348 346 348 347 346 343 339 338 335 333 333 330 330 332 330 329 328 326 326 326 325 323 322
327 329 330 333 336 339 343 345 350 350 351 354 354 354 354 354 352 350 351 350 349 347 347 347 348 346 342 337 337 332 333 332 329 328 328 327 331 331 327 328 327 326 324
323 325 330 332 335 339 341 345 349 351 353 354 354 355 354 354 352 351 351 351 350 346 347 346 347 346 343 339 338 335 333 331 332 331 328 328 330 327 326 328 326 327 328
323 325 329 332 336 339 341 345 347 353 354 355 355 354 355 355 355 354 352 351 352 347 346 346 346 347 345 341 340 337 334 333 332 332 332 331 331 331 330 329 330 330 327
324 325 329 332 336 339 341 344 348 351 354 354 355 355 356 357 357 355 354 352 354 349 347 344 345 344 344 343 339 338 335 333 332 332 332 332 335 335 332 332 328 327 328
324 327 330 333 336 339 340 342 346 352 354 354 354 356 357 356 356 357 356 353 352 352 347 344 343 343 345 336 335 338 336 335 332 330 331 333 338 335 334 332 331 331 329
325 328 331 334 336 339 341 341 345 351 353 354 356 356 355 355 355 356 356 355 352 350 349 345 344 343 343 331 331 335 337 334 333 331 331 333 336 334 334 330 329 328 329
319 329 332 333 337 340 342 343 344 347 351 352 354 356 355 354 355 355 355 354 355 351 350 347 346 344 343 328 327 332 337 335 333 333 333 335 334 332 330 329 329 327 327
318 319 328 333 333 337 341 342 343 345 347 349 352 354 355 353 354 353 354 354 354 353 352 349 345 344 343 323 323 329 335 335 332 332 334 335 333 326 324 329 324 324 325
315 318 319 328 339 336 340 340 341 343 344 346 349 353 354 353 352 353 353 355 355 354 349 346 344 337 339 319 319 325 330 330 330 332 333 326 328 322 320 327 323 322 323
320 317 314 319 331 341 338 337 339 341 345 347 348 350 353 352 353 354 355 355 352 350 347 342 337 336 336 331 319 317 330 328 328 328 329 330 321 316 315 317 321 321 318
325 336 318 319 325 335 339 337 337 342 344 345 345 345 350 351 355 353 352 351 347 345 343 339 336 335 335 324 315 314 320 323 328 328 327 323 313 309 314 318 317 311 312
338 343 341 335 342 335 341 337 339 340 340 341 345 348 351 354 353 350 348 344 343 341 337 336 332 331 332 327 315 313 314 320 329 329 321 310 307 309 313 312 311 311 308
328 329 334 342 344 345 342 340 340 343 345 350 353 352 349 347 347 345 345 341 339 336 335 333 333 332 331 327 321 317 316 315 320 319 315 314 314 312 312 311 311 309 307
324 324 322 321 321 346 351 353 353 355 353 350 349 347 344 344 332 319 331 337 331 334 334 333 333 332 330 327 319 317 320 321 316 313 312 310 309 309 308 308 309 307 307
323 320 319 318 321 322 334 353 354 352 348 344 344 342 331 327 324 321 314 303 302 303 309 314 326 316 316 307 304 302 302 303 306 313 310 309 309 309 309 309 309 309 312

GFSMW_sfc_thetae_015.txt.gz
Theta_e
338 340 341 341 342 344 345 346 346 348 349 347 347 345 345 344 346 348 348 351 352 353 348 347 345 344 343 340 338 335 329 326 330 322 326 329 329 325 323 327 332 338 340
336 338 339 340 340 343 345 346 347 347 349 349 349 347 345 345 346 348 347 348 351 351 348 346 346 345 343 339 337 331 327 327 329 322 322 320 327 327 321 324 329 331 335
334 337 337 338 339 341 345 347 347 348 348 348 348 345 345 344 344 345 345 348 349 349 349 347 346 345 343 339 334 331 326 324 329 326 324 319 318 322 328 320 322 324 326
334 335 337 336 338 341 346 347 348 348 347 348 347 346 344 342 344 345 346 348 350 350 350 349 347 345 343 338 334 332 327 326 324 329 328 325 325 319 316 323 321 320 320
333 333 335 337 339 341 344 347 348 347 347 348 347 346 343 344 342 343 345 346 349 350 351 348 346 342 339 338 334 331 329 328 325 327 325 324 323 320 320 314 317 321 321
332 334 336 338 339 341 344 346 345 347 348 348 347 346 345 343 341 340 344 344 346 350 350 349 347 343 338 336 334 332 328 331 328 328 327 325 320 319 317 315 316 316 319
330 331 332 335 337 339 342 344 343 346 348 348 348 347 346 345 343 342 343 342 345 345 348 347 346 342 337 336 333 330 327 331 329 327 327 325 322 322 319 316 314 314 316
328 330 331 333 337 338 341 343 343 344 348 349 349 349 348 347 346 343 344 345 347 348 350 349 348 344 336 335 332 330 329 330 329 325 325 327 325 322 321 317 316 313 313
327 329 331 332 335 337 339 343 342 342 346 349 349 349 349 348 346 344 345 346 348 349 349 350 348 344 338 335 332 330 330 331 328 328 328 326 325 327 324 322 318 314 310
325 328 330 332 334 336 339 342 344 343 344 347 349 349 349 349 348 346 345 346 347 348 347 349 347 343 338 335 333 330 329 331 329 327 325 325 324 324 324 324 323 317 315
325 326 329 332 333 336 337 341 344 344 344 345 347 347 349 350 349 346 347 347 347 347 347 348 347 343 338 337 335 332 330 329 329 330 327 325 326 324 325 324 323 321 318
326 327 327 330 332 334 336 340 342 344 345 347 348 347 348 349 350 348 347 349 347 347 347 347 346 343 340 337 335 334 334 329 327 329 328 327 329 326 326 324 324 322 321
324 326 326 326 331 334 336 339 342 345 346 347 348 348 348 348 349 350 350 349 349 345 346 346 345 343 341 337 336 334 334 333 330 328 327 327 326 324 325 325 325 324 325
323 323 323 325 330 334 336 339 342 345 346 348 349 348 349 350 349 350 349 350 349 346 345 345 346 346 343 340 337 336 334 333 332 332 329 327 327 326 325 324 325 325 323
320 323 324 327 330 333 337 340 342 346 347 347 348 349 350 352 352 350 349 349 349 348 346 344 345 346 345 342 339 338 335 334 332 332 331 330 331 333 330 328 326 326 323
317 319 326 327 329 332 336 339 342 345 348 348 348 350 351 352 352 352 350 349 348 348 345 344 343 342 345 336 335 339 337 335 333 331 331 331 335 334 332 331 331 329 324
314 319 322 324 329 333 337 338 342 345 348 348 349 350 351 352 352 353 352 349 348 349 345 343 343 342 343 332 331 335 338 335 334 334 333 331 334 333 333 330 329 328 328
315 320 324 326 330 335 338 339 342 345 347 348 349 351 352 351 352 353 352 351 350 350 345 344 342 343 343 326 327 333 338 336 336 335 333 329 329 331 332 330 328 325 326
314 320 327 328 331 335 338 339 340 343 346 347 348 351 352 352 352 352 353 354 352 349 348 346 344 344 343 324 324 328 337 336 336 336 331 331 330 328 324 328 325 324 326
311 317 325 328 328 333 338 338 338 341 345 348 349 352 353 353 352 353 353 355 355 352 350 348 347 340 344 320 320 328 338 336 332 327 329 327 332 320 319 329 324 321 323
318 315 313 323 329 331 335 337 338 339 344 348 351 351 353 354 353 353 354 354 354 353 352 350 349 346 341 322 317 322 335 332 328 328 328 329 319 314 313 317 325 323 319
334 340 337 331 324 323 330 335 337 341 342 345 346 349 351 353 353 352 353 354 353 352 350 349 340 340 334 323 316 318 322 324 328 326 329 328 315 310 309 313 315 313 314
322 323 323 326 326 340 333 329 334 339 342 342 343 344 349 352 352 351 352 352 352 350 346 340 336 335 335 333 315 313 314 319 327 330 324 311 306 306 310 314 313 311 309
321 320 319 317 316 322 330 333 339 335 335 339 341 343 347 349 351 353 354 352 349 347 342 338 335 333 332 329 319 315 319 318 325 317 314 314 313 313 313 311 310 309 307
319 319 318 317 317 320 323 323 322 327 334 336 338 341 346 349 345 327 342 349 340 339 338 337 335 333 330 329 317 316 319 322 318 315 313 313 311 310 308 307 308 307 306
320 320 320 318 317 321 330 328 326 327 335 342 347 347 347 330 325 323 318 307 312 315 313 314 327 327 317 306 304 303 303 303 306 313 312 311 310 310 308 307 307 307 309

GFSMW_sfc_thetae_018.txt.gz
Theta_e
337 339 340 343 343 345 345 345 346 348 347 347 346 346 346 346 347 348 350 351 352 353 351 350 350 347 347 346 344 340 337 333 335 331 333 336 334 330 329 336 342 345 344
335 338 339 340 341 342 343 344 346 348 349 348 348 349 347 347 347 350 350 352 352 353 352 350 349 348 347 344 343 339 333 332 333 329 328 329 334 333 327 332 336 338 341
333 335 337 338 340 341 342 343 345 347 349 350 349 346 347 347 346 347 349 349 352 353 353 350 350 349 348 345 342 338 334 331 334 332 330 325 326 327 332 328 328 331 335
336 336 337 338 338 340 343 345 346 346 348 349 348 346 345 344 346 346 348 349 351 351 352 351 350 349 348 345 342 337 334 333 332 334 332 331 331 327 326 328 328 328 327
336 336 337 339 340 340 341 345 346 346 347 348 348 346 345 345 345 346 347 348 350 351 351 351 350 349 347 346 342 336 334 333 332 333 330 329 327 327 325 320 324 328 328
335 336 338 340 340 341 341 343 345 346 348 347 347 346 345 343 342 343 344 346 349 350 352 352 350 349 346 345 342 338 336 335 333 334 333 331 328 325 325 324 323 324 327
333 334 334 336 339 338 340 342 344 344 347 346 346 346 346 345 344 344 345 345 346 348 350 351 349 347 345 343 341 337 335 336 334 334 333 332 330 328 326 325 322 323 325
332 334 335 335 337 338 339 342 344 344 346 346 346 347 347 346 346 346 346 346 347 349 352 351 351 349 345 343 340 337 334 335 336 334 333 333 330 328 327 325 324 321 322
329 331 334 335 336 337 339 341 343 344 345 347 347 347 347 347 346 347 347 347 348 350 351 351 350 349 345 342 339 336 335 335 335 334 332 332 332 330 328 327 326 325 319
325 328 331 333 336 338 339 342 343 343 345 347 348 348 348 349 349 348 346 346 348 351 350 351 351 349 345 341 339 336 336 335 333 333 333 332 331 331 332 331 329 325 325
323 325 329 332 334 336 339 340 342 343 343 347 348 348 348 349 349 348 347 347 348 349 350 350 350 348 345 341 338 337 336 335 335 334 332 332 332 330 330 330 330 327 325
323 326 327 330 331 333 336 338 341 342 343 345 348 348 349 350 349 348 349 349 347 349 350 350 350 348 345 342 340 337 337 334 333 334 333 332 331 332 331 330 331 329 329
321 324 325 327 330 332 334 337 339 342 343 344 345 347 348 349 348 348 349 349 349 348 349 349 349 348 345 342 341 340 338 336 335 334 334 334 333 332 332 332 331 331 331
316 319 323 326 329 332 333 335 338 341 343 344 344 345 346 348 349 349 349 348 350 348 348 348 349 348 346 344 342 340 339 338 337 335 334 333 333 332 331 331 332 332 332
315 320 322 324 327 331 334 336 337 341 344 344 344 344 347 348 348 350 350 350 349 349 348 348 348 349 347 345 342 341 339 338 337 335 335 334 333 333 332 331 332 332 330
315 320 323 325 327 331 333 336 338 341 343 344 344 346 347 348 348 348 349 350 349 350 348 347 347 347 347 337 334 340 340 339 337 335 335 337 336 334 330 330 330 333 332
313 318 321 324 327 330 334 335 338 342 343 343 345 347 348 348 349 350 349 348 348 349 347 347 347 347 348 331 331 335 343 341 339 338 336 335 337 335 336 330 329 329 328
310 314 318 323 324 329 332 336 339 341 343 343 345 347 348 348 350 350 349 349 349 348 347 347 347 346 346 329 328 333 344 341 339 338 338 337 337 336 336 337 335 334 333
310 313 318 321 325 327 332 336 338 341 343 344 345 347 349 349 350 350 350 351 349 348 348 348 346 345 346 326 323 330 343 339 337 339 338 337 337 327 325 335 334 333 332
312 315 321 327 326 330 334 336 337 340 341 345 347 349 350 350 349 351 351 352 352 350 351 348 347 340 346 321 320 330 341 337 336 338 338 327 332 320 320 336 334 328 327
334 318 320 320 323 332 335 335 337 338 343 346 349 350 351 351 351 352 353 353 353 352 350 348 348 348 345 334 318 321 340 339 337 333 332 334 320 315 314 321 332 331 329
334 336 334 335 338 334 335 335 336 341 345 347 349 349 351 352 352 352 353 353 353 352 349 348 348 349 347 324 315 320 327 330 336 333 334 332 315 311 311 316 317 312 319
321 322 320 323 328 337 336 334 336 340 341 343 345 349 351 352 354 353 352 352 353 351 348 346 347 344 335 329 316 316 320 322 332 334 328 314 307 307 310 313 312 314 321
319 320 318 318 320 324 327 328 331 340 341 337 340 344 348 349 353 354 353 352 352 350 348 347 343 339 334 331 327 328 325 319 323 318 319 315 316 316 318 317 316 320 318
320 321 319 318 320 324 329 331 331 329 335 341 337 340 344 344 351 352 351 352 354 349 350 348 341 335 333 330 319 321 326 327 320 318 320 320 320 319 318 317 316 315 315
326 328 329 329 328 328 329 328 328 328 328 335 341 338 342 345 349 331 324 307 317 310 312 315 328 331 316 309 311 308 305 306 307 323 323 321 320 320 317 316 315 314 314

GFSMW_sfc_thetae_021.txt.gz
Theta_e
340 344 346 347 349 351 352 353 353 356 354 352 349 349 349 351 354 356 359 362 362 363 363 359 360 360 356 358 357 352 348 342 348 341 341 342 341 340 345 347 345 345 346
339 342 344 346 347 349 352 354 355 357 356 354 354 353 354 353 357 357 360 361 362 363 362 362 360 360 355 357 356 352 345 343 345 340 340 333 336 338 338 345 344 344 341
338 340 342 344 346 348 352 355 358 359 358 358 355 355 357 358 356 356 358 360 362 363 364 363 361 361 358 355 356 352 350 341 343 343 338 330 328 336 339 339 343 345 342
340 341 342 344 345 349 352 356 358 360 358 361 357 357 350 349 352 355 357 359 362 363 363 363 362 362 359 358 357 354 350 345 338 342 343 344 342 331 330 335 337 340 338
340 341 342 344 347 349 349 352 357 359 360 361 361 355 355 353 354 355 360 363 363 362 362 363 363 362 359 360 358 354 350 345 341 340 340 341 341 343 335 331 330 335 336
340 342 344 346 347 348 348 351 355 357 359 360 360 360 359 357 353 354 353 354 356 358 361 362 363 363 361 360 358 356 353 348 344 343 342 337 335 334 335 333 334 331 334
340 341 343 344 347 348 350 350 354 355 358 358 359 360 360 360 359 357 353 355 353 354 360 362 362 360 362 361 359 355 352 349 344 346 342 343 340 340 337 334 335 333 335
339 341 344 346 348 349 350 350 351 354 356 357 358 359 361 356 357 359 354 353 353 355 361 362 363 362 361 360 358 354 351 350 347 347 345 342 342 340 338 336 333 330 331
337 339 344 346 348 349 350 351 351 353 356 356 357 358 359 358 357 360 360 355 361 356 360 361 362 362 361 360 358 353 351 348 348 346 346 343 342 340 339 336 336 331 325
333 338 341 344 347 348 351 351 352 353 355 356 357 356 358 359 359 360 360 360 360 360 359 360 361 361 361 360 358 355 353 349 345 343 345 344 342 342 340 338 337 335 332
329 333 339 343 346 346 348 350 351 352 354 356 357 357 357 357 359 359 360 360 361 361 360 360 360 360 360 359 357 356 354 348 347 345 345 345 346 341 340 340 340 338 336
331 333 335 339 342 345 345 347 349 350 353 355 357 356 358 358 357 358 359 361 361 361 363 362 360 360 360 359 356 355 353 349 347 346 344 343 341 343 343 340 342 340 340
330 333 333 335 339 342 345 346 347 348 351 354 355 356 357 357 357 358 360 361 361 361 359 362 361 359 359 358 357 357 355 351 350 348 345 343 343 341 339 340 339 338 339
329 332 334 338 340 342 344 345 347 349 350 351 353 354 356 357 357 359 360 360 361 361 361 362 361 360 359 358 357 356 355 353 351 350 347 345 342 342 341 341 341 340 338
323 327 330 338 341 342 344 345 346 349 351 352 351 353 357 358 359 359 359 360 361 360 361 361 361 361 358 355 357 355 355 354 351 350 348 345 343 339 340 341 341 342 338
321 325 330 336 338 341 343 344 346 348 351 352 351 354 356 358 358 359 360 360 360 360 360 360 360 359 356 342 339 351 355 354 353 351 349 347 339 338 332 332 335 341 340
325 327 328 334 339 340 344 344 346 350 350 348 353 355 356 356 357 358 359 358 358 359 359 359 359 359 360 334 333 338 355 354 353 353 350 346 344 340 342 331 330 331 331
323 327 324 331 341 339 339 346 346 349 350 351 353 355 355 355 357 357 357 358 359 358 358 358 359 359 359 331 329 334 353 355 355 353 351 349 347 345 343 344 341 340 341
326 325 325 327 339 341 345 347 347 349 350 350 352 354 355 355 357 356 356 357 358 358 358 359 359 358 359 328 326 333 351 354 354 353 352 350 348 336 328 340 343 343 343
322 323 327 330 334 338 339 345 344 347 349 351 353 356 358 357 357 357 359 359 359 357 357 358 359 349 358 327 322 331 351 352 349 351 350 331 343 321 322 338 343 340 341
326 326 333 338 340 342 341 345 346 347 350 352 355 357 358 358 359 360 360 359 359 357 358 357 358 359 354 355 320 321 353 351 345 345 344 348 322 316 315 322 345 339 341
338 337 341 344 345 344 346 346 348 351 353 355 356 359 360 358 358 360 361 360 358 356 356 355 355 355 358 333 317 318 330 337 348 345 342 340 316 313 313 320 322 316 326
337 344 343 341 343 347 350 347 350 351 353 354 357 358 360 361 361 360 359 357 358 353 352 350 349 348 351 352 316 317 322 325 345 343 334 320 312 312 313 316 314 317 335
329 330 333 334 336 340 342 343 344 352 353 353 355 358 357 359 361 359 358 357 355 352 352 351 349 348 348 340 328 328 329 322 329 326 324 320 321 321 326 320 320 335 335
330 332 335 336 336 338 338 338 339 340 341 347 351 351 353 355 358 360 360 359 361 354 354 355 353 349 337 332 322 326 331 329 320 322 325 325 328 327 330 330 332 331 329
334 336 338 338 337 335 336 337 339 339 338 339 339 340 344 348 352 355 356 312 310 316 317 318 338 339 320 307 308 310 309 308 311 325 324 324 327 328 328 327 327 327 324

GFSMW_sfc_thetae_027.txt.gz
Theta_e
342 344 347 348 349 352 356 360 362 368 363 358 355 354 350 353 351 352 358 361 362 365 368 361 362 361 363 359 357 354 352 342 345 339 339 340 342 342 341 341 339 340 343
341 342 345 347 347 351 356 364 365 369 366 360 362 358 357 351 351 353 362 361 363 367 368 367 362 363 359 360 359 358 352 342 342 342 338 334 335 337 339 340 339 339 338
341 342 343 345 347 350 357 362 367 369 368 368 364 363 360 357 351 353 353 359 364 366 369 365 363 364 365 364 361 358 356 345 340 349 340 332 334 334 340 341 340 342 338
343 344 343 345 346 351 354 364 367 369 368 371 362 363 351 348 349 352 354 358 366 364 366 368 364 370 361 365 363 358 359 356 343 340 342 348 346 338 336 341 339 341 340
342 344 345 345 347 349 351 358 368 369 369 369 368 359 358 350 352 352 365 365 371 367 363 369 370 369 362 369 364 363 362 355 350 339 339 344 338 342 339 332 340 340 339
341 345 347 347 346 348 350 356 367 369 371 370 368 370 362 359 352 355 354 354 355 362 369 366 372 370 369 367 364 366 364 360 357 346 345 341 338 337 336 334 338 336 341
340 343 345 345 346 349 352 356 365 368 371 370 368 367 369 366 371 369 354 357 353 353 365 371 372 365 372 368 372 371 367 362 357 358 342 343 342 342 339 336 335 334 337
339 342 345 347 348 350 354 357 363 368 370 369 369 369 372 362 360 365 357 355 353 355 369 371 370 370 369 368 372 364 362 366 358 357 356 343 343 344 342 338 335 332 333
337 342 345 348 350 350 355 359 362 367 369 368 370 371 370 369 363 366 368 362 366 357 369 370 370 370 370 372 372 361 366 366 363 360 358 348 342 344 343 342 339 335 330
337 341 344 347 351 350 354 359 363 366 368 368 369 369 372 372 370 372 371 366 368 372 371 368 368 369 370 372 373 365 368 368 361 356 362 357 343 345 344 341 340 338 334
335 340 344 346 350 352 352 355 360 365 367 367 369 369 369 370 372 370 372 372 374 375 370 373 370 369 369 371 372 369 368 367 366 364 363 359 360 342 341 342 340 338 337
334 340 342 345 346 349 352 353 355 357 365 367 369 368 370 369 369 371 370 374 373 374 376 373 372 371 369 371 370 368 362 367 363 361 362 357 350 357 357 343 355 345 350
333 336 340 342 344 346 352 352 356 355 357 364 364 369 369 368 367 370 371 373 374 374 372 373 374 372 369 370 371 370 368 367 366 364 363 359 358 357 345 347 345 342 344
332 334 335 337 342 347 354 357 354 356 357 358 360 364 368 368 369 370 373 372 374 373 373 373 373 373 371 369 369 369 369 368 367 367 366 363 360 357 356 352 352 351 344
329 331 333 338 343 350 357 359 355 359 359 361 361 363 369 372 373 372 373 373 373 373 374 373 373 374 372 366 369 368 368 369 367 367 367 366 360 349 351 348 351 350 345
325 328 331 334 340 343 351 356 360 358 359 363 361 365 369 371 372 374 373 374 373 373 373 373 371 371 369 348 342 360 366 369 369 367 368 369 352 347 338 337 339 347 351
324 326 328 329 336 340 345 348 358 360 360 362 365 365 369 370 372 374 374 372 372 374 373 372 372 371 372 340 336 341 366 367 368 369 368 365 359 353 355 337 335 333 336
325 327 327 329 333 333 334 346 347 362 363 364 363 367 367 370 372 372 372 373 373 371 372 372 373 372 371 340 331 336 362 366 368 368 368 368 364 361 358 355 349 348 347
327 328 329 330 338 334 336 339 346 356 362 362 365 365 368 369 370 370 371 372 372 371 370 372 372 371 371 335 329 334 359 361 364 368 369 368 367 347 336 357 355 350 347
331 331 330 331 332 337 335 336 338 348 359 362 365 368 370 369 370 371 372 373 373 371 369 370 372 360 371 339 327 333 359 359 359 364 368 340 359 332 328 355 356 351 348
339 338 340 339 338 340 338 346 346 347 356 359 364 369 371 371 372 372 373 373 372 369 370 370 371 372 368 368 325 322 362 358 358 359 360 364 331 323 321 333 356 350 350
339 336 338 342 342 341 345 353 356 360 366 366 365 369 371 366 365 373 373 373 372 370 368 369 367 368 372 343 331 319 328 348 358 358 359 359 323 317 318 327 332 323 336
343 344 344 345 347 354 355 354 367 365 367 368 370 371 372 370 371 371 372 366 369 362 362 360 361 362 364 369 329 318 320 327 352 360 349 335 317 316 319 322 321 322 348
343 344 346 347 351 359 359 360 363 362 361 363 367 367 366 366 368 362 363 361 359 359 359 357 359 357 362 364 368 350 334 324 335 343 350 332 330 331 340 326 327 345 348
342 346 348 348 349 352 352 353 355 361 360 362 362 363 361 362 365 366 360 360 365 354 358 358 358 357 358 359 345 348 361 352 340 342 344 337 335 334 332 334 335 340 342
344 346 347 347 347 349 349 352 354 354 353 357 357 356 357 359 359 359 361 332 329 320 312 307 326 356 330 315 310 308 313 315 314 339 337 334 334 332 331 331 333 337 336

GFSMW_sfc_thetae_030.txt.gz
Theta_e
341 345 345 347 349 352 354 355 357 364 359 358 355 356 351 357 358 363 367 367 367 370 373 369 354 365 358 363 361 359 356 348 348 344 343 344 343 343 344 339 340 343 344
339 343 345 345 346 350 355 356 358 363 362 359 359 357 358 357 357 360 366 365 365 367 368 368 364 364 362 363 364 362 354 348 346 346 338 334 338 339 340 343 338 341 340
338 341 343 344 346 350 355 358 360 365 362 363 363 363 365 365 355 356 360 361 366 367 368 367 368 364 364 360 363 362 359 350 346 353 347 333 330 338 341 340 341 341 341
341 341 343 344 346 350 356 361 362 364 363 366 361 360 353 349 353 355 357 358 363 367 368 367 367 369 365 360 361 365 362 358 345 345 346 350 347 336 331 341 341 343 339
341 341 342 345 347 350 355 360 363 364 365 362 366 359 355 354 353 356 362 361 363 365 365 367 368 369 367 363 362 366 363 363 353 345 344 346 346 345 339 334 338 341 343
342 344 345 347 347 350 354 359 362 362 365 364 361 364 357 356 352 353 354 358 361 363 367 369 367 369 365 366 364 366 367 363 361 355 353 344 340 340 339 336 336 336 341
341 344 345 345 346 348 352 355 361 360 362 363 360 361 362 357 362 360 355 356 354 359 362 367 367 364 366 368 364 366 367 364 361 359 352 351 350 349 346 341 337 336 339
338 343 346 346 346 347 350 354 359 360 362 362 363 361 366 359 355 364 356 357 356 356 365 363 366 366 366 366 369 364 363 364 361 362 356 351 350 350 347 343 341 334 334
335 341 346 348 347 347 350 353 358 360 363 361 364 363 361 364 356 360 364 361 362 361 367 364 364 364 366 366 366 362 363 365 362 359 360 354 349 351 349 348 344 339 333
335 341 345 348 348 348 350 353 357 360 363 364 363 364 361 363 364 359 363 360 364 363 372 365 365 365 365 368 366 364 365 362 363 358 357 354 346 347 350 348 346 344 338
335 339 345 348 350 349 350 351 354 360 363 364 364 364 365 362 362 363 361 366 362 371 363 370 366 365 364 365 366 363 361 363 360 360 359 353 351 348 348 347 347 344 342
337 339 343 347 350 349 349 351 353 357 362 365 365 364 365 366 364 360 362 365 368 364 370 367 366 365 364 365 363 363 359 361 360 359 359 354 351 352 353 352 345 344 345
335 338 342 344 348 350 350 351 353 354 361 364 365 364 364 364 364 365 362 365 365 369 365 369 367 364 364 363 365 363 362 359 362 361 358 356 353 350 346 348 349 346 348
336 338 340 344 347 350 352 352 352 355 357 362 363 363 364 364 364 365 366 363 366 364 366 366 366 367 365 365 364 364 363 362 361 363 361 359 354 352 350 347 344 348 342
336 340 341 343 347 350 353 355 355 355 357 356 361 362 364 366 366 365 366 367 365 366 365 366 366 366 367 365 363 363 363 363 361 361 363 361 357 349 350 347 348 342 347
331 336 341 345 349 355 355 355 356 358 358 357 357 361 363 364 367 366 366 367 366 366 367 366 365 365 365 350 344 357 362 363 362 360 361 363 353 349 341 340 341 345 341
325 331 337 342 346 348 360 356 357 359 361 360 361 361 363 363 365 367 367 365 366 367 366 366 367 364 365 342 339 343 361 361 362 362 362 361 360 352 352 339 337 336 337
330 336 328 335 342 338 341 352 359 362 360 363 363 366 365 363 365 365 366 367 367 367 366 366 367 366 366 340 333 338 359 361 361 362 362 361 360 359 355 350 344 344 342
332 333 330 333 345 340 343 346 347 359 359 358 361 362 367 365 365 365 366 367 367 367 367 367 367 367 366 335 330 333 355 357 359 361 363 363 361 349 336 352 346 344 344
341 343 342 342 341 355 345 350 347 354 356 358 359 365 363 365 364 366 367 369 369 367 368 367 368 357 367 340 327 332 358 355 355 358 361 340 356 337 327 352 351 345 344
343 345 346 344 355 355 350 356 357 351 357 360 363 365 368 365 366 368 369 369 369 368 367 367 368 368 365 364 325 322 360 359 356 355 356 358 331 327 321 333 353 348 348
342 341 345 347 352 357 357 355 361 369 370 369 364 367 370 365 366 369 370 369 368 366 365 366 365 367 369 341 333 320 325 347 359 357 357 356 328 321 318 325 336 325 335
346 345 347 353 361 363 367 365 372 375 374 377 371 369 372 369 368 369 367 366 367 365 364 363 362 364 366 367 329 321 320 324 346 361 352 322 317 317 320 321 326 324 347
345 343 347 352 360 366 367 370 373 376 374 377 376 374 372 368 369 367 367 365 363 363 362 360 360 361 362 364 365 354 334 325 334 341 349 344 337 325 333 330 328 346 351
347 351 352 353 352 355 355 357 360 365 367 370 370 372 367 367 368 367 363 365 365 356 361 361 360 358 359 338 317 323 349 353 342 346 356 354 350 351 341 343 340 345 349
343 346 350 349 349 350 350 355 357 361 365 366 363 361 360 363 362 363 363 335 326 317 305 306 327 342 312 303 301 302 306 308 313 339 349 350 350 343 345 343 340 342 343

GFSMW_sfc_thetae_033.txt.gz
Theta_e
337 339 340 341 342 345 344 346 346 347 347 350 348 347 344 347 345 347 352 354 356 357 356 355 350 353 347 349 347 343 342 332 336 330 330 330 330 335 336 341 342 343 342
335 338 338 340 341 344 345 345 348 348 347 350 347 348 348 348 347 347 354 356 357 358 357 353 351 352 351 349 347 346 342 336 332 334 332 324 327 331 332 330 333 337 340
334 336 337 338 341 344 344 347 347 350 349 351 351 349 350 348 345 345 350 355 356 359 356 355 353 353 352 350 349 349 344 335 334 338 334 322 320 326 333 331 328 333 332
335 337 337 337 341 345 346 348 349 355 352 353 351 348 345 344 344 343 346 352 355 357 358 356 354 354 350 348 349 352 346 342 329 331 337 337 337 324 322 330 330 333 331
335 336 337 339 341 346 347 347 350 355 353 354 352 351 347 346 344 344 345 348 351 356 360 358 356 354 355 350 348 350 348 349 340 330 330 332 333 333 329 322 329 331 332
333 335 339 340 340 346 349 351 351 354 353 354 354 351 348 344 344 343 343 349 352 354 356 358 357 356 353 352 351 352 351 347 348 341 337 329 328 329 328 328 328 326 330
329 336 337 337 340 344 348 352 353 353 355 352 352 354 350 348 344 343 344 348 351 352 354 357 355 357 354 355 353 352 354 350 347 346 338 338 333 336 331 330 327 327 330
334 336 337 338 340 342 347 353 352 352 355 355 351 351 356 352 348 351 345 349 349 353 354 357 358 355 356 356 353 354 353 353 348 349 342 337 339 337 333 329 329 323 325
336 336 337 339 339 342 346 350 353 352 354 355 354 351 352 356 348 347 352 346 350 350 355 356 359 357 357 355 356 355 352 354 351 348 348 342 338 338 337 334 332 327 321
333 338 338 339 340 342 346 348 354 353 354 354 355 354 352 354 356 348 347 354 348 350 352 356 355 357 358 357 355 355 355 353 353 351 348 346 341 337 337 336 332 331 326
336 338 339 341 341 342 345 347 351 353 354 355 354 355 354 352 356 354 348 352 353 353 352 357 355 356 356 359 355 353 353 354 351 351 349 346 343 336 335 335 335 330 329
335 340 341 341 341 341 343 345 348 353 355 356 355 355 356 355 352 356 354 348 354 353 358 359 357 357 357 357 358 355 356 352 352 352 349 348 348 339 339 340 332 331 332
334 338 341 341 341 340 342 343 347 351 355 357 356 355 356 357 354 353 354 355 350 357 354 358 359 358 358 357 357 357 357 353 354 354 352 350 346 341 341 339 338 333 333
331 336 339 341 342 341 341 343 344 348 355 356 357 356 356 357 358 356 354 352 356 354 360 354 358 359 359 358 358 357 357 356 353 355 355 353 349 346 343 340 337 337 334
329 334 337 340 342 342 342 343 345 347 350 355 356 357 358 358 359 358 359 358 353 356 357 359 356 359 358 359 357 357 357 356 355 353 356 356 353 347 345 344 338 335 336
327 330 335 339 342 343 343 344 345 346 349 352 355 358 358 358 358 358 358 359 358 354 357 357 357 358 360 347 342 354 357 357 356 355 354 357 351 347 339 339 339 340 333
318 322 327 331 338 344 346 346 346 348 348 349 352 355 357 357 358 358 358 357 358 359 356 355 358 356 359 340 337 342 358 357 356 356 356 355 358 349 352 338 337 337 335
321 321 320 321 326 336 348 348 349 349 348 348 350 352 356 357 357 358 357 358 358 358 359 358 357 359 359 337 333 337 356 357 357 358 357 356 355 355 353 351 344 344 341
331 332 332 333 329 328 333 350 350 351 351 349 351 352 355 355 356 356 358 359 359 359 359 360 360 359 360 332 330 333 351 355 356 357 358 358 357 346 334 352 348 344 344
334 333 334 333 337 336 335 337 346 348 348 350 354 358 356 357 355 357 358 360 361 360 361 360 362 352 361 336 326 331 355 354 355 356 356 338 350 336 328 349 351 346 344
336 334 334 331 333 336 334 332 337 343 351 351 351 354 357 358 359 358 359 360 360 360 360 360 362 362 359 358 324 323 355 357 356 355 354 355 331 325 322 326 354 349 348
338 339 337 337 332 336 333 333 340 345 347 351 351 353 355 357 359 358 360 361 361 360 360 359 360 362 363 336 326 321 325 345 358 357 358 356 326 321 321 323 333 327 331
341 344 342 341 353 354 351 345 349 353 351 355 351 354 356 358 356 358 359 360 360 360 359 359 358 358 361 361 326 321 321 324 348 361 351 333 322 316 321 321 325 324 344
334 340 344 345 347 348 349 348 350 352 355 351 357 356 359 357 357 361 361 360 359 358 357 356 356 356 356 357 349 342 332 323 330 337 348 343 335 333 336 331 326 336 348
330 335 337 342 343 346 345 348 349 350 349 353 358 358 358 357 358 356 356 358 351 351 357 357 355 352 340 325 312 315 335 341 335 336 348 350 353 351 352 343 342 336 339
329 330 335 339 341 341 341 342 347 347 347 353 354 353 353 356 356 356 340 312 313 310 307 310 321 317 312 304 300 299 300 301 303 328 342 344 348 351 352 351 351 346 338

GFSMW_sfc_thetae_036.txt.gz
Theta_e
336 339 340 341 340 341 341 341 341 344 346 344 342 339 338 340 344 346 348 348 351 353 352 351 349 347 344 346 343 340 337 328 332 328 326 326 331 333 334 340 339 340 342
335 337 339 340 340 340 341 341 341 342 346 345 345 341 340 342 344 344 348 349 352 354 353 351 348 349 346 344 343 343 338 331 331 331 325 320 323 329 331 335 339 338 340
332 336 338 339 340 340 341 342 342 342 345 346 344 344 346 343 343 341 348 350 353 355 354 351 350 350 349 346 345 344 339 328 332 334 328 320 317 322 329 327 331 335 335
334 335 336 338 338 341 342 344 344 344 344 347 344 344 343 343 343 341 344 350 353 355 354 353 352 350 349 347 347 348 343 335 326 330 337 333 330 319 319 327 327 330 331
334 334 335 337 339 342 342 344 346 345 345 348 345 344 343 344 343 341 341 348 351 354 354 352 351 350 349 345 346 348 345 341 335 325 329 329 330 330 324 320 323 329 328
334 336 337 338 339 342 343 344 347 345 346 349 347 345 343 342 341 340 340 344 349 351 353 354 351 350 351 349 345 345 347 344 340 333 330 328 326 326 326 323 324 323 326
333 334 335 336 338 341 342 344 344 348 348 348 349 348 346 345 344 341 340 343 344 345 350 354 352 351 351 350 348 347 348 344 345 340 335 330 328 330 327 326 326 325 326
331 334 336 336 337 341 343 343 344 346 349 349 349 350 349 349 347 343 342 343 348 348 350 354 354 353 353 351 349 348 348 349 345 344 338 335 336 335 331 326 326 320 322
332 333 336 337 338 341 343 344 343 345 349 349 350 351 351 350 348 346 346 342 347 352 351 352 355 354 354 351 351 348 348 351 347 344 345 337 335 335 335 330 329 324 320
332 332 335 337 338 341 344 346 347 345 349 350 350 349 350 354 351 347 345 348 346 348 352 352 355 354 353 353 352 351 349 349 349 347 343 342 340 336 334 333 328 327 323
332 330 335 338 338 340 344 348 348 347 349 352 352 350 348 349 354 349 344 345 348 347 348 352 352 355 354 353 351 351 353 349 350 349 346 343 342 339 334 333 332 328 325
332 333 336 337 337 339 342 346 350 349 350 353 353 352 351 349 348 354 349 346 346 350 347 352 352 353 354 355 352 350 352 353 349 350 348 346 346 340 335 332 331 330 327
331 335 336 336 337 338 341 344 349 351 351 352 351 351 351 350 348 349 354 351 346 348 351 354 352 352 353 354 355 353 352 351 352 351 350 349 346 344 341 333 334 331 329
333 334 335 336 337 338 339 343 345 352 352 352 351 349 351 352 352 350 349 354 352 345 349 352 355 354 354 354 354 355 354 353 352 352 352 351 349 347 344 339 335 334 331
332 334 335 336 338 338 339 342 345 348 352 352 351 351 351 353 354 353 351 350 351 353 348 350 352 357 356 356 355 354 353 354 353 352 354 353 352 347 345 345 340 334 333
333 336 337 338 338 338 339 341 343 346 351 351 351 353 354 353 353 354 354 352 351 350 353 352 354 352 357 345 341 352 355 354 353 352 352 353 349 346 339 338 339 340 336
334 336 337 338 340 340 340 340 342 345 349 351 352 353 354 354 354 355 355 355 354 353 349 350 353 353 354 337 337 341 355 354 354 353 353 353 354 348 352 338 335 336 333
323 321 330 335 339 341 341 341 343 343 344 346 351 352 354 354 355 355 355 355 355 356 354 351 351 354 354 334 332 336 353 355 355 355 354 353 354 353 351 352 344 343 344
327 328 330 326 327 342 344 343 342 343 343 344 345 351 354 355 355 354 355 355 356 355 355 357 355 352 353 330 329 332 349 353 355 356 356 356 355 343 333 351 350 347 345
328 328 327 330 331 329 337 344 343 343 342 344 346 348 352 354 354 355 355 357 356 356 357 356 357 349 356 330 326 331 353 352 353 356 357 338 348 334 328 346 351 349 350
336 336 338 334 328 329 332 335 339 344 347 348 347 349 349 352 355 355 356 356 357 357 356 356 357 358 354 354 324 323 354 355 355 354 355 356 329 324 322 325 354 351 352
338 343 347 346 348 343 337 341 341 344 344 346 348 350 353 352 353 353 354 355 355 355 355 355 357 359 359 334 324 321 325 344 357 357 359 357 328 320 319 323 330 327 330
331 336 341 342 345 345 345 342 344 348 348 346 345 347 350 353 355 355 353 353 355 355 354 355 355 357 358 360 325 321 322 323 347 360 350 332 322 317 320 319 323 322 342
327 332 334 340 339 342 343 343 344 346 346 346 348 347 348 349 352 355 357 356 356 356 356 356 356 357 357 358 343 339 333 322 328 330 341 338 331 324 333 333 330 332 340
327 329 331 334 337 338 338 339 342 343 343 344 350 351 350 349 351 334 333 353 356 352 357 358 358 354 349 331 316 320 337 337 328 331 342 342 343 347 350 352 352 348 340
326 329 330 334 335 336 337 338 340 342 341 341 348 350 351 352 352 335 322 308 305 305 307 310 320 315 309 305 303 301 300 301 304 324 332 335 338 341 343 348 349 350 344

GFSMW_sfc_thetae_039.txt.gz
Theta_e
336 338 339 340 340 338 336 338 339 341 343 341 340 338 337 339 343 345 347 347 349 352 348 346 347 345 342 344 341 338 330 328 329 325 323 326 328 333 334 337 337 339 341
334 335 337 339 339 337 337 337 339 340 344 343 344 339 337 338 341 343 345 347 349 351 350 348 347 347 343 344 342 339 335 327 330 325 320 318 322 327 329 334 337 336 339
332 334 335 336 338 337 338 338 338 339 344 344 341 341 341 340 339 340 344 345 349 351 352 350 347 346 345 343 342 342 333 325 331 332 325 318 316 320 326 327 332 336 335
333 334 335 336 337 338 340 340 339 339 343 343 342 340 338 336 336 338 343 345 349 351 353 350 348 347 348 345 344 345 340 328 328 328 336 329 325 318 317 324 327 332 333
334 334 335 337 339 339 340 340 340 340 341 343 343 341 337 336 340 339 340 345 347 351 353 351 349 347 347 345 346 344 341 336 326 324 329 328 329 325 320 317 322 328 328
334 336 337 338 339 340 340 341 340 339 340 343 342 341 340 338 339 338 338 342 345 348 351 351 348 347 347 345 344 346 344 342 336 327 327 327 326 325 324 321 321 322 325
333 334 334 336 338 339 339 340 340 340 341 342 343 342 341 340 341 340 338 339 343 344 348 350 348 347 348 348 345 343 345 342 343 335 332 328 326 327 326 323 323 322 324
331 334 334 335 337 338 339 339 341 340 341 342 343 343 342 342 342 342 341 341 343 346 348 351 351 349 349 349 347 345 344 345 342 342 335 334 330 331 329 327 325 320 321
328 333 335 335 336 337 339 340 341 342 342 343 345 345 344 344 343 342 343 342 343 346 346 350 352 351 351 349 348 345 345 348 345 341 342 335 333 334 333 327 327 322 318
328 332 335 336 337 338 340 341 342 342 344 345 345 346 346 347 346 345 342 341 343 347 347 347 350 351 351 350 348 346 345 346 346 345 341 341 338 333 333 332 327 325 322
329 332 334 336 337 338 341 340 341 341 344 346 346 346 347 348 348 346 344 346 342 345 347 348 349 350 350 350 349 348 348 345 345 347 344 341 340 338 334 331 330 326 323
331 333 333 334 336 337 340 341 341 341 343 347 346 347 348 349 350 348 345 344 346 345 346 349 349 350 351 350 349 348 351 348 346 346 346 346 345 339 336 332 329 328 326
331 333 333 333 335 337 338 342 343 343 343 346 347 346 346 346 347 351 351 344 342 345 345 347 348 349 351 351 351 350 349 350 351 349 348 348 345 343 340 335 331 329 329
330 332 332 331 335 337 337 340 344 346 345 346 347 347 348 347 346 347 350 351 346 344 347 348 349 350 350 352 352 352 350 349 350 352 351 351 349 347 345 342 338 333 329
329 331 331 331 334 336 337 340 345 347 347 347 348 348 350 350 349 347 347 350 351 347 347 347 350 351 351 352 351 352 352 350 349 350 351 352 351 346 346 347 344 336 334
327 329 332 333 334 335 336 339 343 348 349 348 347 349 348 350 350 349 348 346 349 351 349 345 347 350 353 342 340 348 351 352 351 350 350 351 348 346 339 338 340 343 340
326 328 332 334 335 336 337 338 342 346 349 348 348 349 349 348 349 350 350 348 346 347 349 350 348 347 348 336 336 340 353 351 351 350 351 351 353 347 351 340 336 335 334
327 331 334 335 336 338 338 338 342 343 347 348 348 349 350 349 349 350 350 351 350 348 347 347 348 349 351 335 331 336 351 353 353 353 352 351 351 351 349 350 348 345 346
323 328 335 336 337 338 339 338 340 341 344 346 348 350 351 350 351 350 350 352 352 352 352 351 348 347 349 329 328 332 348 351 352 354 354 354 353 342 332 349 349 349 348
333 326 329 333 336 337 338 338 338 339 339 344 347 350 352 352 351 353 353 353 354 353 354 354 355 345 350 330 325 329 349 349 351 353 354 336 347 333 328 346 350 348 350
343 343 335 328 326 332 340 338 339 338 341 342 343 346 351 352 354 353 354 354 353 354 353 353 354 355 351 350 323 322 349 351 351 351 352 354 330 324 323 325 353 350 352
334 341 341 341 343 342 339 337 342 345 342 341 341 343 345 351 352 353 354 353 353 352 352 352 352 355 356 334 324 321 324 342 353 354 357 355 327 319 319 321 328 326 328
330 336 339 339 341 342 341 340 340 345 343 343 343 343 345 346 348 351 351 352 352 352 351 352 351 353 354 356 325 320 321 323 345 357 348 330 320 314 317 317 320 319 335
328 332 335 335 334 336 338 339 340 342 343 343 344 343 345 347 348 350 350 350 351 350 351 350 351 352 354 356 358 343 331 322 327 331 340 335 328 325 332 333 329 331 336
324 328 330 333 333 334 335 337 340 341 340 341 344 347 345 341 341 321 324 344 348 344 353 353 354 353 355 351 326 330 344 344 329 332 341 341 341 341 341 344 347 347 341
319 323 325 328 331 332 333 335 337 338 337 337 337 340 346 345 335 322 319 305 302 302 305 312 326 316 309 302 302 302 303 304 307 331 335 334 336 335 335 335 329 330 330

GFSMW_sfc_thetae_042.txt.gz
Theta_e
333 338 340 339 339 339 337 339 339 340 341 340 339 340 340 343 346 346 349 350 352 355 352 350 348 349 346 349 347 343 337 335 335 333 332 332 334 339 341 342 343 344 346
332 335 338 338 337 336 336 338 339 340 343 343 342 342 340 342 345 347 349 350 352 354 352 349 349 347 347 349 347 346 340 334 336 330 328 327 332 333 334 340 342 342 344
330 334 336 337 338 337 335 337 338 339 343 343 342 341 341 342 342 344 346 347 351 353 355 353 351 351 348 347 348 346 339 333 338 337 331 325 325 326 332 335 339 343 342
333 334 335 336 337 338 338 337 338 339 343 343 342 341 339 338 339 341 346 347 350 352 355 354 352 351 351 349 349 348 344 337 337 336 338 335 332 327 327 331 334 335 340
333 333 334 336 338 340 338 339 338 339 341 344 343 342 341 338 339 341 344 347 348 351 355 354 352 351 352 350 351 350 347 340 336 334 337 336 335 331 327 326 330 334 337
333 334 336 338 337 340 339 340 338 338 340 343 343 342 341 338 339 339 340 344 347 349 352 355 352 353 351 351 351 351 349 347 341 335 336 336 336 333 331 328 329 329 335
333 334 334 335 337 337 338 339 339 337 339 342 343 342 342 340 340 340 340 340 344 347 349 352 351 351 351 352 350 349 351 348 348 344 337 335 335 335 334 332 330 330 332
334 334 336 336 336 338 338 339 338 338 339 340 342 342 343 341 342 342 342 342 344 347 351 351 353 353 353 353 352 349 348 351 348 349 344 340 337 336 335 335 333 331 329
333 334 336 337 337 338 339 339 339 339 340 340 341 342 342 342 342 343 344 343 345 348 350 351 353 353 353 353 353 350 350 351 350 348 349 344 341 338 338 336 335 335 328
330 332 335 336 338 339 340 340 340 339 340 341 342 342 343 343 344 344 343 343 345 349 349 350 352 353 354 353 352 351 351 350 351 350 348 348 346 342 339 339 335 333 333
328 328 332 337 337 339 340 340 340 340 341 342 342 343 344 344 345 345 345 344 345 347 348 349 350 352 353 354 352 352 352 350 350 351 350 350 348 346 344 339 338 335 331
328 328 330 335 336 336 338 339 340 340 342 343 343 343 345 346 346 346 346 346 345 347 349 350 350 350 352 353 352 352 353 351 349 350 350 350 350 348 347 343 340 337 335
328 328 329 332 335 335 337 338 340 340 343 344 344 344 345 346 346 347 347 347 347 346 348 349 350 350 351 352 353 353 352 353 352 352 351 350 351 350 349 346 343 339 337
325 327 329 332 335 336 337 339 340 341 342 344 345 344 345 346 348 349 349 346 347 348 348 349 349 351 352 353 353 353 353 352 354 354 353 353 352 351 352 349 347 345 341
324 328 330 332 334 336 337 340 341 342 342 343 345 344 346 348 348 350 351 350 347 347 348 349 349 351 351 352 353 354 353 352 352 353 354 355 353 347 348 352 351 348 345
314 326 331 333 333 335 336 339 341 342 343 342 344 346 347 347 347 347 347 351 351 349 348 348 348 349 350 340 339 349 354 354 353 351 353 354 348 347 339 338 340 348 348
312 317 330 332 333 335 337 338 342 345 344 344 345 347 348 348 348 349 347 347 348 351 350 348 349 349 351 335 334 339 353 353 353 353 353 353 354 348 354 342 335 336 334
321 322 331 333 333 336 338 339 343 346 346 345 346 348 349 349 349 350 349 348 348 348 350 350 350 348 349 332 330 335 351 353 354 354 355 354 354 355 353 354 354 353 351
324 327 331 333 335 336 338 339 342 346 347 346 347 348 349 348 348 348 349 350 350 348 348 349 350 350 350 328 327 331 349 352 353 355 356 355 355 342 332 352 352 353 354
336 329 332 334 334 336 338 339 340 343 345 347 348 350 351 350 349 349 350 352 353 352 352 350 351 343 350 330 325 329 349 348 350 354 356 336 348 333 327 347 352 350 353
339 335 334 334 335 337 338 338 340 340 344 348 350 350 351 351 352 352 352 352 353 353 353 353 355 355 349 349 323 321 348 351 351 351 353 356 328 324 323 325 352 350 351
336 340 339 339 338 338 338 338 338 342 343 345 348 350 351 352 353 353 354 354 353 352 352 353 353 356 358 333 326 320 322 340 352 353 355 355 326 319 318 321 326 324 328
329 336 335 337 340 342 344 343 344 350 344 342 343 344 350 352 353 353 353 353 354 352 352 352 352 353 356 357 324 320 319 321 343 355 347 332 324 315 317 317 320 318 333
324 329 334 333 334 338 340 342 344 348 346 344 344 344 344 346 351 353 354 353 352 351 352 352 352 354 356 357 359 343 333 321 328 332 341 334 330 325 332 333 332 332 337
320 327 328 331 331 335 337 340 341 344 344 347 351 347 347 346 342 324 328 347 349 344 353 354 355 354 354 355 340 343 351 347 335 337 343 343 344 345 344 345 347 347 342
317 324 329 330 331 333 336 338 339 339 340 342 343 347 347 345 333 328 322 304 302 302 308 318 335 324 309 302 303 304 305 306 311 337 340 338 338 337 335 333 335 336 331

GFSMW_sfc_thetae_045.txt.gz
Theta_e
334 339 341 345 347 348 348 349 349 352 351 348 347 346 344 347 351 354 358 360 360 362 363 361 360 360 358 359 357 350 348 344 346 342 341 343 347 349 350 352 352 352 353
333 337 341 342 345 347 348 349 349 352 352 349 351 348 350 351 354 358 359 360 360 363 363 362 360 360 357 360 357 355 344 345 346 341 341 334 338 344 347 349 349 352 354
331 336 339 342 343 345 347 348 350 352 353 354 351 351 353 353 351 354 357 359 360 363 365 363 360 360 364 365 361 355 349 341 347 345 341 332 331 339 343 345 347 351 350
334 336 339 341 342 344 347 350 351 352 352 354 352 354 347 345 349 352 355 358 361 361 363 365 363 364 359 363 358 357 353 348 343 346 347 345 342 334 333 341 344 347 348
336 336 338 341 343 345 345 347 351 353 355 356 356 351 352 349 352 351 356 361 361 361 360 363 363 365 363 364 361 360 358 349 345 345 347 349 345 343 337 334 339 341 343
338 339 340 342 343 345 346 346 350 352 354 354 355 356 356 353 349 351 350 352 355 357 360 362 363 364 362 362 361 364 361 357 352 346 347 346 344 342 339 337 341 339 344
338 339 339 340 342 345 346 348 349 349 352 353 354 355 356 357 355 354 350 352 350 354 359 362 362 361 364 364 363 363 362 359 355 355 345 345 344 346 346 341 340 338 345
339 339 340 342 344 345 348 347 348 349 351 352 354 356 357 351 350 354 351 350 349 352 360 361 362 362 364 363 363 360 359 360 358 358 358 352 349 345 344 341 339 336 341
338 339 340 342 344 345 347 348 349 350 350 350 353 355 356 356 353 358 356 352 357 352 358 361 361 362 362 363 364 359 361 360 361 360 360 357 354 351 348 345 344 340 334
339 340 341 342 345 345 347 349 350 350 351 351 352 353 354 356 356 357 356 357 355 356 357 360 361 361 362 363 363 360 362 362 360 358 359 359 355 355 352 349 347 345 340
338 340 343 344 345 345 346 348 348 350 350 351 352 353 353 353 355 354 355 358 356 357 358 360 361 360 361 362 363 362 361 361 362 362 360 360 362 356 354 353 351 347 344
337 340 342 343 344 346 347 347 348 347 349 351 352 352 353 354 352 354 354 357 358 358 359 360 360 360 360 361 361 360 359 360 360 360 361 359 357 360 360 356 356 352 352
335 338 339 341 345 346 347 347 348 346 347 351 349 350 351 351 354 355 356 357 358 358 356 358 358 359 359 360 361 361 361 360 360 360 361 361 361 359 357 358 356 355 354
334 336 337 340 344 346 347 348 348 348 348 348 349 351 352 353 354 357 358 356 359 358 357 358 359 359 359 360 360 360 361 361 361 362 362 362 362 361 361 360 360 359 356
326 335 337 339 343 346 347 349 349 350 350 351 350 351 354 356 357 358 359 358 358 359 359 358 358 359 358 356 359 360 361 361 361 362 363 363 360 350 353 359 363 361 356
325 329 337 340 341 344 346 347 348 349 352 352 351 354 355 356 357 358 359 359 358 359 359 357 358 357 355 341 339 353 359 362 362 360 362 363 354 352 340 338 340 353 362
335 335 329 340 342 344 347 346 348 351 351 352 354 355 356 356 357 359 359 360 359 358 359 357 357 359 360 336 334 339 357 359 360 362 362 361 359 354 361 345 336 337 335
334 338 336 333 344 343 344 348 349 350 351 352 353 356 356 356 358 358 358 360 360 360 359 358 359 359 360 334 330 334 355 361 363 363 363 364 363 362 359 361 360 361 362
334 341 342 329 344 345 348 349 350 351 351 351 353 355 356 356 357 357 357 357 356 357 358 359 359 359 360 330 328 335 355 356 361 363 363 363 363 346 334 358 358 360 361
343 341 337 333 343 346 347 348 349 350 350 352 354 357 359 358 358 359 360 360 359 356 356 356 359 350 361 333 324 332 353 355 353 362 363 338 351 335 328 356 357 357 359
341 342 341 343 345 348 348 348 350 351 353 354 356 359 360 360 361 362 362 360 358 360 358 357 359 359 356 356 323 320 352 353 354 354 356 358 329 325 323 325 360 358 358
336 344 342 344 347 349 349 349 351 357 359 360 359 360 361 358 357 361 360 360 360 358 359 359 358 359 361 335 327 320 323 342 356 358 360 361 328 320 318 323 329 324 328
335 340 344 345 348 348 351 349 351 357 358 359 360 360 361 359 362 360 360 356 359 356 356 356 356 357 361 363 325 319 318 321 347 360 350 331 323 315 322 319 321 319 334
328 337 341 342 344 350 352 353 356 354 355 357 358 360 359 358 361 358 358 357 356 356 356 356 356 358 360 362 364 353 340 322 331 336 349 342 336 330 337 337 332 332 336
317 331 336 339 340 346 346 348 351 357 353 353 354 355 355 355 358 360 350 358 362 351 357 358 359 358 358 360 345 347 361 355 341 344 352 351 351 349 350 348 348 350 345
316 320 329 337 338 340 341 343 343 348 353 357 354 350 350 351 354 343 332 304 304 302 308 316 342 344 315 309 308 308 313 317 312 341 347 345 344 343 342 340 340 341 338

GFSMW_sfc_thetae_048.txt.gz
Theta_e
339 340 342 343 345 347 349 351 352 355 353 349 346 348 349 352 354 356 361 365 364 365 367 363 358 358 354 355 358 351 353 346 349 342 338 341 347 349 352 352 351 348 350
337 339 341 343 344 347 350 352 352 355 355 349 351 350 352 351 354 358 363 365 364 366 364 363 360 361 358 356 356 357 346 345 347 340 339 333 338 344 348 351 350 350 351
336 338 340 342 344 347 349 351 354 355 356 357 350 353 354 355 355 357 358 362 364 365 367 363 362 359 359 353 357 357 353 342 347 350 343 334 334 339 344 347 346 350 348
338 339 341 342 343 347 350 353 355 356 356 358 354 359 350 347 349 354 355 360 365 365 366 367 363 362 367 360 358 357 352 352 343 345 346 349 346 334 335 342 344 347 346
338 339 341 344 345 346 349 352 356 358 360 359 360 352 353 346 349 352 360 364 366 365 363 366 363 362 358 363 363 363 360 349 348 345 344 348 346 348 338 335 339 343 345
339 340 343 345 346 347 348 351 357 359 359 357 355 359 357 354 349 354 352 353 355 360 365 365 366 363 361 363 361 362 363 358 353 348 349 344 343 342 344 340 342 341 346
342 341 341 343 346 347 347 349 355 358 358 356 356 356 358 359 359 357 353 356 350 352 360 366 367 363 366 365 365 363 363 362 356 359 346 346 345 347 345 343 341 341 347
342 343 344 344 345 347 348 349 353 356 359 357 361 363 362 353 353 358 354 352 350 351 359 364 364 366 366 366 366 365 361 363 360 361 360 349 349 350 346 343 341 337 341
341 343 346 346 346 347 351 353 356 357 356 354 361 363 363 362 356 364 359 354 361 353 357 359 363 363 365 366 367 359 363 363 363 362 363 358 352 353 351 349 346 341 336
341 343 345 347 347 348 350 351 352 355 356 355 356 356 358 362 361 361 362 362 358 361 358 359 359 361 364 365 367 362 364 364 362 358 361 363 354 354 354 352 350 347 343
340 343 345 347 348 349 349 350 351 353 354 356 358 358 356 357 359 358 359 361 361 361 362 360 359 361 363 365 365 365 362 364 364 364 362 363 365 357 353 353 352 350 348
339 342 344 346 347 348 348 349 350 351 353 358 361 358 359 359 356 358 359 362 361 362 362 362 361 360 361 364 365 363 360 362 362 363 363 362 359 363 364 356 361 357 358
336 341 342 344 346 348 349 348 350 350 352 355 354 354 355 355 358 359 360 362 362 362 361 361 362 361 360 363 364 364 363 362 362 363 363 363 364 363 360 360 357 356 357
333 336 340 343 347 349 355 354 350 351 351 352 352 356 356 357 356 362 363 360 364 362 362 363 362 362 360 360 362 363 363 362 362 364 364 364 365 365 366 364 364 363 360
328 335 338 343 350 352 357 356 352 355 354 357 352 356 361 362 363 364 364 362 365 363 363 363 362 362 360 356 360 360 360 362 362 364 365 366 362 352 355 363 370 371 362
327 328 336 340 344 348 354 357 358 355 356 360 357 361 364 365 364 366 367 366 365 364 364 362 362 361 358 341 338 351 357 361 362 362 364 366 357 354 342 340 341 351 364
334 337 336 337 342 345 352 354 358 358 358 361 361 363 365 364 366 366 367 366 366 365 364 363 363 365 365 337 334 339 356 357 360 364 362 360 357 356 364 345 339 340 337
337 339 341 343 339 343 346 352 354 360 360 361 362 364 365 364 366 367 367 368 365 366 364 363 367 367 365 335 331 335 359 360 362 364 364 366 366 363 360 363 361 362 364
340 342 344 345 348 342 346 351 351 355 358 360 362 364 365 364 364 365 366 365 364 364 364 364 367 368 368 331 329 336 358 358 363 363 365 367 367 349 334 361 360 361 362
340 343 348 350 349 350 344 347 349 352 356 359 362 365 366 366 365 366 367 368 365 363 362 362 366 354 366 334 325 336 357 358 355 366 369 340 352 335 327 361 359 358 359
338 346 349 349 349 348 344 352 353 353 357 357 358 363 366 367 368 369 369 368 365 364 366 364 367 368 362 361 323 322 358 355 354 353 354 357 329 326 324 324 360 358 358
340 348 345 344 344 344 351 356 356 359 362 363 362 365 368 361 361 369 368 366 366 365 366 364 362 362 365 337 325 320 325 343 357 356 356 363 326 319 319 326 331 325 330
330 345 348 346 348 351 353 353 362 362 363 362 365 364 365 363 368 366 366 361 365 360 359 358 358 358 361 364 327 319 319 324 348 360 349 327 323 317 324 319 322 319 353
317 334 343 347 350 353 354 355 359 365 363 361 363 363 362 361 363 362 362 360 359 358 357 357 357 358 360 362 366 356 342 324 336 340 353 348 336 325 335 349 346 350 345
317 320 331 340 342 346 349 355 359 360 359 360 360 362 361 361 361 363 349 360 366 350 358 359 360 359 359 361 348 350 365 362 349 352 360 358 358 358 358 357 355 352 346
318 319 321 330 337 340 344 348 354 359 356 355 355 356 357 359 359 359 352 306 305 301 303 308 335 353 321 314 318 316 319 317 314 347 356 355 355 352 351 348 345 346 343

GFSMW_sfc_thetae_051.txt.gz
Theta_e
342 343 344 344 344 345 346 350 353 363 355 351 350 350 349 353 355 362 363 364 362 363 365 357 359 360 356 362 355 351 351 344 347 341 337 340 343 345 344 347 345 345 346
340 342 343 343 343 344 347 354 357 364 358 352 356 355 356 352 353 354 363 364 363 364 360 363 362 356 357 359 357 358 349 342 351 350 337 335 343 342 345 345 344 345 346
338 340 341 342 343 344 347 353 360 363 361 360 355 356 357 355 351 358 357 362 364 364 365 362 365 361 363 353 358 356 360 343 344 352 348 339 332 340 342 345 344 348 346
340 341 341 342 342 345 348 356 359 363 361 364 353 359 350 346 347 353 355 359 364 364 363 364 363 362 358 364 360 358 360 356 345 342 344 355 347 342 337 340 343 346 345
339 340 341 343 344 346 347 351 361 363 363 364 361 353 355 349 349 349 367 369 370 365 363 364 365 365 359 363 362 362 362 350 357 348 342 348 343 351 341 337 339 344 344
340 341 343 344 345 346 348 352 360 363 365 364 361 363 357 357 346 351 353 353 356 359 365 364 365 366 363 364 362 364 363 363 356 351 350 346 343 342 340 338 342 339 344
340 341 341 343 346 348 350 353 360 362 364 362 359 361 363 362 364 361 350 354 349 351 366 370 369 363 366 365 365 366 364 362 357 360 347 346 346 345 344 341 339 339 344
340 341 343 344 348 350 352 354 359 362 364 361 361 361 364 351 348 357 352 350 348 351 371 365 364 366 367 364 369 362 359 365 359 361 364 352 347 348 346 343 341 338 341
341 342 343 345 348 350 353 354 359 362 363 356 362 364 363 358 351 357 364 357 362 352 361 364 364 364 364 368 371 359 363 367 364 364 364 358 351 351 349 348 346 342 337
340 342 344 345 347 348 351 355 357 361 362 360 362 362 363 365 363 365 368 363 365 366 361 362 361 363 366 367 373 364 368 367 361 356 370 368 356 355 353 351 349 347 343
339 342 344 347 348 349 350 351 354 358 359 361 362 360 360 361 364 365 367 368 367 369 368 365 364 363 363 367 371 370 366 363 368 366 364 366 371 356 352 352 351 349 348
337 342 344 347 348 349 349 351 351 351 356 359 363 361 361 361 360 362 366 370 369 367 368 368 367 365 364 368 369 364 361 362 362 363 367 361 359 369 370 359 369 359 362
334 341 343 345 347 349 351 350 351 351 352 358 359 360 359 361 359 364 364 368 369 370 363 368 369 366 364 367 370 369 366 364 364 364 366 365 367 369 362 366 358 355 359
334 337 341 343 346 352 355 355 351 351 351 353 354 358 360 361 360 364 367 367 370 369 369 370 370 367 366 365 365 367 367 367 364 367 367 367 367 370 371 366 371 366 362
330 334 339 346 353 354 358 359 354 356 354 356 355 358 363 363 364 363 367 368 369 370 371 371 370 369 363 358 365 367 367 368 366 367 367 367 364 352 359 363 368 369 363
328 331 336 341 347 354 358 360 358 358 357 358 356 359 362 364 363 364 367 369 369 370 371 370 370 368 359 343 339 356 363 367 367 367 369 370 357 354 343 342 342 353 364
328 331 331 337 341 346 356 357 360 360 360 361 360 362 364 364 365 366 368 368 369 371 371 370 370 369 369 336 334 339 358 363 365 368 369 365 357 359 368 347 341 342 338
333 337 338 339 340 343 346 354 357 363 362 361 364 363 366 365 367 368 367 368 369 369 369 371 371 371 370 337 330 335 361 361 364 368 368 370 368 369 365 368 366 365 367
340 342 344 344 347 343 345 354 354 363 362 363 364 365 366 366 368 367 368 369 369 369 369 371 372 372 371 333 329 336 360 359 364 366 367 367 369 351 336 364 363 365 366
341 343 346 347 348 349 347 345 351 356 361 364 364 368 368 368 368 369 370 372 371 370 366 368 372 360 373 334 326 336 358 359 357 366 369 342 354 338 328 363 365 363 365
341 345 348 347 350 353 350 351 351 354 361 364 367 369 369 370 371 372 372 372 371 366 370 368 371 372 367 368 325 322 363 357 355 354 353 356 331 327 325 327 364 360 361
334 341 351 352 354 355 357 357 354 359 366 366 366 369 371 367 366 372 372 372 371 370 370 370 368 366 373 342 326 321 327 346 359 355 350 353 325 320 321 326 331 325 330
329 334 348 353 350 356 359 359 357 368 366 367 367 368 371 370 370 370 371 366 370 361 361 360 358 357 361 366 327 320 321 326 350 358 341 327 323 319 323 319 326 323 355
320 325 337 353 354 358 357 359 372 369 369 367 366 368 368 368 369 365 365 361 359 359 357 356 355 354 355 354 360 353 339 325 338 343 353 347 334 328 339 348 335 357 361
318 320 326 334 339 347 353 358 364 367 363 366 366 364 363 362 365 368 359 361 348 345 357 353 352 349 351 351 342 349 361 358 349 352 359 357 358 359 362 362 365 366 358
317 317 321 325 326 330 332 336 342 365 362 361 359 359 358 360 361 352 348 309 316 305 304 305 326 355 317 314 309 314 314 318 318 351 358 358 359 358 360 358 355 352 346

GFSMW_sfc_thetae_054.txt.gz
Theta_e
339 342 342 342 344 345 349 354 356 360 357 355 354 352 353 349 351 358 359 369 368 363 352 357 362 359 357 351 364 354 353 349 344 345 342 344 346 345 349 348 344 346 351
338 341 342 341 343 344 348 354 356 359 356 356 358 359 351 356 355 350 367 367 364 368 364 361 363 352 358 364 362 357 356 348 354 347 347 335 342 342 341 349 345 345 347
338 340 340 341 343 344 347 352 356 358 357 361 357 365 368 359 354 361 361 366 363 367 365 366 366 369 364 360 363 362 354 350 347 348 349 333 332 338 345 345 347 347 346
340 341 341 341 341 345 348 352 356 359 357 361 355 360 354 352 351 354 357 362 368 364 368 368 367 366 359 357 364 363 357 347 351 348 352 351 348 335 336 346 347 346 344
339 340 341 343 343 346 347 350 355 359 357 357 359 354 355 354 362 357 359 364 371 371 367 368 371 368 365 366 365 365 363 362 355 347 348 349 349 352 342 334 341 346 348
339 341 343 344 344 347 347 351 353 356 359 357 358 358 354 359 355 356 356 358 362 365 368 366 371 372 367 364 365 368 367 365 361 354 356 339 346 346 344 342 344 343 345
340 341 342 342 344 344 346 349 352 352 357 357 354 360 355 356 361 362 356 355 356 356 364 367 368 366 369 367 368 368 367 366 363 361 357 347 347 343 349 344 344 341 346
340 340 342 343 344 344 347 348 353 352 355 358 354 356 360 352 354 361 356 361 358 357 364 366 365 368 369 368 369 364 363 365 364 364 364 360 357 352 352 348 346 341 345
338 340 343 344 345 346 347 350 353 354 356 354 358 353 359 357 351 358 362 361 362 359 363 365 367 367 367 366 368 363 363 366 366 364 366 363 358 357 354 355 351 347 338
334 338 343 344 347 347 350 351 354 354 357 356 357 355 352 357 358 351 358 358 366 365 364 365 365 366 368 367 368 364 364 366 363 362 363 364 359 360 359 357 357 353 346
335 336 337 346 348 349 351 350 353 355 357 358 356 355 354 354 354 357 350 362 360 371 368 369 367 364 364 368 368 364 364 363 364 366 366 364 364 362 361 360 356 354 354
336 335 331 335 346 348 349 350 351 355 357 359 357 356 357 354 353 350 361 360 367 365 373 367 370 365 365 365 365 363 358 360 362 363 363 364 362 365 364 361 361 362 364
328 329 334 338 346 347 349 351 351 351 357 359 357 356 355 356 355 353 354 362 361 365 363 368 364 365 362 363 365 364 362 362 363 362 363 362 365 364 363 364 358 357 359
331 333 339 342 348 348 350 350 351 353 353 356 357 356 355 355 354 358 355 360 363 362 363 363 365 365 363 362 364 365 363 362 361 365 363 365 364 363 365 363 363 363 361
328 332 335 340 349 350 351 352 353 352 353 354 354 356 359 357 357 356 359 356 360 362 364 363 365 365 363 360 361 362 364 363 362 363 364 365 363 354 358 363 364 363 361
328 332 330 349 347 352 352 353 353 353 354 353 353 356 358 358 358 356 358 360 359 362 363 364 364 364 362 346 341 355 359 364 362 361 362 366 354 352 343 341 343 352 360
321 333 337 339 344 350 355 353 354 355 354 354 355 355 358 359 357 360 357 359 359 361 362 363 365 364 364 339 336 341 358 359 362 364 362 362 361 354 363 345 339 340 338
322 342 334 341 346 343 348 357 357 356 356 355 357 356 358 358 359 358 359 358 360 360 361 363 365 365 365 339 330 336 354 358 361 362 362 362 362 362 363 363 362 359 359
325 341 342 344 349 349 350 356 358 356 356 356 357 357 357 358 358 357 358 359 360 361 361 363 365 364 365 334 331 333 351 354 355 357 359 363 365 349 339 356 356 357 359
340 340 342 344 345 349 350 350 353 358 354 355 357 361 357 360 358 359 359 360 362 361 362 362 365 356 365 336 329 333 355 353 354 358 360 339 350 337 330 355 359 356 357
337 341 343 345 349 351 352 350 351 352 360 358 361 362 361 360 362 363 363 362 363 363 363 362 364 366 363 362 325 323 357 356 355 355 356 359 332 327 324 327 357 354 357
333 337 340 343 353 356 352 350 352 357 361 363 360 365 365 362 364 364 365 365 364 363 362 363 363 365 368 341 327 321 327 345 357 355 357 355 327 323 324 326 330 326 329
327 331 337 345 359 357 360 352 356 360 367 365 361 364 365 366 364 365 364 363 364 362 361 361 360 362 365 366 330 321 320 326 351 360 345 326 323 318 319 320 326 323 347
320 323 330 336 336 340 347 361 360 363 363 362 363 363 365 363 364 366 365 364 363 362 361 359 360 360 362 363 366 344 333 326 334 340 350 343 341 330 338 339 330 349 357
319 321 324 326 326 332 340 346 349 362 358 363 362 362 363 361 364 363 364 364 365 358 361 360 359 359 357 357 345 349 354 352 343 348 356 356 354 353 358 362 362 357 360
319 318 318 319 320 324 331 338 343 347 365 361 361 360 361 362 363 360 352 308 314 306 311 317 342 345 318 310 309 309 320 321 318 348 354 354 354 354 355 358 358 357 349

GFSMW_sfc_thetae_057.txt.gz
Theta_e
338 338 337 338 342 340 339 342 346 347 351 349 346 345 342 344 347 352 358 356 357 354 350 348 350 346 343 338 347 340 339 339 340 330 333 331 338 339 340 340 341 347 348
336 336 334 337 341 340 340 344 348 347 349 347 347 347 346 343 346 352 356 355 354 353 348 348 351 348 347 349 346 346 341 342 337 333 337 328 330 338 335 338 338 339 347
332 334 333 335 338 341 343 345 349 347 349 346 346 350 346 347 343 346 351 355 357 356 357 354 354 349 349 347 346 346 345 336 337 339 335 325 326 330 336 332 336 334 338
334 334 333 334 336 339 344 346 349 348 348 348 343 345 342 341 343 346 351 354 354 356 357 353 353 352 352 350 348 351 346 338 338 334 341 338 336 328 325 336 336 335 339
334 334 334 335 337 341 342 347 349 348 347 349 344 344 342 347 345 349 352 352 356 356 356 355 355 351 349 348 349 350 348 347 343 335 336 333 336 340 334 326 330 335 336
335 335 336 337 338 341 342 346 349 346 346 347 349 342 342 343 345 345 346 354 354 356 358 356 355 353 352 352 350 352 349 347 349 344 344 334 334 337 335 332 331 330 333
334 335 335 336 336 339 340 344 346 347 346 346 346 349 343 343 343 346 352 351 351 351 354 354 356 356 354 352 352 352 351 351 348 348 346 343 339 336 339 334 332 332 334
329 336 336 336 337 339 340 343 343 346 348 345 344 347 348 343 345 348 347 352 352 351 355 355 355 353 356 355 354 351 351 352 349 348 350 347 346 345 339 334 332 329 332
335 334 338 337 338 339 340 342 343 344 349 348 344 346 351 343 343 345 346 345 348 352 353 358 355 357 356 356 355 350 352 352 352 348 347 350 348 347 346 340 336 334 327
336 337 338 339 339 340 341 343 345 344 348 349 348 344 347 351 344 344 345 346 345 348 354 358 356 358 355 354 356 350 353 351 352 353 351 349 349 347 351 344 343 340 334
334 336 337 340 338 341 341 342 346 346 346 347 350 346 344 350 348 344 341 347 345 355 357 358 356 357 356 356 354 351 353 351 352 353 350 351 351 349 350 354 349 342 341
334 337 336 338 336 338 341 342 345 347 349 349 348 349 346 346 348 345 343 340 347 349 356 358 356 355 353 355 354 353 353 351 352 352 351 350 356 351 349 351 349 349 350
333 326 332 336 336 335 339 343 344 348 350 351 349 349 348 344 346 344 345 341 350 347 354 356 355 355 355 353 354 354 354 352 353 353 353 352 350 351 353 350 349 348 349
331 329 329 332 333 335 337 342 344 348 350 351 351 349 348 348 344 345 342 349 347 355 352 357 354 355 353 354 354 356 355 353 353 356 354 355 354 352 352 354 352 352 350
328 329 328 329 338 336 339 342 345 346 350 351 351 350 350 349 349 346 345 340 353 349 354 353 356 356 356 354 353 356 356 355 353 352 355 355 355 352 352 356 354 354 351
313 316 321 324 337 336 334 334 342 346 347 350 351 352 351 350 349 349 350 345 343 354 352 352 354 356 358 345 342 351 355 356 355 354 353 356 352 350 343 343 345 353 353
309 316 319 333 334 332 333 333 333 348 347 347 351 351 351 350 349 350 348 350 345 347 353 355 355 355 357 340 338 342 353 352 355 355 355 354 358 350 355 343 338 338 337
313 328 326 340 342 342 337 336 337 339 347 346 348 350 351 351 352 351 349 350 352 348 349 353 356 356 357 339 334 337 349 352 352 356 356 355 355 352 351 352 353 349 348
314 326 321 333 341 338 335 336 336 335 334 346 347 349 351 350 352 349 350 349 351 352 351 354 355 356 357 334 332 333 340 347 350 353 354 355 355 345 337 349 350 351 354
313 323 324 332 336 341 336 333 334 332 337 340 349 350 351 352 351 351 351 353 350 350 354 352 355 350 357 335 330 332 349 342 345 348 349 337 349 338 333 348 349 345 347
313 327 331 332 337 342 344 341 339 334 346 348 351 352 351 351 352 353 353 352 352 351 351 353 354 357 355 356 326 324 352 350 346 346 347 351 329 323 323 325 348 349 351
316 328 328 329 335 343 343 343 343 346 350 351 351 351 352 352 354 353 353 353 352 351 351 352 353 356 359 339 330 322 325 343 350 348 350 349 332 324 322 325 328 325 329
321 324 323 325 332 336 337 340 342 348 349 353 351 353 355 352 354 353 352 352 353 352 352 352 353 354 357 359 330 322 321 324 348 354 346 333 326 320 322 322 324 322 336
317 320 320 326 327 326 329 336 341 344 348 351 354 352 355 353 352 357 355 355 354 354 353 353 353 355 356 358 361 342 331 324 331 339 339 335 334 332 337 329 322 334 340
318 318 319 319 319 321 324 329 331 336 340 350 355 354 355 353 355 357 357 357 358 354 356 355 356 354 354 355 346 348 350 347 339 341 349 343 341 343 344 348 339 337 346
316 316 316 317 318 318 319 321 323 328 335 343 352 355 354 355 356 355 337 307 310 309 316 326 347 356 327 326 319 313 318 320 317 339 347 347 348 348 347 347 353 349 346

GFSMW_sfc_thetae_060.txt.gz
Theta_e
335 335 336 342 342 342 341 342 342 344 345 343 342 342 341 343 343 350 353 352 351 346 343 347 347 342 338 336 344 339 335 339 337 330 330 332 338 336 337 342 343 345 346
334 335 334 337 338 338 339 342 343 343 344 344 343 343 342 341 344 350 352 353 351 349 346 346 348 345 343 340 344 342 340 336 334 331 331 321 326 333 335 336 341 340 346
332 334 333 336 337 336 340 342 343 344 345 344 344 346 344 343 342 346 349 352 351 351 349 350 349 345 346 343 343 343 341 330 334 334 332 320 320 327 333 332 333 334 341
335 334 333 335 335 336 342 344 343 345 345 343 342 343 340 339 339 343 347 351 353 352 354 352 351 345 347 344 344 349 340 336 333 331 339 333 331 323 322 331 334 332 337
334 334 332 336 337 337 340 345 344 344 345 343 340 343 340 341 341 343 346 348 350 352 353 350 350 349 349 346 345 347 346 343 339 331 333 330 332 333 328 324 329 332 333
332 334 333 336 337 339 340 346 344 343 345 343 339 340 341 340 342 342 344 347 350 351 351 351 351 349 347 346 346 347 343 344 345 340 339 333 332 332 334 327 327 327 330
330 331 332 333 335 337 340 344 344 341 343 344 344 340 341 339 341 342 345 347 349 349 351 351 350 349 349 350 348 348 349 346 345 345 340 340 338 334 335 330 330 329 332
330 333 333 333 334 337 338 343 343 342 342 343 343 345 340 340 342 343 347 349 350 351 354 352 352 352 351 350 349 348 347 349 346 345 346 344 341 343 338 331 328 326 328
332 335 335 334 335 337 337 340 343 342 342 342 342 343 347 341 340 345 347 347 349 349 353 352 352 351 352 351 350 346 346 348 348 346 343 345 345 343 343 338 332 330 324
333 336 335 335 336 338 338 340 342 343 344 343 342 342 344 348 339 341 342 346 346 348 350 353 352 351 351 351 350 347 348 348 347 349 348 344 345 344 347 345 339 336 330
333 335 336 337 338 339 339 339 340 341 345 346 344 341 342 345 344 340 341 343 343 345 348 354 352 352 352 350 351 347 347 348 347 348 347 347 347 345 345 348 347 343 337
334 336 337 338 337 337 338 339 340 341 342 346 346 344 341 343 346 345 341 340 342 348 352 354 352 352 353 351 349 349 350 349 347 348 349 348 353 348 346 346 345 344 344
333 334 331 328 330 335 338 339 341 342 342 344 346 345 342 341 342 346 343 338 339 342 352 353 353 353 353 352 352 351 349 348 348 349 349 348 347 348 349 347 346 346 347
331 330 329 329 331 332 333 336 340 344 344 343 344 344 346 343 341 344 345 344 338 339 345 353 353 353 352 352 353 351 349 349 349 350 350 351 350 347 347 349 349 349 347
330 321 322 321 324 331 333 336 339 343 346 345 345 344 347 348 344 341 344 342 344 342 345 349 352 353 352 352 350 351 350 349 349 350 351 352 352 348 347 351 349 348 347
314 316 321 328 332 331 325 336 338 341 347 346 346 347 345 347 347 344 341 341 340 346 344 350 352 351 354 342 341 349 351 350 349 349 349 350 349 347 341 341 343 349 349
311 312 319 333 336 335 335 332 334 338 340 347 348 348 349 347 346 346 343 341 340 338 346 344 350 352 352 337 336 341 351 352 352 351 351 351 355 348 352 341 337 337 338
308 309 311 323 334 336 338 336 337 337 336 337 347 350 350 348 348 346 346 345 345 339 338 348 347 349 353 336 333 337 350 349 350 353 354 352 352 350 349 350 349 349 347
307 309 312 320 334 333 336 338 338 338 336 335 335 345 351 350 348 346 346 347 348 346 341 345 352 350 350 332 330 333 347 349 348 349 352 353 353 341 334 349 348 348 350
307 308 312 324 332 340 337 333 336 338 333 335 335 337 345 350 349 349 348 348 348 348 349 346 346 345 353 332 328 331 350 346 346 348 349 335 347 333 329 346 348 345 346
307 310 314 328 332 335 334 331 332 331 334 337 336 337 339 347 351 350 351 349 348 348 349 348 348 350 350 350 325 324 351 351 347 345 345 348 328 324 323 325 349 347 348
306 318 319 323 329 335 337 340 337 339 335 334 334 336 340 346 350 350 351 350 349 347 346 348 349 351 352 336 328 323 326 343 351 348 346 346 326 320 319 321 326 323 324
307 318 320 319 326 332 331 330 336 343 344 344 345 344 349 350 350 349 349 349 349 349 347 346 346 349 352 354 328 322 321 325 347 354 343 330 321 319 322 322 323 320 330
307 316 317 320 322 322 325 325 331 333 333 336 340 349 350 350 349 350 351 350 349 348 348 348 347 348 351 353 355 344 333 325 330 339 345 336 332 328 334 331 326 327 333
310 315 317 315 317 318 320 320 323 324 326 328 334 344 350 346 349 350 350 350 352 348 349 349 350 349 349 351 342 344 351 348 339 337 346 337 336 339 340 341 340 331 333
312 314 313 316 316 315 315 316 316 318 320 324 330 341 351 350 352 349 338 309 312 316 317 320 340 351 333 325 316 311 317 318 315 333 344 345 344 343 345 342 344 340 336

GFSMW_sfc_thetae_063.txt.gz
Theta_e
333 333 338 340 341 342 340 338 338 342 344 338 337 340 339 341 344 347 351 349 347 344 343 345 345 342 338 336 340 335 336 337 333 328 329 329 335 335 339 341 341 343 344
332 332 335 340 340 339 339 338 339 342 344 341 340 342 341 341 343 348 350 350 348 344 344 345 345 339 336 338 342 338 338 335 332 327 327 321 323 331 333 335 339 340 344
332 331 334 338 340 338 338 338 339 342 343 342 342 342 342 340 340 345 347 350 350 349 345 345 345 343 341 342 341 341 336 328 331 332 327 318 318 324 330 330 333 336 337
333 332 332 335 338 338 340 340 340 342 342 341 342 341 338 336 338 342 346 349 351 349 348 348 348 344 344 342 342 345 340 331 329 329 335 330 328 322 321 328 331 331 332
334 332 330 334 337 338 338 340 341 342 343 341 342 341 338 339 339 341 344 346 348 349 351 349 349 344 346 344 343 345 342 337 337 327 331 329 330 330 325 322 326 330 331
334 334 333 335 335 337 339 341 341 341 342 341 338 340 340 339 339 338 341 344 347 347 350 348 347 347 345 344 343 345 342 341 341 336 333 329 330 331 330 326 325 325 329
332 334 331 333 333 334 338 342 340 340 341 340 338 338 339 339 340 339 340 343 345 347 348 347 347 345 346 345 345 345 343 343 343 339 336 335 335 332 333 328 328 327 330
331 333 330 334 333 334 336 341 340 339 341 341 340 337 338 340 339 341 341 344 346 349 350 348 349 348 347 348 345 346 344 346 343 343 344 340 340 340 336 329 327 325 326
332 333 332 333 335 335 335 340 340 340 341 341 341 340 338 338 339 341 343 344 346 349 350 349 349 350 349 347 346 345 344 345 345 343 341 342 342 342 340 337 330 327 322
332 331 333 332 334 336 337 340 341 340 341 341 342 342 343 340 338 340 343 344 346 347 349 350 348 349 349 349 347 344 344 343 345 346 344 342 342 342 343 342 336 333 328
327 331 333 334 334 336 337 338 340 340 340 341 341 341 340 344 341 338 340 342 344 346 346 350 349 347 348 349 348 345 345 346 344 344 345 344 344 344 343 344 344 340 334
329 335 336 335 334 335 336 336 339 340 341 341 341 340 339 340 343 341 338 339 340 342 344 347 349 348 349 348 348 347 348 344 344 345 344 345 348 345 344 343 343 341 340
329 328 329 330 332 333 334 336 338 339 341 342 341 340 339 338 339 342 342 338 338 340 346 348 349 348 349 349 348 347 347 347 347 347 345 345 346 345 345 344 344 344 345
321 323 325 328 331 331 332 334 337 339 340 342 343 341 340 339 339 340 342 342 337 338 340 349 350 350 349 350 350 349 347 346 347 347 347 348 347 345 344 345 346 345 344
311 314 321 324 331 332 329 331 335 339 341 340 341 342 343 342 340 339 340 341 341 339 338 343 350 350 351 351 349 350 349 348 346 347 348 349 349 346 344 347 345 345 343
308 312 312 314 321 332 335 331 331 337 342 340 339 342 343 344 342 339 338 339 340 341 338 339 342 349 352 341 339 347 349 348 347 346 346 348 347 345 339 338 340 346 345
303 305 310 314 314 327 335 334 334 336 341 342 342 342 343 343 344 343 339 338 339 339 340 341 343 343 348 336 335 339 349 347 348 348 347 347 352 345 349 341 336 335 335
302 304 305 310 312 321 330 336 337 334 336 342 343 344 344 342 344 345 342 340 339 339 337 338 341 345 347 334 331 335 347 349 348 349 349 348 348 348 348 349 348 347 346
303 304 307 307 311 323 336 336 335 337 336 336 340 346 346 346 344 344 344 344 341 340 339 338 338 341 344 330 329 332 345 347 347 348 349 351 350 340 332 347 345 346 347
303 305 306 310 317 325 332 334 333 336 337 336 335 336 343 348 347 346 345 346 345 343 343 340 338 335 343 327 326 330 348 347 347 349 347 333 344 331 327 343 346 345 347
303 305 306 311 319 324 329 331 333 332 336 337 335 335 336 337 348 349 348 347 346 346 345 345 343 341 343 345 322 322 348 348 347 347 347 348 327 323 322 323 349 346 347
301 303 304 307 317 323 325 328 330 335 342 342 334 334 334 339 342 343 348 347 346 344 344 344 345 346 344 330 325 321 325 339 348 347 347 346 323 319 319 321 326 324 325
300 302 304 306 315 322 327 326 326 329 333 332 334 339 342 337 338 341 344 347 348 346 345 344 344 345 348 348 324 319 320 324 344 351 343 329 320 316 319 319 323 321 330
300 302 304 306 312 321 326 325 324 326 325 326 330 332 334 340 348 348 346 346 347 347 346 345 344 345 347 349 350 338 329 323 329 338 343 337 330 327 332 330 326 330 332
304 304 305 306 312 320 321 322 322 319 318 321 325 327 332 339 346 348 346 347 349 346 347 347 347 345 344 346 339 341 347 345 338 339 345 347 338 342 339 338 339 333 330
303 304 304 306 312 317 318 318 316 315 314 317 322 324 327 331 339 346 344 310 316 314 315 316 336 347 330 323 315 312 313 315 313 335 346 344 346 346 345 344 342 340 334

GFSMW_sfc_thetae_066.txt.gz
Theta_e
331 334 334 337 338 340 341 341 341 342 343 340 339 341 341 344 346 348 351 352 351 349 348 348 347 347 343 343 344 341 343 342 339 339 338 337 338 341 343 347 347 347 349
328 330 334 334 337 339 340 338 340 342 344 342 341 343 342 345 347 349 352 352 351 347 347 348 347 345 341 346 346 345 344 340 338 335 334 327 332 336 339 341 343 345 347
327 329 334 334 337 338 339 338 339 342 344 342 343 342 342 343 345 348 349 352 351 349 349 349 348 346 343 346 348 346 343 337 337 339 335 328 327 330 337 339 338 341 343
331 330 333 336 337 338 339 340 339 342 344 342 342 341 340 338 342 345 349 352 354 351 350 349 350 349 348 348 348 349 345 339 337 337 339 337 335 331 331 336 338 340 338
331 331 332 337 339 339 339 339 339 342 344 343 343 341 340 340 342 345 348 350 352 352 351 352 352 349 349 350 349 351 347 344 342 337 339 337 338 336 333 331 335 339 340
331 333 333 337 338 340 339 339 338 340 343 343 342 342 340 340 340 341 344 346 350 352 352 353 350 349 351 350 349 351 350 349 348 343 340 338 339 338 336 334 334 333 339
333 332 330 332 336 337 338 339 339 338 341 342 341 342 342 342 341 341 342 344 347 350 351 352 349 349 351 351 349 351 349 348 350 347 343 341 343 340 339 335 336 335 339
334 334 332 332 334 336 337 339 338 338 341 341 340 340 342 342 343 343 343 344 347 350 353 353 352 351 352 351 349 350 352 351 349 350 351 346 347 347 344 340 337 336 334
332 333 334 333 334 334 335 338 339 339 340 341 341 339 340 341 341 344 345 345 348 350 353 352 352 352 352 352 352 350 349 351 352 349 349 349 349 348 346 345 339 338 334
328 331 334 332 334 335 336 339 340 340 341 342 342 341 339 340 341 343 344 346 348 351 353 353 352 352 354 351 351 350 350 350 350 351 350 348 348 349 347 350 343 341 338
331 333 334 333 335 336 335 338 340 340 340 342 342 342 341 340 340 341 344 346 349 349 351 353 352 352 352 353 352 351 350 349 349 350 351 351 352 350 350 351 351 348 342
330 334 335 335 334 335 336 336 339 340 341 341 342 341 342 344 341 340 341 344 346 349 351 351 352 352 352 351 352 351 352 349 349 350 349 350 351 351 352 350 351 350 349
324 325 329 332 334 335 336 337 338 340 341 342 341 341 340 341 343 343 341 342 343 344 346 349 350 352 352 352 352 352 352 352 351 351 350 351 351 352 352 352 351 351 351
310 314 318 323 332 334 335 337 338 339 341 341 341 340 340 340 341 343 344 341 342 343 343 347 349 352 352 353 353 352 352 352 352 353 352 353 352 352 353 351 352 353 352
306 308 310 313 314 324 336 337 335 339 340 341 341 341 341 341 341 341 343 344 342 342 343 344 349 352 352 351 353 353 352 351 351 353 353 353 352 346 348 354 354 353 351
302 305 307 310 311 317 321 334 335 334 340 339 340 343 344 343 341 341 341 342 344 343 341 342 345 348 351 341 339 349 352 353 352 351 352 354 348 346 339 337 339 350 354
302 302 304 307 309 313 320 328 335 338 336 339 341 342 344 344 344 343 341 340 341 343 342 341 342 345 348 334 335 338 353 352 352 352 353 351 352 348 354 342 335 336 334
300 301 303 305 307 311 320 331 337 337 337 339 342 342 342 343 344 345 342 340 340 340 341 342 342 342 344 331 331 335 350 352 351 352 352 352 353 353 353 353 354 355 355
300 301 303 305 307 311 321 330 334 336 338 338 340 345 344 343 343 344 344 343 341 340 341 341 342 342 344 327 327 332 347 348 350 352 353 353 353 340 332 353 353 353 354
300 301 303 304 305 308 318 325 327 334 334 338 339 340 342 346 344 343 345 346 346 343 342 342 341 336 343 326 324 329 346 344 346 350 352 334 347 331 326 349 352 350 352
301 303 303 302 304 307 312 319 323 327 337 341 340 338 338 339 348 348 347 347 347 347 344 343 344 341 339 341 321 321 346 345 344 346 348 352 326 323 320 324 352 349 351
302 303 302 302 304 306 309 315 320 328 336 335 336 337 338 337 341 344 349 348 346 345 345 345 345 345 343 327 321 319 323 338 346 345 348 348 323 318 317 320 326 323 325
303 302 301 302 304 306 308 311 319 331 331 331 331 331 335 340 340 339 340 347 348 346 345 345 344 346 349 345 322 318 318 323 343 349 341 329 320 317 320 318 321 320 336
302 303 302 302 303 306 308 311 317 327 327 326 327 330 330 331 336 343 340 340 346 346 346 345 345 346 347 349 349 337 329 322 329 336 343 338 332 329 335 334 329 334 340
302 303 302 302 304 307 308 310 314 323 322 321 323 327 329 330 332 339 344 345 343 343 347 348 348 346 346 347 338 339 344 342 336 339 347 348 348 347 347 344 345 343 340
301 302 302 302 303 305 307 310 314 320 318 317 319 322 326 327 330 331 336 320 317 310 310 317 337 349 331 318 313 311 310 312 310 335 344 344 345 345 346 346 349 347 339

GFSMW_sfc_thetae_069.txt.gz
Theta_e
340 343 341 346 345 345 347 349 351 354 353 350 349 351 350 353 354 356 359 359 360 361 360 362 357 357 354 355 355 352 353 350 352 348 347 349 350 349 350 353 354 353 354
338 339 342 343 344 344 346 349 351 354 354 351 353 353 354 354 358 358 360 360 361 361 359 360 356 357 352 356 355 355 351 351 350 345 345 336 340 346 349 352 350 351 353
335 337 340 341 343 344 346 348 351 354 355 354 353 354 355 356 354 355 356 359 361 356 358 360 358 357 355 354 357 354 353 345 348 349 344 336 333 341 348 349 350 352 352
336 337 339 340 341 344 347 350 351 353 355 356 353 353 350 348 351 354 355 358 361 359 357 359 360 359 354 358 357 358 355 351 345 349 350 350 347 337 337 346 349 352 350
336 336 338 340 341 344 346 348 351 352 356 356 356 352 353 352 354 355 359 361 363 361 359 359 360 360 358 360 360 359 351 353 349 348 349 349 348 350 344 337 342 350 352
337 338 340 342 342 345 346 347 349 352 354 355 354 354 354 354 351 353 354 355 358 366 362 361 362 361 360 360 359 362 360 360 358 355 353 348 346 346 345 343 347 345 349
338 337 338 339 342 344 345 346 347 349 352 353 353 354 354 356 356 355 353 356 354 357 361 363 362 361 361 362 361 361 361 360 357 360 354 353 354 355 352 347 344 343 349
339 338 339 340 342 344 346 346 347 348 350 351 354 356 356 352 352 356 353 353 354 356 363 363 364 362 362 361 361 358 358 359 357 359 361 357 357 358 356 353 345 342 345
339 339 339 341 342 344 346 347 348 348 349 349 353 354 354 355 354 357 357 354 359 356 361 363 363 362 362 362 362 356 359 361 361 358 359 358 358 358 357 358 353 347 339
339 340 340 340 342 344 346 347 348 348 349 350 351 351 352 354 355 356 357 358 358 360 360 361 362 362 362 362 362 360 361 360 357 357 360 359 356 356 358 357 358 356 351
335 340 342 342 343 343 344 345 347 348 348 349 352 351 350 351 353 353 355 358 360 361 360 361 361 362 362 363 362 361 360 359 359 359 359 360 362 355 356 359 358 356 354
331 337 340 340 341 342 342 343 345 345 346 350 352 350 352 351 350 351 353 357 358 360 361 362 362 362 362 362 362 360 358 358 358 358 359 357 357 361 362 358 361 358 360
312 317 320 323 337 341 342 342 343 345 345 347 347 349 349 350 350 351 352 353 356 358 358 361 361 362 361 362 362 362 361 360 359 358 359 359 360 360 358 361 359 358 359
306 308 309 314 319 326 336 342 343 344 346 346 344 347 346 349 351 355 354 352 355 355 356 358 360 362 362 362 362 362 362 361 361 360 360 360 360 361 362 360 361 361 358
304 305 305 308 310 314 323 334 340 341 345 347 347 347 350 350 347 349 356 354 353 354 356 355 356 358 357 356 361 362 361 361 360 361 361 361 358 349 352 357 361 362 359
304 304 304 306 307 310 315 325 334 339 342 342 346 351 353 354 353 353 352 356 354 354 355 353 354 354 352 339 340 353 360 361 360 359 361 362 352 350 339 338 340 350 360
304 305 304 304 306 308 310 320 331 339 341 342 342 348 351 352 353 352 353 353 353 355 353 353 354 355 357 334 335 340 357 359 361 361 361 359 357 354 361 343 336 337 335
303 305 306 306 307 307 309 315 325 330 336 344 342 346 349 350 353 352 352 352 352 353 353 352 355 355 354 332 330 335 356 359 360 361 362 361 361 360 359 360 359 359 360
304 305 307 309 310 310 309 309 316 324 328 337 344 347 349 349 350 350 353 352 350 350 352 352 353 353 354 328 326 334 352 353 360 361 361 362 361 347 334 357 358 359 359
304 305 307 310 310 311 310 309 311 317 323 329 339 343 347 346 351 351 352 353 353 351 350 349 352 344 354 331 323 330 347 349 349 358 362 336 352 334 327 354 357 355 356
304 306 307 309 310 311 311 309 309 310 319 326 338 339 341 346 346 348 355 353 353 353 353 351 352 353 350 351 322 320 349 348 349 347 348 350 328 325 321 326 360 357 356
303 305 307 308 310 311 311 311 310 311 317 323 333 334 337 340 344 348 347 354 355 354 353 353 351 352 354 333 326 319 322 339 350 351 351 351 324 319 319 322 331 325 329
303 305 305 308 309 311 311 311 313 314 314 322 330 330 333 337 340 345 347 346 347 351 352 350 349 351 354 354 322 317 318 321 344 352 345 329 318 316 321 319 323 321 347
300 302 304 305 306 309 310 311 312 315 313 316 325 328 328 331 336 338 342 344 344 346 348 350 349 351 354 355 356 346 336 322 329 336 346 341 335 331 339 340 331 343 351
298 299 301 303 305 308 308 310 310 312 314 312 320 324 325 328 332 335 337 343 348 344 345 349 351 350 351 352 341 343 352 349 340 341 349 350 350 350 351 352 353 354 352
300 300 301 302 303 305 306 308 311 312 314 313 316 320 321 324 328 332 332 318 315 313 312 313 326 350 332 321 312 311 311 311 312 341 349 349 349 348 348 349 352 353 349

GFSMW_sfc_thetae_072.txt.gz
Theta_e
341 343 348 348 350 349 348 351 352 357 355 353 352 352 352 355 356 359 361 361 362 364 365 359 359 359 353 357 359 354 353 346 352 345 343 345 350 349 352 354 353 352 355
340 342 347 348 348 347 346 350 352 357 356 352 354 354 355 355 357 359 362 360 361 363 360 361 358 358 352 358 358 358 347 347 352 342 343 337 341 344 348 352 351 351 354
338 342 345 346 346 346 346 350 354 357 357 356 356 359 359 362 364 359 357 360 363 363 363 364 358 361 356 350 358 356 355 342 351 353 342 336 333 341 345 347 346 352 352
341 342 344 345 345 346 349 351 356 358 358 360 357 359 351 348 351 355 357 360 363 361 361 364 363 363 356 359 357 357 357 354 342 347 350 355 350 339 335 342 345 348 347
337 342 343 346 346 347 348 351 357 359 359 361 360 356 357 352 354 354 365 363 366 362 361 364 364 363 358 361 361 362 361 351 347 346 349 353 352 354 342 334 338 343 346
339 342 345 346 346 348 349 351 355 359 360 361 362 360 358 357 351 354 366 354 360 359 363 362 365 364 362 361 359 363 361 359 356 350 351 348 346 344 345 340 343 342 346
342 342 343 344 345 346 349 350 354 356 359 359 360 360 360 361 359 363 351 357 355 354 361 365 366 360 365 361 361 366 361 363 355 359 351 354 355 355 352 346 344 343 347
343 343 344 345 346 346 349 350 353 355 357 358 360 362 362 356 356 357 352 353 353 356 362 363 361 362 362 361 361 358 356 358 357 358 360 355 358 359 355 350 346 341 343
343 342 344 346 347 348 349 352 353 356 357 356 359 360 361 359 356 359 359 355 359 356 362 361 360 360 363 364 365 358 359 359 360 358 359 356 357 358 358 358 354 346 341
342 344 343 346 347 348 350 352 353 356 357 357 357 358 359 361 360 360 360 359 357 361 361 364 363 361 363 365 366 359 362 361 356 354 360 361 354 356 356 355 356 354 347
334 335 342 345 347 349 350 350 352 354 355 357 358 357 357 358 360 359 360 360 360 361 363 364 364 363 361 364 366 363 360 362 360 359 358 361 363 354 353 355 354 353 352
318 321 323 324 336 346 348 349 351 351 354 355 357 356 357 358 356 358 359 360 360 361 363 367 364 364 363 365 364 360 358 359 358 359 360 358 355 362 362 355 360 357 358
310 310 310 313 318 329 335 346 348 349 350 353 354 354 354 355 356 356 358 359 359 360 360 362 364 364 364 365 365 363 360 361 360 361 360 360 360 359 355 359 355 355 356
308 308 308 311 315 317 320 333 343 349 350 351 352 353 353 354 355 357 358 358 359 359 359 361 362 363 360 363 364 364 362 361 361 363 362 361 360 361 363 361 363 361 358
306 307 307 308 312 313 314 321 332 340 348 349 351 352 355 356 356 357 359 359 359 359 359 359 360 361 361 356 361 364 364 363 362 364 364 363 357 350 353 359 365 367 359
307 308 309 309 308 310 312 315 319 331 338 347 348 351 356 357 357 358 356 359 359 359 359 358 356 356 354 341 340 354 362 363 363 361 364 365 354 352 342 341 341 350 361
310 311 308 308 311 312 314 312 316 325 329 333 347 350 351 354 357 358 358 357 356 359 361 358 358 358 359 335 333 341 356 358 360 362 361 361 358 356 362 343 338 338 336
309 310 311 312 312 313 312 316 316 319 322 328 336 345 349 351 354 358 356 358 358 357 359 360 362 362 360 334 330 335 356 358 361 361 362 364 364 362 361 361 359 360 361
309 310 311 313 316 317 315 315 313 313 315 321 327 336 338 349 351 352 356 356 356 357 356 357 360 362 363 329 328 335 353 353 359 362 365 366 365 348 334 360 359 360 360
310 310 311 312 314 317 318 317 317 314 313 315 320 327 339 339 344 352 357 362 359 357 356 356 358 348 360 333 324 333 350 352 349 358 364 339 354 336 328 361 361 358 358
309 310 311 311 314 316 317 316 318 318 318 317 318 323 332 337 336 344 356 356 360 361 359 356 359 359 356 356 322 321 351 349 349 348 347 348 329 327 322 328 364 358 355
308 309 309 310 313 315 315 315 316 319 320 320 316 317 322 332 331 340 339 351 359 359 358 361 357 357 360 336 328 319 322 340 352 353 351 354 323 319 321 325 332 325 330
306 306 306 307 309 313 314 313 316 318 318 318 320 317 321 327 333 336 339 337 349 351 357 359 353 353 356 360 326 319 318 321 342 353 346 327 318 313 320 321 326 324 349
305 306 304 305 306 310 312 313 315 316 316 316 318 320 316 320 328 329 332 335 335 343 346 350 355 358 355 357 359 353 341 323 331 336 344 342 335 327 337 342 333 346 350
305 305 303 303 305 307 308 309 311 313 312 314 315 318 320 321 324 328 329 333 336 334 343 349 353 353 352 353 341 343 359 358 344 344 352 352 351 352 352 352 352 353 352
304 303 305 303 304 305 306 309 309 308 309 311 313 315 318 320 322 323 325 317 315 314 311 309 318 346 329 315 315 311 313 314 315 345 349 351 353 352 353 352 351 352 348

GFSMW_sfc_thetae_075.txt.gz
Theta_e
339 342 342 346 346 348 348 351 352 359 355 352 350 351 352 358 359 362 362 361 361 361 362 355 357 362 359 359 357 353 353 347 350 349 344 343 346 346 346 349 349 349 351
337 341 341 346 345 348 348 351 353 359 356 354 359 353 354 356 357 361 361 361 361 362 360 363 359 362 354 359 356 360 357 347 349 351 345 336 339 342 344 346 346 348 349
336 338 341 344 345 347 346 350 354 358 359 361 356 356 357 362 358 359 355 359 361 360 362 363 367 359 363 351 358 355 359 352 345 355 345 340 335 339 345 346 345 349 347
338 339 340 343 344 345 345 350 354 358 358 360 360 365 352 351 350 357 359 358 363 361 361 362 362 362 358 361 356 352 362 355 345 343 346 355 352 346 333 341 343 345 346
339 338 341 344 344 345 346 350 356 360 363 362 365 357 357 351 353 356 359 366 364 362 360 363 363 363 359 363 362 361 361 350 347 346 346 351 347 351 343 333 337 343 345
341 340 343 344 344 345 346 351 358 361 361 360 361 362 360 359 357 351 354 354 354 357 362 361 363 364 365 363 359 363 361 362 359 353 350 350 344 346 341 337 345 341 345
341 342 340 344 342 345 344 349 356 359 360 360 360 360 360 360 361 359 353 351 359 352 363 363 364 360 363 361 364 366 363 357 356 362 355 354 351 352 346 351 343 342 344
341 342 344 343 343 346 345 348 353 359 360 360 363 364 364 356 354 358 356 354 355 352 367 362 361 361 362 362 363 359 355 364 356 357 363 357 351 354 353 352 346 340 342
338 342 342 346 343 345 348 349 356 358 360 359 361 363 365 362 358 367 360 356 362 354 363 361 361 361 362 363 366 356 361 365 361 359 361 358 353 351 352 350 349 347 340
333 332 337 343 345 345 347 348 352 356 359 359 360 360 362 363 362 360 362 362 360 360 355 362 362 361 361 362 365 363 364 362 356 352 365 365 356 353 351 351 351 350 347
326 329 328 333 338 339 347 348 351 354 357 358 360 360 360 361 362 359 360 362 360 362 361 368 363 362 361 362 366 367 362 360 362 364 359 363 370 355 351 350 350 350 350
313 321 323 326 325 331 336 341 348 351 354 357 361 359 360 361 359 360 361 364 365 361 362 364 363 363 362 364 364 360 357 359 358 359 364 357 355 368 368 355 371 359 364
313 311 317 315 315 323 333 337 342 346 350 355 355 357 357 359 359 360 361 365 365 364 358 362 364 361 361 365 366 365 361 360 359 359 360 360 363 365 359 363 356 354 356
310 311 309 313 314 316 319 329 333 344 345 350 353 355 357 358 358 362 365 361 366 364 363 364 366 364 360 361 362 364 364 363 361 362 362 362 362 365 367 361 368 362 360
309 310 310 311 313 317 317 318 326 334 340 344 349 354 357 360 358 361 365 364 365 365 365 364 364 364 360 355 364 364 363 364 363 364 363 365 360 351 356 357 365 368 361
310 310 310 312 313 314 318 319 320 325 332 334 343 353 355 358 361 362 362 365 365 367 367 363 363 363 354 342 339 354 363 366 367 366 368 369 355 352 342 342 342 350 362
311 312 313 314 315 315 317 318 321 322 324 328 331 338 347 354 355 360 361 362 362 365 367 365 363 364 365 338 334 340 357 362 367 367 369 362 355 357 364 344 340 342 337
312 314 314 315 315 317 318 320 321 322 321 323 322 327 332 342 349 356 357 360 360 360 363 363 367 367 364 336 331 335 361 361 363 365 368 368 367 367 365 365 362 361 362
313 314 315 315 318 319 322 323 321 321 322 320 321 323 326 333 339 340 352 362 360 358 358 361 365 367 367 332 329 334 354 354 360 364 364 366 368 351 337 362 365 365 366
313 313 314 316 316 319 320 320 320 322 322 320 322 323 323 328 338 339 337 349 360 358 357 358 362 353 365 339 326 332 354 354 354 359 362 340 352 337 331 362 363 361 363
312 313 314 314 316 318 318 319 320 320 322 324 324 325 326 325 329 338 339 341 348 357 358 356 361 365 361 363 325 322 356 355 353 352 353 354 331 327 324 325 364 360 363
310 311 311 311 313 315 315 316 318 321 322 322 322 324 325 326 322 331 338 338 342 344 354 359 359 363 364 340 330 321 323 345 355 355 353 355 324 320 322 327 334 328 333
309 310 310 310 312 313 314 313 316 319 320 320 320 321 323 324 327 325 332 331 341 338 340 350 352 355 363 359 329 321 320 323 345 357 348 323 319 314 318 318 324 324 348
309 310 309 309 310 312 313 313 314 316 315 315 316 318 319 320 323 324 322 324 326 331 333 341 350 354 359 363 359 357 340 325 333 339 348 343 335 325 334 341 333 342 351
309 308 308 308 309 311 311 312 313 313 312 312 312 314 316 318 322 326 324 323 327 326 331 335 340 341 341 351 329 324 342 357 346 346 354 352 351 352 354 356 358 359 355
308 307 308 307 309 309 309 310 310 310 309 309 309 311 312 315 317 320 323 313 311 309 306 306 316 332 319 313 314 311 312 309 310 343 351 351 353 354 354 356 357 359 352

GFSMW_sfc_thetae_081.txt.gz
Theta_e
334 337 336 339 339 344 341 346 346 349 344 345 346 345 342 344 347 349 348 352 347 355 353 349 347 347 346 343 342 347 340 347 339 341 338 342 342 341 341 343 343 344 349
332 336 334 337 340 341 341 347 348 348 345 344 347 345 344 349 349 351 351 353 350 354 354 348 347 347 347 349 347 345 344 343 341 335 337 331 334 336 336 341 342 340 344
332 333 334 334 340 341 343 347 348 348 347 346 349 347 347 345 340 343 347 354 354 355 354 348 351 346 348 346 345 343 340 342 336 337 338 332 332 331 333 335 336 335 341
334 334 335 337 339 341 345 347 350 349 347 351 348 345 342 342 343 343 347 354 356 353 354 354 351 346 344 343 350 352 346 344 337 338 344 340 340 332 325 335 333 337 340
335 334 337 339 341 343 345 347 351 349 344 349 350 346 342 348 345 347 351 351 352 354 355 352 353 348 346 346 345 347 348 348 345 338 344 339 344 343 337 324 327 336 338
336 334 338 340 340 343 344 346 350 348 347 348 351 347 342 335 336 342 343 348 350 354 355 355 352 351 347 347 345 347 347 346 349 350 344 345 335 336 338 330 328 330 335
335 334 336 340 341 340 343 345 346 349 351 348 350 349 344 339 335 343 344 345 348 349 348 352 351 352 352 349 348 350 347 348 343 351 344 347 346 346 341 340 335 331 335
336 337 337 339 340 340 342 344 344 347 350 348 349 349 349 346 345 344 345 347 344 349 351 354 353 352 351 351 351 348 350 349 345 341 344 347 345 349 344 341 339 336 338
334 337 338 336 341 339 340 344 346 348 350 349 351 351 349 349 345 341 344 349 345 352 350 351 353 353 353 352 352 347 347 348 348 347 347 345 345 344 347 345 343 338 332
331 332 332 333 339 342 342 347 349 349 351 352 354 354 353 352 352 351 350 348 348 348 346 343 345 350 352 356 351 349 348 347 347 344 343 347 344 343 348 348 346 343 338
319 324 328 329 331 336 340 341 341 344 348 352 352 352 353 354 352 352 352 349 347 343 343 342 339 344 350 352 350 349 349 347 346 349 349 348 351 347 349 350 347 347 346
316 318 319 322 325 331 334 335 337 338 338 341 347 352 354 354 353 352 352 353 349 347 343 342 338 341 348 351 351 349 349 349 347 347 349 345 353 349 351 347 346 346 345
313 315 316 317 320 324 328 333 333 335 337 338 341 345 349 353 351 353 354 355 350 345 340 338 340 347 348 351 352 352 352 350 349 348 348 349 348 348 347 345 348 347 352
310 313 314 317 318 320 322 323 328 333 335 337 335 339 339 341 346 353 356 356 356 353 352 352 352 352 353 351 353 352 350 351 351 351 352 351 348 348 347 346 346 348 345
310 311 313 315 319 319 318 319 322 324 329 332 332 335 341 337 339 343 350 354 356 356 355 353 354 354 354 356 353 352 350 350 349 351 352 353 354 352 351 350 347 349 346
310 312 313 314 316 318 318 319 318 323 324 323 325 330 334 340 343 344 346 349 351 354 356 352 354 352 356 344 341 350 353 352 349 347 349 352 351 350 344 343 345 350 349
308 309 310 311 312 313 317 318 321 322 322 322 322 324 328 329 335 341 340 338 347 350 352 354 354 351 353 339 335 338 352 354 352 350 350 351 354 349 353 341 338 338 338
309 308 309 312 313 314 316 318 322 323 322 322 323 324 325 324 327 335 336 335 340 344 350 350 352 353 355 338 336 336 339 343 351 355 355 353 350 349 351 352 348 344 345
308 308 309 313 313 313 316 317 318 320 319 320 322 325 326 325 324 325 327 335 337 339 343 350 350 350 350 336 329 332 341 343 344 350 351 353 352 343 336 348 350 352 352
308 308 310 311 310 310 311 312 314 316 315 317 319 321 322 321 321 325 326 327 334 335 337 342 344 344 350 337 327 330 344 340 346 345 347 336 345 334 331 346 348 345 348
306 308 308 307 308 309 310 310 311 310 313 315 316 317 319 319 318 319 321 324 324 328 333 335 339 344 348 350 330 323 343 349 345 348 348 347 329 323 323 323 347 346 349
306 307 306 306 308 309 308 307 307 310 311 312 313 314 314 315 316 316 318 320 323 323 324 329 333 338 344 333 333 324 321 337 347 349 351 350 327 320 319 322 327 324 328
305 305 304 304 307 308 307 305 307 309 309 308 309 309 311 312 312 310 311 313 314 318 318 319 321 329 334 342 327 321 321 318 326 337 340 324 319 319 318 317 320 320 332
303 303 302 303 304 306 306 305 307 307 305 303 304 305 305 306 307 309 311 312 313 315 317 318 320 323 323 336 339 340 339 324 329 329 333 333 330 328 334 334 330 327 331
303 303 302 302 302 304 304 305 305 303 301 301 301 301 302 302 304 305 307 308 309 309 308 309 312 313 316 319 324 324 330 330 329 325 331 340 344 343 346 347 348 348 338
304 303 302 301 302 302 302 303 302 302 300 299 299 300 300 300 301 302 303 305 304 303 301 300 302 310 308 306 304 302 301 302 306 321 328 333 341 345 346 346 346 347 343

GFSMW_sfc_thetae_084.txt.gz
Theta_e
331 333 341 344 343 342 342 340 342 341 342 343 343 342 340 340 346 348 346 347 347 352 345 348 346 345 343 341 341 340 338 341 337 338 335 338 338 339 340 340 344 345 346
330 331 335 339 339 337 342 342 344 341 340 341 344 343 342 345 346 348 347 349 348 350 351 348 345 344 344 344 345 341 341 341 339 332 333 327 329 333 334 339 340 340 345
330 330 333 335 338 337 343 342 345 341 341 343 345 344 345 341 341 343 346 351 350 352 347 348 349 346 346 344 342 339 337 338 335 336 334 328 325 327 330 334 337 337 338
333 332 332 335 337 338 344 345 346 343 342 346 343 341 340 338 339 342 345 351 351 350 351 349 347 345 342 342 346 349 345 340 337 335 340 337 336 327 322 330 332 332 337
333 333 331 335 337 341 344 345 345 345 344 347 345 342 341 345 343 345 344 348 349 350 351 351 347 342 341 342 342 346 344 346 342 338 340 339 341 338 329 322 326 331 335
333 335 336 338 337 341 343 347 345 344 341 345 347 344 340 341 339 341 343 346 347 349 352 351 348 349 346 346 342 343 344 343 344 344 341 339 333 334 335 328 324 326 330
334 333 335 337 338 339 342 347 345 342 342 343 346 345 341 335 337 341 343 343 345 346 346 349 348 346 346 345 345 347 345 344 340 344 341 343 342 342 339 337 331 329 332
335 333 335 337 338 339 342 343 346 343 344 344 346 346 343 341 338 341 344 344 345 346 349 350 350 349 349 348 347 345 346 345 345 340 341 343 341 343 342 337 333 331 334
334 336 336 339 340 340 342 342 345 346 345 345 345 346 346 344 343 343 341 342 344 347 349 352 351 351 348 347 349 344 344 346 344 343 344 342 341 340 345 342 340 333 327
325 331 333 335 339 342 342 342 343 346 347 346 346 348 346 347 345 343 339 344 343 350 347 349 350 350 350 349 349 346 344 343 343 341 340 342 345 340 345 345 343 340 334
321 323 328 334 338 339 340 340 340 342 339 341 341 347 349 348 347 347 347 348 346 347 346 344 343 344 346 350 349 346 346 345 343 342 346 344 347 345 346 345 343 343 342
318 320 321 327 332 333 337 338 338 337 338 340 341 343 345 347 348 348 348 347 345 344 343 340 338 338 343 347 348 346 348 346 344 345 343 345 347 345 347 345 344 344 344
315 316 319 320 324 328 332 335 337 337 338 337 338 341 340 345 345 346 348 349 346 345 343 340 338 337 340 344 349 348 347 346 347 345 344 345 343 342 344 343 342 343 347
312 315 316 317 319 322 325 330 333 336 337 336 337 337 337 336 338 343 345 347 346 345 342 339 338 339 341 346 349 349 347 349 349 347 347 347 346 344 343 344 342 342 342
309 311 314 316 318 318 322 323 325 328 332 333 334 335 338 338 341 340 338 339 345 350 344 344 345 345 348 350 348 350 347 346 346 349 350 350 350 346 344 347 344 343 342
310 312 313 315 317 317 317 323 322 323 324 324 325 329 332 334 336 340 339 339 340 346 349 348 349 350 355 342 341 348 348 345 346 345 346 348 347 346 342 340 341 344 343
310 312 313 314 314 317 319 317 320 322 322 322 323 324 324 325 326 333 337 335 337 341 345 347 348 348 349 339 336 338 346 348 348 348 347 346 350 346 349 343 337 336 336
309 310 313 313 314 317 317 319 321 321 322 322 324 324 323 324 326 327 327 330 336 337 339 343 345 346 350 334 331 333 339 343 349 351 350 348 348 348 347 346 346 346 343
305 308 310 308 308 309 312 315 315 316 316 317 319 320 322 321 322 324 325 327 330 329 332 335 340 341 345 331 326 330 340 340 340 344 349 352 352 341 331 344 347 348 350
307 306 307 307 308 308 311 309 308 309 310 312 314 316 317 317 317 318 320 324 326 328 330 331 334 332 339 331 326 328 340 341 342 344 344 334 343 332 329 341 345 343 346
306 306 306 305 305 306 307 305 305 305 308 310 311 312 313 313 313 314 315 317 320 323 326 328 332 334 334 336 325 323 338 345 346 340 346 347 328 321 321 324 348 347 347
305 305 304 304 305 305 304 303 304 306 306 306 306 307 308 310 311 310 310 312 312 313 316 319 322 329 334 326 326 321 318 329 342 346 349 348 323 315 314 318 323 322 324
301 302 302 303 304 304 303 302 303 303 303 301 301 302 304 304 305 305 307 308 309 309 310 311 311 314 320 324 324 317 319 321 330 337 333 322 316 314 321 321 319 319 329
300 301 301 301 300 302 302 301 301 301 300 298 298 299 299 300 300 303 305 305 306 306 305 305 305 307 310 313 320 318 322 325 325 327 331 328 325 321 327 329 335 331 333
300 301 300 299 299 300 300 300 300 299 297 297 297 296 297 296 297 299 300 302 303 303 303 304 305 305 306 309 305 303 307 311 316 309 320 324 327 329 334 341 343 344 342
300 299 298 299 298 299 299 299 299 298 296 295 295 295 295 295 296 296 298 301 301 300 299 298 299 304 303 301 299 297 298 298 300 309 315 318 323 326 328 333 340 345 343

GFSMW_sfc_thetae_087.txt.gz
Theta_e
334 339 341 343 342 342 340 341 340 340 342 340 340 339 339 339 344 345 345 346 347 349 345 344 345 344 342 340 341 340 337 338 336 336 334 333 337 337 338 339 341 343 344
333 338 339 341 341 340 340 338 340 339 341 341 342 342 340 341 344 346 345 346 348 348 348 345 342 342 342 341 343 341 338 337 337 331 330 325 327 331 333 335 338 339 343
329 335 338 339 340 339 339 339 340 338 339 342 344 343 342 340 341 343 345 347 349 349 349 346 345 343 345 342 341 339 336 333 335 333 332 326 322 326 328 332 336 337 336
329 334 337 337 337 338 341 340 341 337 338 343 342 341 339 337 339 340 344 347 350 349 349 347 347 343 340 342 344 349 342 338 336 335 339 335 333 323 320 327 331 332 332
328 332 335 337 338 340 342 342 342 338 340 342 341 340 338 339 342 344 340 345 347 349 350 348 344 342 339 341 342 343 342 343 340 337 338 336 336 335 325 321 325 328 333
330 332 335 337 338 340 343 343 342 340 342 343 341 340 339 340 339 339 341 344 345 347 349 349 345 343 340 341 341 344 342 341 343 340 341 337 333 335 333 328 324 323 328
331 331 333 334 336 337 342 343 341 339 341 343 343 343 340 340 339 340 341 344 343 344 346 347 345 345 344 345 343 343 344 341 338 340 339 341 339 340 337 335 331 326 330
332 333 333 335 337 338 341 343 341 340 339 340 343 343 341 337 336 340 342 342 343 345 347 348 347 346 347 344 344 345 345 344 344 340 341 341 341 340 341 336 331 329 330
333 333 335 337 337 338 340 343 343 341 341 340 342 343 341 340 337 338 342 343 344 345 346 348 349 348 347 345 346 344 342 343 343 341 342 341 343 341 342 341 339 331 326
325 330 333 337 338 338 341 342 345 344 344 341 341 343 343 343 342 342 340 340 342 343 346 348 349 348 347 345 345 344 343 342 341 340 339 338 344 343 345 343 341 337 332
323 325 328 337 339 341 342 342 341 343 340 343 343 344 344 344 343 343 342 340 341 344 348 346 346 347 346 347 346 345 344 342 341 340 342 343 343 344 347 346 341 341 339
320 322 325 329 335 338 340 341 340 338 338 339 340 342 344 345 344 344 345 345 346 344 343 344 342 342 342 345 346 346 347 344 342 342 341 341 346 342 344 345 344 342 342
316 320 323 324 326 331 337 338 338 337 338 338 338 338 336 339 342 344 346 347 345 343 342 342 339 338 337 342 345 346 345 344 344 343 342 342 342 340 339 342 340 340 343
314 316 318 320 323 324 327 334 338 339 338 338 338 336 336 336 337 337 338 341 345 345 342 341 340 337 337 339 344 346 345 345 346 347 344 341 343 342 342 341 341 340 340
312 314 315 317 319 321 323 326 329 332 336 336 336 335 337 337 339 339 338 338 339 343 347 343 340 339 339 342 341 345 347 344 344 346 347 347 346 345 343 344 342 341 339
309 312 314 315 316 318 321 324 323 325 326 327 329 332 333 332 333 338 337 336 337 339 339 344 345 344 348 338 337 344 346 347 344 343 344 345 345 344 339 337 338 343 342
310 312 313 315 316 317 317 318 320 322 322 322 324 325 326 325 325 327 328 333 334 334 335 338 343 345 346 335 332 338 346 347 346 345 345 346 349 343 346 341 336 335 334
311 312 312 312 314 317 319 319 320 319 320 320 321 323 324 324 325 326 325 326 328 328 329 330 333 338 343 330 327 331 338 341 342 346 347 346 346 345 345 345 344 344 345
309 308 309 310 312 313 314 312 312 312 312 313 314 316 317 317 317 317 319 322 323 325 327 330 331 332 333 327 324 328 338 340 341 341 343 348 348 339 331 340 343 345 346
306 306 306 307 307 306 307 307 306 307 307 309 310 312 312 314 314 313 315 317 319 323 326 327 329 328 331 326 322 324 337 339 340 343 343 331 337 330 326 339 344 343 344
305 305 305 305 304 304 306 304 303 303 305 306 306 306 307 308 309 311 311 312 313 315 317 321 325 326 327 329 317 316 331 337 340 342 343 345 329 318 316 316 339 342 341
304 304 303 302 302 303 304 301 301 301 302 302 302 302 302 304 304 304 307 309 309 309 310 309 313 317 314 314 314 311 311 317 331 337 342 340 322 314 313 316 319 317 321
303 303 303 301 301 302 301 299 299 300 300 299 298 298 299 300 300 300 302 304 305 305 304 305 305 307 314 312 312 309 308 311 316 328 324 317 313 311 316 320 320 318 330
301 301 300 299 299 300 300 299 299 299 298 297 296 297 296 296 296 299 300 300 301 302 302 303 302 303 305 306 308 307 305 308 309 311 311 313 316 316 319 321 328 333 334
299 300 298 298 298 298 298 298 298 297 295 295 295 295 295 294 295 296 297 298 299 299 299 300 300 300 301 303 302 299 301 302 303 301 308 314 315 316 319 323 330 337 339
298 298 297 298 297 298 297 297 297 296 294 293 294 294 293 293 294 294 294 299 299 299 297 296 297 301 300 299 297 295 296 297 298 301 307 310 312 316 318 320 322 325 330

GFSMW_sfc_thetae_090.txt.gz
Theta_e
335 336 339 342 342 341 341 341 339 339 341 341 341 341 341 343 346 348 347 350 351 352 350 348 350 349 349 346 349 348 344 345 344 342 342 340 341 343 344 345 345 347 349
332 335 338 341 341 340 341 340 339 340 341 342 342 343 342 344 347 349 348 350 350 352 350 348 348 348 348 347 349 347 344 343 343 340 337 333 336 339 339 340 343 344 346
330 334 337 338 340 339 340 340 340 341 342 343 344 343 344 343 344 347 349 350 351 350 353 350 349 349 350 348 349 345 345 341 342 341 340 335 331 332 337 340 341 344 344
333 336 336 337 338 340 342 341 340 340 341 344 343 343 341 340 342 345 348 350 353 352 352 351 350 349 347 350 350 352 348 345 343 343 343 342 340 335 330 337 338 340 341
332 335 337 338 340 341 341 341 341 338 340 343 344 342 341 342 344 345 345 349 352 352 353 351 350 348 347 348 350 350 350 349 346 344 344 343 341 340 333 333 334 338 340
329 336 339 340 339 340 341 341 340 338 340 342 342 342 341 342 343 344 343 346 350 351 352 351 349 348 346 347 349 352 349 348 350 346 347 346 343 344 340 337 336 331 339
328 333 335 336 338 338 342 343 340 338 340 342 342 341 342 344 343 343 344 345 347 349 351 352 350 349 350 349 348 351 352 348 347 347 347 347 346 347 344 341 339 335 339
329 331 334 336 338 338 342 342 341 340 341 343 344 343 343 343 342 344 345 346 347 349 352 352 352 351 350 348 349 350 350 351 350 348 349 347 346 347 347 344 340 338 338
332 332 334 336 337 339 340 342 342 341 341 343 344 344 343 341 340 341 346 347 348 349 351 351 351 351 351 350 350 349 349 350 349 349 348 348 348 348 347 348 346 341 336
328 333 334 335 337 339 341 344 343 341 342 342 342 345 344 343 343 344 343 345 347 349 348 350 350 350 351 351 350 350 349 349 347 346 347 347 348 351 352 349 348 344 341
325 327 330 337 338 340 342 343 345 345 342 343 344 345 345 346 347 345 345 345 345 345 346 348 350 351 349 351 349 350 349 348 347 347 348 349 351 350 352 352 348 349 347
322 325 328 331 338 339 341 341 341 341 341 341 342 344 347 347 348 345 347 349 347 347 346 348 349 349 350 350 351 350 351 348 347 347 347 347 347 350 352 352 351 350 350
319 322 326 328 330 336 339 339 339 339 339 339 338 337 337 340 341 344 347 348 349 348 346 346 345 344 344 346 349 350 348 349 347 349 348 348 348 348 348 347 348 347 348
317 319 321 324 326 329 333 337 337 338 339 338 338 337 338 339 339 339 340 341 346 348 347 346 345 345 343 342 344 348 349 349 348 348 350 349 348 349 350 348 348 347 347
314 317 318 320 322 325 327 331 331 334 338 338 339 337 337 338 340 340 340 340 341 342 346 348 346 345 343 342 343 346 349 350 350 350 351 351 349 344 345 351 352 349 347
312 314 316 318 320 322 324 326 327 328 330 330 332 335 333 331 333 336 337 337 338 339 342 342 346 347 349 337 334 343 349 351 350 350 351 351 345 345 338 337 338 347 351
311 313 314 315 316 317 320 321 322 325 325 325 326 327 327 326 327 328 329 332 331 333 333 334 336 339 343 329 328 333 343 349 351 352 351 351 352 348 351 339 334 335 334
311 311 312 314 317 318 317 317 317 317 318 317 318 320 321 321 324 324 323 325 327 329 330 331 333 335 336 327 324 328 339 343 347 350 351 351 352 352 351 351 351 352 352
310 310 313 314 313 312 313 311 311 312 311 311 312 314 317 315 316 316 318 320 321 325 325 329 330 332 332 314 315 323 337 343 344 347 347 348 350 339 330 347 348 350 351
309 309 309 311 309 309 310 309 308 308 306 307 308 310 311 312 312 313 315 317 318 321 325 326 325 321 324 312 311 318 326 331 339 346 348 333 337 327 322 340 346 345 349
306 307 306 305 306 306 306 304 304 303 304 305 305 305 306 307 307 311 311 312 314 314 315 316 318 319 315 314 310 309 312 313 324 334 338 340 320 316 315 315 337 341 343
305 305 303 303 304 305 304 301 301 302 303 303 303 302 302 303 303 305 306 308 308 309 307 310 310 312 313 313 309 308 308 311 314 317 320 322 315 311 313 317 320 319 320
303 303 302 301 302 303 302 300 301 302 301 300 300 300 301 301 302 302 302 303 304 304 304 305 303 304 307 308 308 306 307 308 310 313 311 309 307 308 315 318 317 318 330
302 303 302 301 301 301 301 301 301 301 300 299 298 299 299 299 299 300 301 300 300 300 300 301 300 302 304 306 305 304 305 306 307 309 308 309 310 312 316 320 327 331 334
303 302 301 300 300 300 300 300 300 299 298 298 297 297 298 297 298 299 298 299 300 299 299 300 300 300 300 301 300 298 300 302 303 302 309 314 316 316 319 321 324 328 331
302 300 300 300 299 299 299 299 299 298 297 297 297 297 297 297 297 297 297 299 298 298 296 296 297 301 299 297 295 294 295 296 298 305 308 308 310 312 314 316 318 321 323

GFSMW_sfc_thetae_093.txt.gz
Theta_e
341 343 344 346 348 350 351 352 353 354 352 351 351 351 350 355 356 355 359 359 361 358 363 358 359 360 359 357 360 358 356 352 353 350 350 351 353 355 356 357 356 355 356
339 340 343 345 347 349 351 353 353 354 353 353 353 354 354 354 357 358 358 359 360 361 361 360 358 359 356 359 359 358 353 352 352 346 349 340 343 347 348 352 352 355 357
337 339 341 344 346 348 350 352 354 354 354 355 354 354 354 354 354 355 355 356 359 359 362 360 359 360 360 356 359 357 356 348 353 353 347 342 336 342 347 349 352 356 355
338 340 341 343 344 347 351 353 354 353 353 356 354 355 354 355 352 353 356 357 359 358 360 360 360 362 360 360 360 361 358 357 351 355 353 354 352 343 338 347 350 351 351
337 339 341 344 345 348 349 351 353 353 353 355 356 353 357 353 353 354 357 359 361 360 360 360 361 359 357 361 361 361 362 357 354 352 355 355 353 355 349 340 342 349 351
336 340 339 343 345 347 348 349 352 352 355 354 355 356 354 356 352 353 352 354 357 359 361 359 361 359 358 359 360 361 360 359 358 355 354 352 349 349 349 348 350 344 349
335 339 339 341 344 345 345 343 351 351 352 353 354 355 355 356 357 356 353 353 356 360 359 361 360 357 359 358 359 363 361 358 355 356 352 354 353 356 354 352 350 345 350
335 338 341 341 338 340 345 345 348 351 352 351 353 356 357 352 354 356 356 354 358 363 363 362 361 360 360 359 360 356 358 362 359 356 360 357 356 355 354 353 350 347 349
333 336 341 343 343 339 344 348 348 350 350 350 352 354 355 355 354 356 358 357 359 356 360 361 361 361 361 360 358 355 358 360 359 358 359 356 356 359 357 357 356 349 342
334 336 339 342 344 342 341 346 345 349 351 350 351 356 357 357 356 355 353 356 358 358 359 359 360 360 361 361 360 357 358 359 357 355 357 357 355 357 360 359 358 356 351
331 333 338 340 342 341 341 344 346 350 349 345 348 352 356 356 356 355 356 356 356 356 357 358 357 359 360 359 360 360 359 357 358 357 357 357 360 354 357 360 358 355 355
328 330 334 339 341 342 342 343 346 349 349 350 346 346 353 355 356 356 356 357 356 357 357 357 357 357 357 361 360 357 355 357 356 357 356 355 353 358 359 356 360 357 358
325 327 331 334 340 342 343 341 342 344 343 342 340 341 343 354 356 356 357 357 358 359 358 357 356 357 356 357 358 359 358 357 357 357 357 356 357 357 354 356 353 352 354
323 324 326 328 332 341 342 344 343 344 343 341 340 340 343 346 349 350 352 353 357 359 359 359 358 356 355 354 353 354 356 357 358 359 359 359 357 358 359 357 359 356 354
320 322 322 324 327 330 334 337 340 341 340 339 338 339 341 345 346 348 348 349 350 352 357 358 358 357 354 352 352 352 352 354 356 357 358 359 355 347 349 354 361 361 358
318 319 320 322 323 325 328 329 331 333 340 340 339 339 341 335 335 344 345 345 345 346 349 351 352 352 348 331 333 343 353 355 356 357 359 360 349 350 338 337 338 349 358
317 317 318 317 319 321 323 324 326 328 328 329 330 331 332 333 331 332 335 337 338 339 339 340 344 345 342 324 325 331 354 356 360 360 361 360 356 353 360 342 335 336 334
319 319 320 318 317 318 318 318 320 321 321 320 320 322 324 325 329 330 328 329 332 334 335 336 338 333 321 316 321 327 348 352 355 357 358 360 360 359 357 359 358 360 362
319 320 322 319 315 314 315 314 312 313 314 314 315 317 318 318 319 320 323 325 328 330 332 333 338 325 317 312 314 333 344 346 348 351 353 354 355 325 324 351 356 358 358
316 317 315 314 314 313 312 310 309 308 307 309 310 312 312 313 314 316 320 323 326 328 328 326 324 318 314 310 310 318 325 326 335 344 339 325 320 316 317 336 348 350 355
315 314 316 313 310 311 313 310 310 307 308 309 311 312 312 309 312 315 317 317 318 320 321 320 321 318 317 310 308 308 314 315 320 323 324 324 317 313 312 316 334 335 332
315 316 315 315 315 315 312 309 307 308 309 309 309 310 310 310 309 312 313 313 313 313 315 316 314 313 313 308 307 307 307 308 313 313 315 316 308 306 308 315 319 315 318
313 314 313 312 312 312 313 311 309 310 310 309 308 309 309 308 309 309 309 310 310 308 306 308 309 309 311 310 307 306 307 308 308 310 310 309 307 307 314 316 316 315 331
311 312 311 311 310 311 311 310 309 309 309 308 307 307 307 307 307 307 307 307 306 306 307 306 304 304 306 306 306 306 306 308 309 307 311 312 310 310 315 320 324 328 330
311 312 311 311 310 310 309 308 308 308 306 306 306 306 306 306 305 305 305 306 305 304 305 304 305 304 302 300 298 297 301 302 303 304 313 313 314 315 317 319 321 322 325
311 311 311 311 309 309 308 307 307 307 306 305 305 305 305 305 305 304 303 298 299 297 295 296 299 304 297 295 294 293 293 295 297 307 308 309 310 311 311 313 315 318 320

GFSMW_sfc_thetae_096.txt.gz
Theta_e
341 344 345 347 349 349 352 355 355 360 361 358 352 352 351 355 355 357 362 362 361 361 365 357 360 363 359 360 363 358 356 349 353 348 345 346 350 351 353 355 355 354 356
339 343 345 347 348 350 351 354 357 360 360 357 358 355 355 355 357 358 362 361 361 363 362 362 359 362 356 363 363 361 352 351 354 346 346 338 340 345 347 352 352 354 354
339 342 344 346 348 350 353 355 358 360 360 360 358 361 362 360 361 357 357 359 361 362 363 362 362 361 361 355 362 360 359 346 354 358 348 339 336 341 346 348 349 353 353
341 343 344 345 347 349 354 357 359 360 360 362 357 357 362 356 359 355 357 358 362 360 361 363 362 363 360 361 361 360 360 360 350 354 355 360 357 341 336 343 346 351 350
339 341 344 347 349 350 352 356 359 361 360 361 360 354 352 361 352 355 364 362 363 362 360 364 363 364 358 364 364 363 364 358 354 351 356 359 357 358 344 336 339 346 351
339 342 345 348 349 350 352 354 358 360 360 360 360 359 355 354 361 359 355 355 357 360 361 362 363 365 362 362 361 366 363 362 360 357 357 352 349 348 349 345 345 343 347
339 340 343 345 348 350 351 353 356 357 359 358 358 359 358 358 356 360 360 355 362 360 361 364 364 360 364 362 363 362 363 361 358 361 355 358 355 356 355 351 345 344 349
339 340 342 341 344 350 350 348 353 357 358 358 360 361 361 353 357 356 355 363 358 355 362 360 360 362 362 362 364 358 355 359 357 357 361 355 358 358 356 353 350 343 344
341 341 344 347 349 346 348 346 347 353 357 357 358 359 362 360 355 359 359 367 366 359 360 359 358 359 360 362 364 355 360 362 360 358 359 356 354 356 358 358 355 349 341
342 342 344 346 345 344 345 346 351 351 354 355 357 357 355 356 356 359 360 361 362 364 361 359 358 359 359 363 365 358 360 361 357 355 357 358 352 353 354 354 353 353 349
341 342 345 348 349 345 343 344 345 348 353 354 356 356 356 354 355 355 356 358 360 363 363 362 358 359 357 359 361 361 359 359 359 360 358 358 360 352 350 352 353 350 349
335 338 344 345 345 347 344 342 344 344 348 355 355 353 355 356 354 355 356 360 358 364 363 362 362 361 359 360 359 357 357 358 356 355 357 357 352 358 358 352 359 357 357
331 334 339 342 345 344 342 342 345 349 350 348 349 350 350 353 355 356 356 359 360 360 357 358 358 360 360 359 361 362 359 357 356 356 356 356 356 357 352 353 351 349 350
329 328 331 338 341 344 346 346 346 347 347 345 344 343 344 347 351 354 357 358 360 361 357 358 358 359 361 361 360 360 360 359 357 358 357 355 356 358 358 358 358 358 355
331 328 326 329 331 338 347 348 347 348 350 345 342 344 346 348 350 353 355 358 359 358 361 361 361 362 360 357 360 359 358 357 357 357 358 358 355 349 350 354 362 363 354
328 327 325 327 327 328 334 342 345 346 350 345 344 344 347 346 345 347 350 351 352 355 357 357 359 360 356 327 332 345 358 359 358 358 361 360 353 351 341 339 339 348 360
328 326 324 324 325 325 327 328 330 334 335 336 337 337 339 341 339 335 337 344 347 349 348 351 353 342 338 319 323 331 356 360 360 360 361 357 352 354 358 343 337 338 335
323 325 322 321 320 319 319 324 323 324 325 326 325 328 331 333 335 333 334 337 340 347 348 346 346 335 321 314 318 326 351 357 359 360 360 360 359 332 342 358 357 358 360
329 326 325 320 318 317 317 316 317 319 318 320 322 321 321 323 329 331 335 339 341 342 342 344 337 329 321 311 312 328 351 352 355 350 339 344 341 318 319 352 357 358 358
329 329 324 317 315 314 315 312 311 311 311 314 316 318 320 320 321 324 324 329 331 336 337 337 331 319 322 308 309 317 335 339 343 348 339 320 321 312 313 338 346 349 352
325 325 323 319 317 315 312 310 309 308 308 311 312 314 315 316 318 320 321 324 330 331 331 330 329 325 319 313 307 308 311 313 326 334 335 333 312 308 307 310 334 336 331
322 320 317 314 313 316 317 312 309 310 312 313 312 313 315 314 317 319 319 323 323 323 326 325 322 322 321 307 307 307 307 309 311 313 316 318 308 306 307 312 316 314 317
320 321 320 320 320 317 315 311 312 314 314 312 312 312 314 319 319 318 315 314 319 317 315 316 317 319 317 316 307 307 308 310 313 314 310 308 306 307 313 312 316 315 333
321 321 320 319 318 319 318 318 317 316 315 313 313 313 314 316 318 317 317 317 314 314 315 315 312 313 315 310 307 305 309 310 312 312 315 315 312 311 316 319 323 327 326
320 320 320 319 318 318 317 316 316 315 314 312 313 313 312 314 313 313 311 313 309 306 312 313 314 312 312 303 297 297 301 304 304 304 316 316 316 316 318 319 320 322 323
321 320 320 319 318 317 316 315 314 313 312 311 310 311 311 311 312 310 307 298 299 297 295 295 299 306 296 295 294 293 293 294 297 310 310 311 311 313 314 315 316 317 319

GFSMW_sfc_thetae_099.txt.gz
Theta_e
337 341 342 344 346 349 351 352 357 359 358 356 351 354 352 355 355 358 361 361 360 361 364 359 359 360 363 361 358 354 357 346 350 351 344 345 349 350 350 352 353 354 351
336 339 341 343 344 347 351 354 357 360 361 356 358 359 354 358 358 359 361 362 360 362 361 365 360 363 356 360 360 361 353 345 349 346 346 336 341 345 346 350 351 353 350
336 338 340 342 345 348 349 353 357 361 360 357 362 361 361 361 356 358 357 359 361 360 363 363 362 361 365 355 360 357 360 350 348 359 352 341 339 339 345 348 349 353 350
334 339 340 342 343 349 353 355 357 360 361 360 362 357 361 358 353 353 357 360 361 359 360 362 361 365 362 371 363 357 363 361 346 346 350 358 357 345 336 342 347 349 349
337 338 340 343 345 349 351 354 358 360 361 361 364 355 356 359 357 354 360 357 364 361 358 361 362 363 359 363 370 362 366 354 356 352 348 356 349 353 344 337 340 346 348
337 341 341 345 345 348 352 353 358 360 361 361 360 358 353 356 358 356 359 355 357 358 361 361 363 365 364 363 361 364 363 368 364 358 357 351 346 348 351 342 343 342 346
337 338 340 340 346 347 351 353 358 359 360 359 358 357 357 358 356 359 351 348 350 353 363 363 362 361 365 362 364 365 364 361 361 365 355 350 351 351 352 348 347 340 345
335 337 342 341 348 348 350 353 357 359 359 358 359 360 359 353 352 356 360 353 351 353 365 362 361 361 363 362 363 357 355 364 357 359 367 356 352 353 351 350 347 344 341
336 338 341 347 349 350 352 354 358 359 358 357 359 360 360 359 357 358 360 357 363 359 360 360 359 360 361 362 363 355 358 358 361 361 361 357 352 350 353 353 350 346 338
341 339 344 347 346 345 354 351 351 355 358 358 357 358 358 358 357 358 358 360 355 361 362 358 358 359 359 361 363 361 362 361 357 355 363 360 353 354 351 351 351 350 346
342 346 346 348 351 351 351 348 352 353 356 357 359 360 357 358 359 356 356 358 360 362 359 361 359 359 359 360 364 364 361 360 361 362 360 358 365 353 350 353 351 349 348
344 345 346 348 348 348 342 345 344 346 346 352 357 357 355 357 357 355 356 358 359 360 360 361 361 361 359 362 362 358 357 358 357 356 357 356 352 365 365 351 361 353 357
342 344 345 347 350 347 346 347 346 344 346 347 354 352 355 355 357 359 357 358 358 360 358 360 360 359 361 362 362 362 360 358 357 356 356 356 356 360 355 360 354 350 349
335 337 340 343 346 349 349 348 347 347 349 349 345 346 347 348 350 352 353 354 361 359 359 359 361 359 359 359 360 360 360 359 357 358 357 357 356 359 361 355 365 359 354
333 331 333 336 342 347 348 349 348 348 350 349 350 349 346 348 349 349 353 355 359 358 359 359 360 360 358 351 349 360 359 360 359 359 358 359 356 350 350 354 365 363 357
332 332 329 331 331 336 347 350 351 348 350 351 350 350 351 353 351 353 351 353 355 356 358 358 359 358 341 326 328 341 361 359 359 357 360 363 353 351 343 341 341 348 357
330 330 330 329 329 328 333 338 344 351 349 347 346 348 348 348 348 349 349 345 348 355 353 354 350 342 332 317 320 330 348 357 362 363 362 357 353 353 358 344 338 339 336
330 332 329 325 323 321 324 327 327 333 338 337 336 337 338 339 341 343 343 338 343 348 351 350 345 336 321 313 316 322 344 354 359 358 359 360 353 331 334 350 357 357 359
332 332 330 325 321 318 317 319 320 320 321 327 327 329 332 335 336 336 342 342 345 346 347 347 342 334 322 310 312 325 350 355 354 349 344 352 346 316 316 345 353 357 360
330 329 326 321 318 316 317 314 313 317 314 314 317 327 325 326 329 333 335 339 341 342 342 336 336 321 326 308 309 316 329 342 339 352 333 315 318 311 310 327 341 346 350
329 327 324 318 315 315 315 313 312 309 312 313 316 317 320 321 323 325 325 327 334 338 338 336 333 324 317 311 308 308 321 316 319 320 321 326 312 308 308 308 327 334 324
327 327 326 323 318 317 313 310 310 314 313 314 314 316 317 317 319 323 323 327 328 329 331 332 329 327 325 308 307 307 307 310 315 319 318 314 308 306 307 312 314 312 317
326 325 322 320 320 321 323 312 312 314 314 314 313 314 317 318 319 323 321 319 323 322 323 322 321 322 323 321 308 308 308 311 312 319 313 308 306 306 310 314 314 315 326
325 325 324 322 321 319 318 317 320 320 318 317 315 315 315 317 320 318 318 318 317 317 318 316 317 317 318 313 308 308 311 313 313 314 315 316 313 310 313 316 322 325 325
325 325 322 322 322 323 322 321 318 317 315 316 315 315 314 314 316 316 310 311 309 305 307 316 315 315 315 303 297 297 301 303 306 304 317 318 318 318 319 319 320 321 321
325 324 324 323 322 322 321 320 320 319 317 315 314 314 314 314 314 313 309 298 298 297 296 295 299 305 297 295 295 293 293 294 296 309 312 313 313 313 313 314 315 317 318

GFSMW_sfc_thetae_102.txt.gz
Theta_e
334 338 341 344 345 348 351 352 352 359 356 357 350 355 355 354 358 354 365 367 367 368 369 365 365 356 355 362 362 360 359 358 358 359 352 349 351 352 353 354 353 355 356
333 337 339 342 343 347 351 356 360 362 362 363 363 359 352 362 359 362 366 366 361 367 366 363 362 348 356 367 365 366 361 354 356 351 349 342 346 347 348 354 353 353 350
331 337 339 338 344 348 352 353 353 363 363 365 355 359 350 362 352 362 363 363 361 366 363 364 357 361 354 356 363 366 363 355 353 360 352 342 337 343 347 349 353 352 354
335 339 338 339 342 347 351 358 358 361 360 355 355 358 355 343 357 360 349 353 366 362 365 365 360 361 351 350 360 366 364 363 355 353 353 359 350 345 341 348 349 353 351
335 334 337 337 345 347 348 354 360 363 365 364 365 361 359 358 356 354 351 354 361 364 362 366 365 364 360 356 351 360 368 365 360 354 355 354 357 357 341 340 342 349 353
332 336 338 340 346 348 350 354 359 362 366 364 363 361 364 356 354 345 353 354 361 363 368 362 370 369 353 355 363 366 366 368 365 362 356 339 335 331 338 342 343 345 348
335 337 338 339 343 347 350 354 358 359 362 361 361 362 361 361 360 360 350 356 347 346 354 371 365 364 365 363 366 364 366 366 362 363 359 342 337 336 338 347 341 341 345
337 337 338 337 344 349 353 352 357 359 360 359 362 364 367 358 359 362 356 348 348 347 355 363 364 366 365 365 366 365 362 365 363 362 363 362 355 351 356 350 341 339 337
334 337 337 342 339 339 349 351 356 357 360 359 363 365 366 366 364 364 371 361 349 348 345 339 360 363 359 363 361 363 362 352 350 356 364 362 355 351 354 354 353 344 332
334 336 337 338 335 337 345 353 359 357 358 355 360 360 361 363 366 367 364 361 345 340 342 344 355 362 361 364 367 364 360 359 352 356 360 360 360 358 353 355 350 350 343
337 337 338 344 335 337 351 352 355 355 358 356 354 362 361 361 362 364 365 367 349 344 343 353 361 358 364 365 364 364 363 357 356 359 358 357 361 358 356 354 350 350 350
339 336 340 343 346 346 352 349 348 349 352 352 355 357 351 354 359 354 348 360 364 362 364 366 361 362 360 361 361 361 359 358 357 358 361 359 352 359 362 358 356 356 356
342 342 343 347 351 350 349 350 348 348 347 352 352 352 357 356 359 357 349 349 358 365 364 365 360 357 360 358 359 361 360 359 360 360 358 359 356 357 357 358 356 354 353
342 345 346 347 348 351 350 348 348 348 348 347 348 349 349 351 350 352 355 356 357 356 355 361 358 357 361 359 359 359 359 360 360 361 362 361 360 357 357 355 356 354 354
335 340 338 341 346 349 350 351 350 349 347 346 347 348 350 346 347 349 348 351 350 352 353 355 359 345 342 336 339 346 353 355 358 360 359 359 351 348 347 356 357 356 353
333 334 335 338 336 342 347 348 348 347 350 349 347 349 351 350 350 349 348 347 347 349 350 350 352 342 334 323 326 333 352 358 356 358 361 363 351 352 341 340 340 346 352
331 332 332 332 330 331 338 339 350 351 351 351 351 350 350 351 350 350 350 349 346 345 345 346 340 326 320 316 319 325 341 354 356 356 358 355 347 335 339 346 339 339 336
330 331 329 327 324 324 327 327 330 339 340 339 345 346 347 345 345 345 344 344 346 342 343 343 337 329 315 313 316 323 339 350 356 356 355 353 333 321 321 336 351 356 359
331 330 328 324 321 319 321 322 321 321 326 327 329 334 338 338 338 340 343 344 343 339 344 345 339 329 315 311 311 325 339 356 352 343 325 337 324 315 315 335 340 345 352
328 326 323 321 318 317 318 317 318 317 314 315 318 326 329 332 333 334 335 340 344 346 340 336 333 325 318 309 309 312 328 332 331 336 326 315 313 311 311 322 327 334 337
327 325 321 317 315 316 315 313 312 312 314 316 317 318 320 325 328 330 332 334 334 342 339 335 329 321 318 311 309 308 317 315 324 325 322 322 311 308 308 309 320 328 319
326 325 320 317 317 317 316 313 312 314 315 315 316 319 320 321 319 326 328 330 330 332 333 335 334 328 319 311 308 308 308 311 315 321 325 319 308 305 306 311 315 312 316
326 327 323 320 318 318 316 313 312 317 316 315 315 314 317 319 321 322 322 323 325 322 326 326 327 326 320 311 308 308 309 312 314 317 312 309 307 306 309 312 314 315 326
325 324 322 320 320 323 323 317 316 316 316 316 316 315 315 315 319 319 320 319 321 320 322 323 322 325 323 317 311 307 306 309 311 308 310 313 313 312 313 316 327 327 328
326 326 326 323 321 322 319 320 323 323 319 319 317 318 317 316 316 303 301 307 297 298 303 305 313 311 309 301 296 297 301 302 302 299 310 320 319 317 316 317 316 319 317
327 327 327 326 325 325 325 324 323 323 320 317 315 315 315 315 317 312 305 298 298 297 295 295 300 301 297 296 295 294 294 295 296 307 318 317 318 315 315 313 313 312 312

GFSMW_sfc_thetae_105.txt.gz
Theta_e
330 336 339 341 340 340 343 349 346 347 345 344 344 344 341 346 350 349 355 352 353 354 353 352 346 334 347 348 349 350 349 347 347 342 340 337 340 343 345 348 348 347 349
329 334 338 339 339 341 344 348 348 346 348 349 350 348 344 349 350 352 353 353 351 352 355 351 348 347 348 349 349 348 350 344 343 338 340 330 334 340 342 344 347 345 348
329 333 336 337 340 342 347 348 350 350 349 349 348 348 349 349 343 347 349 351 355 353 353 348 348 346 342 335 342 350 349 345 345 344 342 333 331 332 336 336 342 340 344
331 333 335 337 339 342 346 348 351 350 350 351 344 345 343 338 344 345 346 347 353 354 354 346 347 344 333 329 340 354 352 350 346 347 347 345 342 334 328 338 340 340 344
332 332 333 337 340 345 345 347 349 350 350 348 349 346 342 344 347 347 346 341 348 355 353 354 353 346 343 346 347 346 353 352 349 347 343 341 338 333 337 331 335 341 345
336 334 336 336 341 344 349 347 348 348 350 349 348 346 345 345 342 341 345 346 348 349 350 354 352 347 339 335 344 352 352 352 350 347 339 334 331 329 336 332 330 332 340
333 334 334 335 338 339 345 350 349 348 350 350 347 347 348 347 344 341 342 346 344 342 345 348 351 350 343 342 349 348 348 352 350 351 342 336 334 333 336 340 337 328 336
335 336 332 335 339 341 346 347 349 349 349 351 349 348 350 348 347 349 345 344 343 346 348 349 350 351 352 352 351 348 350 349 346 345 349 345 343 336 337 337 330 326 335
334 335 338 337 343 341 346 349 349 349 351 349 351 348 351 348 348 349 348 348 348 349 347 344 340 344 351 353 351 349 346 345 343 337 346 349 350 349 346 344 334 338 328
332 335 338 339 342 342 342 347 350 350 351 350 352 350 349 350 349 348 343 343 342 343 345 340 340 343 352 350 350 349 349 346 338 337 348 346 348 346 346 345 342 342 334
330 334 338 338 339 340 341 342 341 350 349 351 351 351 350 350 348 348 348 345 341 338 337 342 346 351 352 351 349 349 348 347 347 347 347 346 347 350 349 347 346 344 344
329 336 337 336 335 335 339 339 341 346 350 351 348 349 348 343 346 344 345 347 345 344 343 349 352 351 351 350 350 351 350 347 346 347 345 346 350 345 345 346 345 342 343
332 334 336 336 336 336 338 344 345 346 347 346 346 345 341 343 347 346 343 345 350 349 351 351 350 350 350 349 350 351 350 349 349 348 348 347 348 346 344 342 341 344 347
333 333 333 335 336 340 345 345 344 342 342 342 343 340 342 343 346 346 347 346 347 346 348 350 352 349 343 342 343 346 348 348 351 351 349 349 348 345 345 345 344 344 341
335 334 334 338 339 342 342 342 342 341 342 340 341 341 342 341 342 341 341 342 343 345 349 350 342 340 334 330 333 336 343 350 347 350 351 349 348 345 343 346 344 343 341
332 333 334 335 335 337 341 343 343 342 342 342 341 344 344 342 342 343 341 342 342 342 346 342 337 330 324 319 322 326 333 345 350 348 347 346 336 337 337 338 337 338 339
328 330 330 327 328 330 332 333 340 344 343 343 343 343 343 342 344 345 343 340 338 341 343 331 321 313 312 315 318 324 327 338 344 345 346 344 329 324 327 335 340 339 336
329 326 325 323 324 325 326 327 336 340 339 341 341 342 342 340 339 338 338 337 338 339 334 330 324 314 309 313 315 324 332 338 341 334 339 328 318 315 317 330 338 342 336
327 325 323 321 320 322 323 325 323 326 326 326 330 335 336 333 334 332 336 337 337 337 336 331 322 313 307 311 312 322 328 338 327 317 320 315 310 314 316 321 323 329 332
322 320 320 318 317 318 320 319 318 318 317 317 323 327 328 328 325 326 328 329 332 336 329 327 322 316 307 310 310 315 315 319 328 322 316 315 309 310 311 311 314 320 323
319 319 318 316 315 316 316 314 315 315 317 318 319 320 321 324 323 323 325 325 328 332 329 322 317 315 308 306 308 309 306 308 314 317 315 313 311 307 307 309 310 316 314
318 316 315 314 315 315 314 312 311 314 315 316 317 318 319 319 320 320 322 323 323 325 328 327 318 313 310 310 308 308 309 311 307 309 313 307 308 306 306 308 313 311 314
319 317 315 314 314 315 313 311 310 311 312 311 312 313 314 316 318 317 316 316 320 318 320 324 323 313 307 304 308 306 308 309 307 306 307 308 308 309 312 314 315 314 318
319 317 315 312 311 312 312 310 311 313 311 310 309 309 309 310 312 307 310 306 307 310 311 309 313 316 311 306 301 301 301 305 302 300 301 307 312 312 313 311 312 311 310
320 318 316 314 313 314 311 311 311 311 310 312 311 310 311 311 302 297 301 299 297 297 303 300 301 305 303 295 295 295 296 296 296 296 304 309 308 307 307 308 307 308 307
322 321 319 316 315 314 312 313 314 314 312 309 310 310 310 307 303 298 294 298 297 296 295 296 301 296 296 296 295 293 293 294 296 297 303 304 305 305 305 304 304 305 307

GFSMW_sfc_thetae_108.txt.gz
Theta_e
331 336 340 341 341 340 341 341 340 342 340 343 343 338 340 344 346 351 352 350 350 353 350 350 343 342 345 346 347 347 347 345 342 338 338 335 338 340 343 345 345 344 346
330 335 337 338 339 339 342 342 341 342 343 345 346 345 343 347 346 347 350 352 349 351 351 348 345 346 344 340 342 349 348 345 340 338 335 327 333 337 341 343 346 344 346
329 332 333 334 338 339 344 343 343 343 347 347 345 343 345 345 344 346 347 348 353 351 350 347 346 343 339 329 337 348 348 343 345 344 339 330 326 331 333 336 342 341 343
332 333 333 333 339 341 344 344 345 346 347 345 343 341 339 338 342 343 344 346 344 350 351 345 346 342 331 335 342 348 349 346 343 345 345 337 337 332 327 336 340 342 342
332 332 334 334 339 343 344 346 346 346 347 345 344 342 339 341 344 344 343 340 344 350 354 343 348 342 341 344 346 348 348 349 344 340 337 336 333 336 332 326 327 337 341
330 333 335 336 337 342 344 345 344 344 346 345 346 344 341 342 341 341 342 344 346 346 347 351 349 347 343 339 339 348 349 348 347 342 336 332 331 331 335 327 326 328 337
332 331 331 335 337 339 342 344 342 341 346 345 345 344 344 343 341 340 341 343 344 342 343 347 348 343 341 332 343 345 344 348 346 347 340 332 333 332 334 336 334 327 332
332 333 333 335 337 342 342 344 343 341 346 344 343 344 346 344 343 341 344 345 343 342 345 347 348 349 349 346 348 345 346 346 343 341 342 345 337 335 339 335 329 325 328
334 333 333 336 337 340 343 345 344 344 345 346 345 345 346 345 345 347 344 344 346 346 345 347 343 341 347 348 348 345 344 344 341 336 344 345 346 344 341 339 335 336 328
332 333 335 339 340 339 338 344 346 346 347 347 347 344 347 346 346 345 344 346 347 345 346 343 340 340 344 348 347 347 346 344 343 335 342 342 343 344 344 342 338 341 334
330 334 336 340 341 342 343 340 342 347 348 347 347 346 348 347 346 344 343 342 341 340 341 339 339 343 347 348 346 345 347 344 343 344 343 344 343 344 346 344 344 340 339
331 335 335 335 337 338 339 340 339 342 346 345 346 348 348 347 346 345 345 342 340 338 335 338 344 348 349 348 347 346 349 346 344 344 344 344 347 342 343 342 340 340 341
331 334 335 333 335 336 337 339 339 340 346 345 347 347 345 342 346 343 342 343 345 346 343 346 347 348 347 347 347 347 347 346 347 346 344 345 344 344 343 340 338 342 343
331 333 333 334 334 336 336 338 341 345 344 344 345 343 341 341 345 345 342 342 344 342 344 345 346 341 337 337 339 343 344 347 349 348 348 346 346 343 343 343 341 342 339
330 332 333 333 333 335 341 341 342 342 342 341 340 340 341 342 342 342 343 343 343 342 343 341 338 334 332 329 330 335 337 345 346 349 349 344 342 339 338 342 341 341 337
331 332 333 335 335 338 337 341 341 340 340 339 338 340 339 338 337 340 342 342 341 340 342 337 331 325 321 319 321 325 331 338 344 346 346 338 334 336 333 333 335 338 338
332 331 331 333 335 335 340 335 341 341 339 339 340 342 340 340 340 342 341 338 337 340 331 321 315 310 312 317 319 325 328 336 342 340 341 334 324 321 325 332 337 337 335
327 327 324 325 325 328 329 335 341 341 339 339 340 340 339 339 338 336 335 333 335 334 325 320 315 309 309 315 319 329 335 334 329 332 326 318 314 315 320 326 329 336 331
324 324 324 323 323 326 327 328 331 332 334 336 339 339 338 337 334 333 333 333 333 331 327 321 315 308 306 312 317 325 335 326 317 316 313 310 309 313 316 315 319 323 324
319 319 321 321 322 321 324 324 321 323 322 324 326 331 332 331 328 328 327 327 334 333 328 320 314 311 305 310 312 313 319 323 321 317 315 314 308 310 310 309 309 312 315
317 317 318 316 316 321 320 319 319 317 319 320 321 323 326 325 324 323 323 325 330 326 322 320 314 308 305 305 309 309 306 309 314 314 313 309 311 307 307 308 309 312 312
315 317 315 314 315 317 317 315 315 317 319 318 320 320 320 322 322 322 322 321 327 325 322 314 311 310 306 307 307 308 309 311 307 308 308 306 307 307 308 310 311 312 316
315 317 314 314 314 314 313 311 311 312 313 314 313 315 315 316 316 316 315 314 319 323 324 323 315 308 306 305 306 307 308 308 306 304 305 307 306 308 310 312 312 311 308
313 312 311 310 308 310 310 309 309 310 308 307 307 308 309 306 304 309 308 305 306 308 309 308 313 309 308 304 299 297 297 301 299 301 303 310 311 310 309 308 308 308 306
315 314 313 311 310 310 307 308 308 308 307 307 306 306 305 301 297 297 298 298 297 299 302 302 303 306 303 300 296 295 296 296 297 300 308 307 304 304 304 304 305 304 302
315 314 313 311 311 310 308 308 308 309 308 306 306 307 307 304 298 296 294 297 296 296 295 296 297 295 297 296 294 293 293 294 296 300 303 303 302 302 301 300 300 300 301

GFSMW_sfc_thetae_111.txt.gz
Theta_e
334 338 340 339 339 337 336 337 341 340 342 341 338 338 339 342 343 349 347 348 349 351 347 344 335 341 343 342 347 346 343 339 339 336 335 333 337 337 341 343 343 343 342
332 337 337 338 337 336 337 338 341 339 340 342 341 342 342 344 343 346 348 350 348 349 348 345 344 344 338 337 345 346 343 343 342 338 331 326 332 336 338 341 343 343 344
330 335 335 336 337 337 338 338 340 339 342 344 343 343 344 343 342 344 345 347 351 351 348 346 342 341 335 329 340 345 345 340 343 341 336 328 325 329 334 338 341 341 342
331 334 333 334 336 338 341 339 340 343 344 343 341 340 338 337 340 340 342 345 343 349 350 345 343 338 331 338 343 347 347 342 338 340 339 335 336 330 325 334 337 340 340
331 333 333 334 337 341 342 341 342 343 343 342 342 340 337 338 341 341 341 341 341 347 351 342 345 340 340 342 344 346 346 346 340 336 335 334 332 333 330 325 327 333 339
331 333 333 334 337 340 342 342 341 342 343 341 342 341 339 339 340 339 341 341 342 345 346 349 346 344 342 339 341 346 346 346 343 337 332 331 329 329 330 326 324 327 333
331 331 330 331 336 338 341 342 341 340 342 342 342 342 341 340 340 340 340 340 341 341 343 346 346 343 340 337 337 344 343 345 344 342 337 332 331 331 333 333 331 326 327
330 331 332 332 335 339 341 342 340 339 342 341 342 342 343 342 341 340 339 341 342 342 343 345 348 346 345 340 346 345 344 346 342 339 341 341 336 334 338 334 328 327 328
332 331 332 334 335 337 340 341 340 339 342 342 341 341 343 342 342 342 342 342 343 343 344 346 345 346 347 347 346 344 342 342 340 337 338 343 343 339 337 337 333 333 325
333 333 332 335 337 340 340 341 342 340 342 343 341 342 342 343 344 345 343 342 343 345 340 343 342 340 342 345 347 345 344 342 340 334 338 340 342 342 342 340 336 337 333
332 334 334 337 338 341 342 343 342 342 344 344 344 343 343 344 344 344 344 343 342 341 341 342 339 337 342 345 346 345 345 343 341 342 343 341 342 341 343 342 341 338 335
332 334 337 337 338 340 341 341 340 343 345 345 345 344 344 344 344 343 343 342 339 338 336 337 336 341 346 346 346 344 348 345 343 342 341 342 347 341 340 341 340 339 339
331 334 335 335 336 337 336 337 338 338 342 344 343 344 344 344 343 341 342 343 341 340 339 340 342 345 345 345 345 346 347 347 346 345 344 344 343 342 342 339 338 339 341
330 332 333 332 333 335 336 336 338 340 342 344 345 344 344 344 344 345 342 341 342 340 343 344 344 343 338 339 339 342 344 344 346 347 347 346 345 342 342 342 341 340 339
330 332 332 332 332 334 335 337 340 342 343 344 341 343 345 346 344 344 342 343 342 342 342 341 338 334 333 330 329 333 336 339 342 347 348 344 342 339 337 342 342 340 337
328 330 332 333 333 335 338 338 340 341 341 341 342 342 343 343 341 340 340 341 341 341 343 337 332 327 328 322 321 326 330 337 343 344 341 339 336 333 331 332 333 336 336
330 330 330 333 334 335 337 338 339 340 338 338 339 340 338 337 338 339 340 340 339 339 331 324 318 313 313 317 320 324 327 336 341 343 342 331 321 323 327 332 331 330 331
326 327 326 327 327 330 333 336 338 339 339 337 337 338 338 339 339 339 337 335 336 329 320 314 312 310 312 317 323 331 334 333 334 332 330 323 315 315 320 324 333 328 323
324 324 324 323 325 327 327 334 333 336 338 337 339 338 339 336 335 333 332 333 331 323 318 314 310 307 307 313 318 329 326 323 320 319 319 314 309 313 315 314 317 318 315
319 321 323 323 323 324 327 327 331 334 333 335 337 336 336 334 332 331 331 331 330 326 320 315 309 309 304 310 311 322 321 314 314 317 315 314 309 309 310 308 309 310 312
316 318 317 317 320 324 323 321 321 320 325 328 328 329 329 329 329 328 329 331 329 322 318 314 309 304 304 306 309 309 310 314 315 313 311 307 310 307 306 309 310 311 312
316 317 315 314 316 318 319 318 317 320 323 326 325 323 323 325 322 323 324 327 325 322 319 314 308 306 304 307 307 308 309 310 307 307 306 304 306 307 308 310 311 311 311
315 316 314 313 313 314 315 313 312 315 316 316 316 317 316 316 317 317 316 318 325 325 319 314 310 305 305 301 304 305 305 307 304 302 305 306 306 307 309 311 310 308 304
313 313 313 312 311 310 309 310 309 310 308 309 309 311 311 307 307 309 310 310 311 312 312 312 317 308 309 304 300 299 297 301 300 303 309 310 309 308 307 305 305 305 303
311 311 309 308 307 306 307 308 308 306 305 304 304 304 304 300 298 296 299 300 295 299 303 302 308 306 306 303 299 296 294 297 298 302 305 304 303 303 302 302 301 301 301
313 312 311 310 309 306 305 306 306 306 306 304 305 305 304 299 297 296 294 297 296 295 294 295 298 296 298 296 294 293 294 294 296 303 302 301 301 300 299 297 298 298 299

GFSMW_sfc_thetae_114.txt.gz
Theta_e
333 336 337 337 339 338 337 339 342 343 343 341 340 341 341 344 345 348 350 349 349 352 350 348 342 349 349 347 352 351 347 347 345 345 342 341 342 344 347 346 347 349 350
331 334 336 337 337 337 336 339 341 341 342 342 341 343 344 346 347 349 351 351 350 352 350 347 346 349 344 347 352 351 348 347 347 345 336 333 337 341 343 347 346 347 348
329 332 334 335 337 336 336 338 341 340 343 344 344 344 345 345 345 347 348 350 352 352 352 349 349 347 341 345 350 353 350 347 345 345 343 337 333 336 344 344 345 345 348
331 334 334 334 335 337 338 339 341 340 343 344 343 343 341 339 342 345 346 349 348 351 350 350 346 343 338 347 351 353 352 348 346 345 341 342 344 336 334 342 342 344 345
330 333 334 335 336 337 339 339 341 341 344 343 343 341 340 341 344 345 345 347 346 351 353 349 349 343 347 349 352 353 353 352 345 344 343 341 340 339 339 335 337 340 343
330 334 336 336 336 339 341 340 340 342 343 343 342 342 340 340 342 343 343 344 346 348 351 351 346 349 348 347 349 353 353 352 347 342 341 341 341 339 340 337 334 335 342
329 332 333 332 334 338 340 340 340 341 343 342 342 342 342 342 343 343 343 344 345 346 348 351 351 349 349 346 343 350 350 351 352 349 345 341 338 339 342 342 339 335 337
329 332 333 332 335 337 340 341 340 340 343 343 342 343 344 343 343 344 344 345 345 346 348 348 352 350 348 343 345 349 349 351 349 348 350 349 344 341 345 343 340 339 339
330 331 332 332 335 337 339 341 340 340 342 343 343 343 345 344 344 345 345 344 347 347 347 349 351 350 351 351 351 350 348 348 347 345 346 350 351 342 343 344 344 343 338
330 331 332 333 334 338 340 341 341 340 342 343 342 343 344 346 345 347 346 346 345 346 346 347 347 348 348 350 351 351 350 348 346 342 346 349 350 349 347 346 343 344 342
331 331 333 334 335 337 339 340 341 340 341 344 343 343 344 345 346 346 346 346 347 347 346 345 346 344 344 348 350 349 350 348 348 348 347 349 348 347 348 348 346 344 342
331 333 333 335 335 338 339 339 341 341 343 345 345 344 345 346 346 345 346 345 344 344 344 346 344 342 345 350 350 348 351 349 348 348 347 347 348 349 348 347 348 346 345
330 333 334 335 336 338 340 341 342 342 345 345 345 344 345 345 345 345 345 345 343 343 342 340 340 343 350 350 350 349 348 351 350 351 349 349 349 348 349 347 346 344 346
331 333 334 335 336 337 339 340 340 343 344 344 344 343 343 344 344 344 343 344 343 343 345 345 347 349 347 347 346 345 347 347 349 350 350 350 351 350 349 347 347 346 346
330 331 332 333 335 335 336 337 338 340 342 342 344 343 344 345 345 343 343 344 345 344 343 344 344 341 340 336 335 338 340 342 346 348 351 349 344 340 340 348 347 346 346
329 331 332 333 333 335 335 337 339 340 342 343 340 341 344 342 343 343 342 343 342 342 343 340 337 336 333 322 323 326 333 338 343 346 348 341 337 335 331 333 334 338 344
329 330 331 332 333 335 336 335 338 341 340 339 340 340 341 341 341 341 340 340 339 340 340 334 328 322 319 319 321 325 329 337 342 345 341 334 328 328 333 331 329 329 328
328 328 329 330 329 332 337 339 339 338 337 337 338 340 339 339 338 339 340 339 339 336 329 321 316 316 318 317 322 329 337 337 330 331 331 325 322 323 323 337 335 326 327
324 324 325 325 326 328 332 335 337 337 338 336 336 338 339 339 339 339 338 336 334 326 321 318 315 315 314 313 320 330 329 324 321 320 321 319 314 313 315 325 328 322 323
321 321 323 323 323 325 331 334 333 335 335 335 335 338 340 339 335 334 335 336 330 324 318 314 312 310 311 310 312 323 322 318 318 320 318 314 313 311 311 317 320 320 319
318 318 318 317 319 323 325 324 323 322 327 328 329 330 332 333 333 332 334 334 327 322 318 314 310 310 309 309 309 310 320 322 322 318 317 312 309 308 307 310 320 319 320
317 318 316 316 318 322 319 317 316 321 324 326 323 322 323 326 328 328 330 332 327 321 320 312 308 307 307 307 307 307 309 312 315 314 311 308 307 307 307 313 310 310 312
315 316 315 313 314 316 317 315 316 317 319 319 318 320 319 320 321 320 323 327 325 321 316 313 310 308 308 305 304 304 304 306 308 307 307 307 306 307 309 310 309 309 309
314 314 314 312 310 310 311 311 311 312 311 311 313 314 315 312 311 312 312 318 318 321 321 320 316 310 309 309 305 303 303 304 306 309 313 311 309 308 308 308 309 308 308
312 311 310 309 309 310 310 310 309 309 307 307 307 307 304 304 302 298 300 302 299 303 309 309 314 313 311 309 301 299 300 300 300 307 310 308 307 306 305 306 306 305 305
312 311 312 311 309 309 309 309 309 309 307 306 307 307 304 302 302 301 299 297 297 295 294 295 303 303 300 296 294 293 294 294 296 308 307 305 306 305 304 304 302 302 301

GFSMW_sfc_thetae_117.txt.gz
Theta_e
339 342 344 345 345 347 348 350 350 353 353 352 351 351 357 353 354 354 359 358 360 361 363 359 356 362 360 362 364 361 359 356 358 353 352 353 355 354 355 356 356 356 358
337 340 342 343 344 346 348 350 351 354 354 352 353 353 354 354 355 358 360 361 359 362 360 360 356 362 358 363 364 363 357 357 357 352 348 342 345 350 353 356 355 355 356
335 338 340 342 344 345 347 349 353 355 355 355 354 355 356 360 354 356 357 359 360 361 360 360 361 360 356 359 364 363 360 354 354 356 352 343 340 348 353 354 357 356 357
336 339 340 341 343 344 348 350 353 355 355 356 355 357 351 348 357 364 363 358 361 361 359 359 358 359 351 359 362 363 361 361 353 354 352 356 354 345 342 351 354 354 353
335 337 340 341 343 345 346 348 352 354 355 356 357 352 358 352 356 355 359 359 358 360 360 360 359 355 353 361 363 364 364 359 354 353 353 353 350 351 346 340 346 349 350
334 337 341 343 343 345 345 346 349 352 354 356 355 356 356 356 352 356 352 356 355 355 361 361 358 359 359 358 362 365 362 362 357 355 354 352 348 347 346 343 348 344 351
333 336 339 340 342 343 344 345 348 350 352 354 354 355 355 356 355 357 360 356 359 358 359 363 358 359 361 358 356 362 361 362 360 361 356 355 348 351 353 350 348 345 350
332 335 339 340 342 342 345 346 346 348 352 353 354 355 356 352 352 356 358 354 353 354 358 359 362 363 360 358 356 355 358 359 360 358 362 359 355 354 356 352 347 344 348
332 335 339 338 342 343 345 346 347 348 351 352 354 354 356 355 353 356 356 354 356 355 357 357 358 361 360 359 359 354 358 359 358 357 356 358 359 354 355 354 351 345 337
330 335 338 339 342 344 346 348 348 348 350 352 353 353 354 357 357 356 356 356 356 357 358 356 356 359 360 361 361 361 360 359 357 354 353 356 357 357 357 355 353 351 347
330 333 335 336 340 345 346 348 349 350 349 351 353 353 353 354 356 356 358 358 357 356 355 356 356 357 357 357 358 360 360 359 358 357 356 357 360 354 354 355 354 352 351
332 333 335 335 340 342 345 346 349 349 351 352 354 353 354 355 355 356 357 357 356 356 356 356 354 354 355 355 357 357 356 357 357 357 357 356 353 358 362 354 356 354 356
333 334 334 335 337 341 344 346 348 349 351 352 353 353 353 354 355 356 356 356 356 355 353 352 351 354 354 354 357 360 359 357 357 357 357 356 356 358 354 361 361 355 353
334 336 337 334 337 344 345 346 347 346 351 351 352 352 353 354 355 357 354 353 354 354 354 355 355 354 355 358 359 357 357 357 356 357 358 359 358 358 358 358 359 355 358
333 336 338 339 338 338 344 348 345 345 351 349 351 353 357 354 356 353 353 352 352 353 354 353 353 355 354 353 352 354 353 353 354 356 357 359 344 338 338 349 358 357 357
333 336 337 337 335 336 340 342 347 346 347 351 351 354 351 348 351 349 351 351 349 347 351 350 342 340 344 324 324 331 347 348 350 352 355 350 341 337 335 335 336 341 353
333 336 336 335 335 335 338 338 341 345 346 347 348 347 345 347 345 345 347 347 344 343 346 343 337 336 327 320 322 324 338 343 348 351 354 345 335 336 339 332 329 328 327
330 333 336 335 337 340 341 338 339 340 340 339 340 342 341 341 343 343 342 343 342 341 339 333 327 323 321 316 321 328 340 345 342 338 342 339 327 324 328 338 332 330 331
325 326 328 330 333 336 343 342 341 341 341 338 341 340 341 340 339 338 341 341 342 338 330 324 321 321 319 313 321 333 339 334 326 324 325 329 322 314 316 332 332 328 326
324 323 324 325 326 327 332 337 338 339 339 336 337 340 340 341 340 340 339 337 336 331 325 322 320 315 319 311 313 329 340 334 329 325 321 313 318 311 311 328 331 329 330
322 322 322 320 322 325 329 329 331 329 333 333 334 333 330 335 337 336 336 332 327 325 324 321 319 316 316 313 310 312 335 333 333 330 327 325 311 310 308 312 327 327 328
321 322 321 319 320 321 321 320 321 325 328 328 329 330 328 326 327 331 334 329 325 322 320 318 315 314 310 308 306 308 310 314 328 329 325 320 308 308 309 317 311 312 318
321 320 319 317 317 318 319 314 315 319 321 322 321 320 324 322 320 324 328 329 328 324 322 317 312 310 310 309 305 305 306 307 317 317 311 309 306 307 311 310 311 313 317
321 322 320 315 314 314 314 314 315 316 316 314 315 317 313 314 316 314 319 323 325 324 320 319 318 313 312 312 310 309 310 309 315 315 314 313 313 310 312 314 316 315 314
320 319 319 317 316 316 315 315 315 316 314 314 311 308 308 307 307 306 308 311 305 305 317 314 320 319 314 312 303 302 306 307 304 315 317 316 314 311 310 309 313 311 312
319 319 317 316 315 314 314 316 316 317 314 312 312 311 309 307 307 306 303 298 298 298 295 296 306 307 301 296 295 294 294 295 298 313 316 314 314 313 312 312 309 308 308

GFSMW_sfc_thetae_120.txt.gz
Theta_e
341 345 346 346 346 348 350 353 354 358 356 354 352 351 349 354 354 355 360 361 362 363 365 358 361 365 362 363 366 360 360 355 361 351 350 351 353 352 353 355 355 357 357
338 343 345 346 346 347 350 353 355 358 359 357 358 354 352 353 354 355 359 360 362 363 362 365 360 364 360 368 366 365 355 357 362 351 349 339 344 346 350 355 355 355 357
336 340 344 345 346 347 349 352 356 358 359 359 357 357 364 358 357 355 355 358 361 362 364 364 363 365 361 359 366 364 361 352 361 362 351 340 338 345 350 354 354 361 357
338 340 342 345 346 347 350 352 356 359 359 360 361 359 351 347 356 356 357 360 360 361 362 362 363 365 360 363 364 364 364 363 355 357 358 360 358 342 341 350 353 356 355
336 338 341 345 346 348 349 352 356 360 360 362 362 352 352 350 352 353 358 360 363 362 359 364 364 363 356 362 366 364 367 361 355 351 356 358 353 357 345 339 347 352 354
337 339 343 345 346 348 349 351 355 358 358 361 358 358 355 353 353 353 351 355 354 356 362 362 365 364 362 361 361 366 364 364 361 357 356 351 347 346 345 342 345 346 351
337 338 341 342 345 347 348 350 353 355 357 359 358 356 355 356 355 354 351 354 352 353 360 363 363 359 365 363 362 366 365 363 360 363 355 357 352 352 351 347 345 343 349
338 338 341 343 345 347 349 350 351 353 355 356 356 359 359 359 354 354 356 352 353 354 358 359 360 361 363 362 363 357 358 360 359 362 362 355 356 355 354 350 346 340 342
337 339 340 344 346 348 349 351 351 353 353 353 356 358 361 360 355 358 364 356 366 363 363 362 360 359 360 361 362 356 358 360 361 359 361 357 352 355 353 353 351 344 335
336 340 341 344 347 348 350 351 352 352 353 353 355 356 357 360 360 360 363 359 360 363 362 362 362 362 362 363 365 359 361 360 357 354 358 359 353 355 355 353 351 350 345
334 339 341 345 347 349 350 352 352 352 353 354 355 356 356 357 359 358 361 363 365 363 362 363 362 361 362 362 364 362 360 360 359 359 358 359 362 354 351 351 351 350 349
336 335 342 345 346 347 348 351 352 352 353 355 356 357 358 358 356 358 359 363 363 364 363 362 361 360 361 361 362 360 358 358 357 356 358 356 354 359 360 353 356 354 356
337 337 338 344 344 342 348 350 352 353 354 356 356 357 356 357 356 358 360 362 361 362 360 360 360 359 359 359 360 361 359 359 358 357 357 356 357 357 357 362 354 352 355
335 335 334 338 341 342 343 351 352 354 356 356 356 356 356 356 356 359 361 360 362 361 360 360 361 360 358 358 360 359 359 358 357 360 358 357 357 358 358 357 360 351 357
335 337 334 334 338 339 344 349 352 355 355 354 354 356 358 359 361 360 361 361 359 358 359 358 358 359 359 356 359 359 358 358 357 359 359 358 353 340 345 360 357 353 353
334 339 338 339 336 339 342 345 351 354 355 351 349 357 360 360 360 358 359 358 356 356 356 356 356 355 353 324 324 332 351 355 355 355 356 358 342 340 337 338 338 343 356
337 337 341 341 341 339 340 341 348 352 352 346 347 355 357 355 358 358 357 354 350 354 352 354 353 347 347 321 321 324 338 349 352 354 355 354 349 345 351 332 329 328 328
336 339 341 343 337 339 344 343 343 347 351 346 344 352 347 349 354 347 346 346 347 347 347 349 345 345 339 317 321 328 336 347 352 349 352 354 347 331 332 341 337 337 328
329 330 332 337 340 339 340 339 338 339 339 340 343 346 344 346 343 341 342 343 343 344 339 332 326 325 322 314 319 330 344 341 335 330 336 335 331 313 316 336 344 333 326
325 327 328 331 333 334 342 341 337 338 340 340 344 345 346 345 340 341 340 341 341 334 328 322 322 319 324 314 314 326 344 342 340 338 329 313 325 314 313 335 339 336 336
324 325 323 323 326 330 338 340 342 340 340 341 338 336 336 336 340 341 338 334 327 323 321 319 318 319 319 317 312 312 337 337 338 337 335 332 312 312 310 312 334 334 337
324 324 321 321 322 324 325 323 324 330 334 334 333 333 333 333 334 334 328 326 324 321 318 316 314 315 315 307 307 308 310 314 331 333 334 330 310 310 310 316 314 315 321
323 321 319 317 317 319 319 318 319 324 325 324 322 324 327 327 328 332 330 326 325 322 318 316 316 317 320 316 307 307 309 310 319 321 312 310 308 308 313 312 314 313 328
325 323 323 319 315 316 316 316 317 318 317 316 316 315 320 322 323 322 324 325 327 325 323 320 318 317 315 315 318 318 316 310 315 313 318 316 311 308 316 316 318 323 322
325 326 323 321 319 319 319 319 319 319 314 313 311 313 315 311 308 306 310 311 305 310 322 321 324 320 318 316 306 305 313 312 309 315 321 319 321 320 323 322 320 315 318
322 321 320 318 318 318 319 321 321 321 318 316 315 313 310 311 309 307 303 299 303 303 302 301 309 310 303 297 295 295 295 297 299 314 319 319 319 318 318 318 317 317 313

GFSMW_sfc_thetae_123.txt.gz
Theta_e
339 341 342 343 343 346 348 350 352 358 357 352 349 351 349 355 354 356 360 360 359 362 365 356 360 361 361 359 360 358 360 354 354 348 346 348 349 349 350 350 350 354 352
336 341 342 342 342 345 349 351 354 358 360 354 365 358 357 356 352 359 359 359 360 363 361 366 358 362 357 366 363 360 356 351 355 352 344 339 341 343 346 350 349 351 352
333 339 340 342 343 345 348 352 356 358 359 361 356 359 364 360 352 353 354 357 360 361 363 363 363 363 364 358 362 364 364 348 353 361 351 342 338 342 344 349 349 354 352
335 337 340 342 342 346 348 352 356 358 359 362 359 360 351 347 349 352 356 356 360 360 360 362 362 365 361 365 360 358 365 364 353 351 350 359 355 342 337 335 343 353 352
335 337 338 343 344 347 348 350 356 361 362 362 365 355 356 354 355 356 358 362 361 361 358 362 362 363 358 363 365 364 365 362 354 350 352 356 349 354 343 338 340 343 347
336 338 340 344 344 347 349 350 356 361 361 360 358 362 361 354 350 354 354 354 354 356 360 360 363 364 363 362 361 365 365 365 364 358 356 347 346 343 344 340 345 340 348
336 335 338 341 345 346 348 349 353 356 357 358 356 358 359 358 357 357 352 354 354 351 363 365 364 361 365 364 364 366 366 363 360 365 356 353 350 349 347 345 341 341 344
335 335 338 341 347 347 348 350 352 354 355 357 358 361 359 354 353 357 353 352 352 352 361 362 361 362 363 362 364 359 357 364 357 362 365 355 352 351 349 346 343 338 339
336 337 338 341 347 347 349 351 352 354 354 355 357 360 359 358 354 365 360 356 360 356 360 360 362 362 361 362 364 357 358 360 361 359 363 358 351 347 348 348 345 341 334
338 338 338 339 344 347 351 351 353 353 354 353 354 355 356 359 358 365 361 359 366 363 362 362 361 361 361 363 367 362 365 361 357 355 363 363 354 354 352 349 349 348 346
334 339 338 341 345 348 349 352 352 354 353 353 358 358 356 357 359 358 361 363 365 363 362 364 365 363 361 362 366 363 364 362 361 361 359 359 363 354 350 353 353 348 345
336 339 341 341 343 348 349 351 353 352 353 356 361 359 359 358 356 357 358 364 364 367 367 365 364 363 363 364 363 361 358 359 356 358 362 357 353 363 364 352 361 357 359
337 338 341 343 343 349 350 350 352 354 353 357 354 356 356 357 358 358 359 361 363 362 360 364 364 363 362 362 362 362 360 359 358 358 358 358 360 363 356 359 354 352 354
337 336 337 339 348 351 354 355 353 354 356 354 354 357 355 355 356 359 363 360 361 362 360 361 361 361 359 359 360 361 360 359 358 362 359 359 359 357 355 362 366 363 356
333 335 336 335 341 348 351 352 356 357 356 356 355 357 363 360 362 361 363 363 362 360 359 358 359 360 358 353 359 359 359 358 357 359 359 361 354 344 345 352 359 357 350
336 338 339 339 336 343 347 349 347 357 359 358 357 362 365 361 360 360 360 361 359 359 359 359 357 357 355 328 330 336 352 355 356 355 356 359 347 343 338 339 339 344 355
336 339 342 336 338 339 345 348 349 351 354 355 356 356 358 358 358 358 362 360 359 360 357 356 353 351 337 324 323 326 342 352 356 356 357 356 354 348 353 331 330 329 329
337 333 339 343 341 341 342 344 345 345 348 353 353 355 356 356 357 354 356 357 356 354 352 348 345 346 322 318 322 330 345 347 349 345 345 354 352 333 339 348 345 341 337
328 329 334 341 339 339 340 338 339 340 341 345 348 351 349 347 346 350 347 348 350 350 345 337 332 329 322 315 318 327 345 345 339 333 329 339 338 315 316 329 341 336 334
325 326 328 334 338 340 340 336 335 337 336 338 341 346 350 347 346 349 350 349 347 342 328 324 322 322 322 311 313 317 333 341 339 333 327 317 326 319 315 323 343 340 339
324 324 323 324 326 331 341 339 339 337 339 340 338 338 338 339 340 339 339 333 325 323 320 319 318 315 313 310 309 311 321 326 337 341 338 321 314 313 312 313 331 336 331
324 323 320 319 321 325 327 326 328 333 337 335 336 335 336 336 336 330 327 325 324 320 317 315 313 313 310 307 308 310 312 313 331 339 335 322 311 311 312 315 316 316 321
322 323 318 316 317 319 321 318 321 325 326 326 325 326 326 328 330 333 328 327 324 322 319 318 317 315 315 315 311 308 312 317 318 317 317 314 310 310 313 315 315 315 326
324 324 320 317 316 317 318 318 320 321 319 319 320 319 320 326 331 328 325 329 328 324 323 320 318 316 316 319 320 319 317 315 315 316 318 317 314 312 318 318 318 326 327
325 325 324 320 320 321 321 319 318 318 314 314 316 316 314 314 314 318 321 319 311 320 325 325 323 321 319 320 311 307 315 312 309 312 322 321 323 322 322 324 324 324 322
325 322 320 318 319 321 320 324 324 324 320 316 315 316 316 316 313 308 305 300 303 302 303 304 311 317 303 298 296 296 296 298 299 313 318 321 322 320 320 320 319 320 316